<?xml version="1.0" encoding="UTF-8" standalone="no" ?>
<gpx xmlns="http://www.topografix.com/GPX/1/1" xmlns:xsi="http://www.w3.org/2001/XMLSchema-instance" xsi:schemaLocation="http://www.topografix.com/GPX/1/1 http://www.topografix.com/GPX/1/1/gpx.xsd" version="1.1" creator="VisuGPX - https://www.visugpx.com">
  <metadata>
    <name>Raid Encantats 2011 - J2</name>
    <desc><![CDATA[[b]J2[/b] : Refuge Restanca - Port de Crestada - Port de Cales - Tuc de Lluça - Refuge Colomers]]></desc>
  </metadata>
  <trk>
    <name><![CDATA[J2-----------:50:40]]></name>
    <trkseg>
      <trkpt lat="42.63449" lon="0.85475">
        <ele>1966.03</ele>
        <time>2011-03-11T07:17:50Z</time>
      </trkpt>
      <trkpt lat="42.6345" lon="0.85476">
        <ele>1960.75</ele>
        <time>2011-03-11T07:17:51Z</time>
      </trkpt>
      <trkpt lat="42.63451" lon="0.85475">
        <ele>1961.23</ele>
        <time>2011-03-11T07:17:52Z</time>
      </trkpt>
      <trkpt lat="42.63453" lon="0.85474">
        <ele>1943.92</ele>
        <time>2011-03-11T07:17:55Z</time>
      </trkpt>
      <trkpt lat="42.63454" lon="0.85474">
        <ele>1961.23</ele>
        <time>2011-03-11T07:17:56Z</time>
      </trkpt>
      <trkpt lat="42.63458" lon="0.85474">
        <ele>1961.71</ele>
        <time>2011-03-11T07:18:39Z</time>
      </trkpt>
      <trkpt lat="42.63451" lon="0.85488">
        <ele>1962.19</ele>
        <time>2011-03-11T07:18:52Z</time>
      </trkpt>
      <trkpt lat="42.6345" lon="0.85492">
        <ele>1962.67</ele>
        <time>2011-03-11T07:18:57Z</time>
      </trkpt>
      <trkpt lat="42.63441" lon="0.85508">
        <ele>1964.11</ele>
        <time>2011-03-11T07:19:13Z</time>
      </trkpt>
      <trkpt lat="42.6344" lon="0.85508">
        <ele>1956.42</ele>
        <time>2011-03-11T07:19:59Z</time>
      </trkpt>
      <trkpt lat="42.6344" lon="0.85508">
        <ele>1973.72</ele>
        <time>2011-03-11T07:20:00Z</time>
      </trkpt>
      <trkpt lat="42.6344" lon="0.85508">
        <ele>1966.99</ele>
        <time>2011-03-11T07:20:01Z</time>
      </trkpt>
      <trkpt lat="42.63441" lon="0.85508">
        <ele>1964.11</ele>
        <time>2011-03-11T07:20:03Z</time>
      </trkpt>
      <trkpt lat="42.6343" lon="0.8552">
        <ele>1966.51</ele>
        <time>2011-03-11T07:20:31Z</time>
      </trkpt>
      <trkpt lat="42.63424" lon="0.85529">
        <ele>1964.11</ele>
        <time>2011-03-11T07:20:42Z</time>
      </trkpt>
      <trkpt lat="42.63422" lon="0.85532">
        <ele>1969.4</ele>
        <time>2011-03-11T07:21:00Z</time>
      </trkpt>
      <trkpt lat="42.63422" lon="0.85532">
        <ele>1966.03</ele>
        <time>2011-03-11T07:21:02Z</time>
      </trkpt>
      <trkpt lat="42.63422" lon="0.85532">
        <ele>1971.8</ele>
        <time>2011-03-11T07:21:04Z</time>
      </trkpt>
      <trkpt lat="42.63423" lon="0.85533">
        <ele>1966.03</ele>
        <time>2011-03-11T07:21:05Z</time>
      </trkpt>
      <trkpt lat="42.63421" lon="0.85536">
        <ele>1964.59</ele>
        <time>2011-03-11T07:21:26Z</time>
      </trkpt>
      <trkpt lat="42.63417" lon="0.85538">
        <ele>1966.03</ele>
        <time>2011-03-11T07:21:48Z</time>
      </trkpt>
      <trkpt lat="42.63398" lon="0.85532">
        <ele>1964.59</ele>
        <time>2011-03-11T07:22:03Z</time>
      </trkpt>
      <trkpt lat="42.63386" lon="0.85537">
        <ele>1965.07</ele>
        <time>2011-03-11T07:22:14Z</time>
      </trkpt>
      <trkpt lat="42.63378" lon="0.8554">
        <ele>1965.55</ele>
        <time>2011-03-11T07:22:23Z</time>
      </trkpt>
      <trkpt lat="42.63369" lon="0.85543">
        <ele>1966.99</ele>
        <time>2011-03-11T07:22:34Z</time>
      </trkpt>
      <trkpt lat="42.6336" lon="0.85549">
        <ele>1967.96</ele>
        <time>2011-03-11T07:22:47Z</time>
      </trkpt>
      <trkpt lat="42.63345" lon="0.85554">
        <ele>1970.36</ele>
        <time>2011-03-11T07:23:03Z</time>
      </trkpt>
      <trkpt lat="42.63344" lon="0.85556">
        <ele>1971.32</ele>
        <time>2011-03-11T07:23:06Z</time>
      </trkpt>
      <trkpt lat="42.63339" lon="0.85564">
        <ele>1974.69</ele>
        <time>2011-03-11T07:23:21Z</time>
      </trkpt>
      <trkpt lat="42.63329" lon="0.85569">
        <ele>1978.05</ele>
        <time>2011-03-11T07:23:34Z</time>
      </trkpt>
      <trkpt lat="42.63322" lon="0.85567">
        <ele>1979.01</ele>
        <time>2011-03-11T07:23:43Z</time>
      </trkpt>
      <trkpt lat="42.63307" lon="0.85552">
        <ele>1980.93</ele>
        <time>2011-03-11T07:24:00Z</time>
      </trkpt>
      <trkpt lat="42.63298" lon="0.85552">
        <ele>1984.3</ele>
        <time>2011-03-11T07:24:13Z</time>
      </trkpt>
      <trkpt lat="42.63294" lon="0.85552">
        <ele>1984.78</ele>
        <time>2011-03-11T07:24:17Z</time>
      </trkpt>
      <trkpt lat="42.63284" lon="0.85554">
        <ele>1985.74</ele>
        <time>2011-03-11T07:24:31Z</time>
      </trkpt>
      <trkpt lat="42.63278" lon="0.85551">
        <ele>1989.1</ele>
        <time>2011-03-11T07:24:41Z</time>
      </trkpt>
      <trkpt lat="42.63278" lon="0.85564">
        <ele>1990.55</ele>
        <time>2011-03-11T07:24:55Z</time>
      </trkpt>
      <trkpt lat="42.6328" lon="0.85581">
        <ele>1993.91</ele>
        <time>2011-03-11T07:25:14Z</time>
      </trkpt>
      <trkpt lat="42.63283" lon="0.85598">
        <ele>1995.83</ele>
        <time>2011-03-11T07:25:31Z</time>
      </trkpt>
      <trkpt lat="42.63286" lon="0.85607">
        <ele>1996.32</ele>
        <time>2011-03-11T07:25:42Z</time>
      </trkpt>
      <trkpt lat="42.63286" lon="0.85609">
        <ele>1997.28</ele>
        <time>2011-03-11T07:25:44Z</time>
      </trkpt>
      <trkpt lat="42.63287" lon="0.85618">
        <ele>1998.72</ele>
        <time>2011-03-11T07:25:57Z</time>
      </trkpt>
      <trkpt lat="42.63288" lon="0.85627">
        <ele>2001.6</ele>
        <time>2011-03-11T07:26:07Z</time>
      </trkpt>
      <trkpt lat="42.63288" lon="0.85629">
        <ele>2002.56</ele>
        <time>2011-03-11T07:26:09Z</time>
      </trkpt>
      <trkpt lat="42.63285" lon="0.85629">
        <ele>2004.49</ele>
        <time>2011-03-11T07:26:24Z</time>
      </trkpt>
      <trkpt lat="42.63277" lon="0.85627">
        <ele>2005.45</ele>
        <time>2011-03-11T07:26:38Z</time>
      </trkpt>
      <trkpt lat="42.63275" lon="0.85627">
        <ele>2007.37</ele>
        <time>2011-03-11T07:26:41Z</time>
      </trkpt>
      <trkpt lat="42.63269" lon="0.85633">
        <ele>2009.77</ele>
        <time>2011-03-11T07:26:57Z</time>
      </trkpt>
      <trkpt lat="42.63268" lon="0.85643">
        <ele>2011.7</ele>
        <time>2011-03-11T07:27:15Z</time>
      </trkpt>
      <trkpt lat="42.63266" lon="0.85652">
        <ele>2014.58</ele>
        <time>2011-03-11T07:27:28Z</time>
      </trkpt>
      <trkpt lat="42.63264" lon="0.85665">
        <ele>2016.98</ele>
        <time>2011-03-11T07:27:45Z</time>
      </trkpt>
      <trkpt lat="42.63258" lon="0.85674">
        <ele>2018.43</ele>
        <time>2011-03-11T07:28:00Z</time>
      </trkpt>
      <trkpt lat="42.63257" lon="0.85676">
        <ele>2019.87</ele>
        <time>2011-03-11T07:28:02Z</time>
      </trkpt>
      <trkpt lat="42.63251" lon="0.85683">
        <ele>2019.87</ele>
        <time>2011-03-11T07:28:11Z</time>
      </trkpt>
      <trkpt lat="42.63246" lon="0.85689">
        <ele>2023.23</ele>
        <time>2011-03-11T07:28:26Z</time>
      </trkpt>
      <trkpt lat="42.63237" lon="0.85695">
        <ele>2024.19</ele>
        <time>2011-03-11T07:28:42Z</time>
      </trkpt>
      <trkpt lat="42.63232" lon="0.85696">
        <ele>2027.56</ele>
        <time>2011-03-11T07:28:51Z</time>
      </trkpt>
      <trkpt lat="42.63225" lon="0.85694">
        <ele>2028.52</ele>
        <time>2011-03-11T07:29:06Z</time>
      </trkpt>
      <trkpt lat="42.63221" lon="0.857">
        <ele>2031.4</ele>
        <time>2011-03-11T07:29:25Z</time>
      </trkpt>
      <trkpt lat="42.63223" lon="0.85711">
        <ele>2032.36</ele>
        <time>2011-03-11T07:29:38Z</time>
      </trkpt>
      <trkpt lat="42.63225" lon="0.85716">
        <ele>2034.29</ele>
        <time>2011-03-11T07:29:48Z</time>
      </trkpt>
      <trkpt lat="42.63227" lon="0.85727">
        <ele>2037.17</ele>
        <time>2011-03-11T07:30:11Z</time>
      </trkpt>
      <trkpt lat="42.63227" lon="0.85736">
        <ele>2039.57</ele>
        <time>2011-03-11T07:30:33Z</time>
      </trkpt>
      <trkpt lat="42.6323" lon="0.85736">
        <ele>2038.61</ele>
        <time>2011-03-11T07:30:49Z</time>
      </trkpt>
      <trkpt lat="42.63228" lon="0.8574">
        <ele>2034.29</ele>
        <time>2011-03-11T07:31:03Z</time>
      </trkpt>
      <trkpt lat="42.63229" lon="0.85741">
        <ele>2035.25</ele>
        <time>2011-03-11T07:31:04Z</time>
      </trkpt>
      <trkpt lat="42.63229" lon="0.85744">
        <ele>2041.02</ele>
        <time>2011-03-11T07:31:05Z</time>
      </trkpt>
      <trkpt lat="42.63231" lon="0.85748">
        <ele>2043.9</ele>
        <time>2011-03-11T07:31:07Z</time>
      </trkpt>
      <trkpt lat="42.63232" lon="0.85754">
        <ele>2040.05</ele>
        <time>2011-03-11T07:31:09Z</time>
      </trkpt>
      <trkpt lat="42.63231" lon="0.85761">
        <ele>2039.09</ele>
        <time>2011-03-11T07:31:11Z</time>
      </trkpt>
      <trkpt lat="42.63229" lon="0.85768">
        <ele>2039.57</ele>
        <time>2011-03-11T07:31:16Z</time>
      </trkpt>
      <trkpt lat="42.63226" lon="0.85774">
        <ele>2040.05</ele>
        <time>2011-03-11T07:31:34Z</time>
      </trkpt>
      <trkpt lat="42.63219" lon="0.85764">
        <ele>2043.9</ele>
        <time>2011-03-11T07:32:10Z</time>
      </trkpt>
      <trkpt lat="42.63225" lon="0.85774">
        <ele>2046.78</ele>
        <time>2011-03-11T07:32:33Z</time>
      </trkpt>
      <trkpt lat="42.63229" lon="0.85783">
        <ele>2049.19</ele>
        <time>2011-03-11T07:32:50Z</time>
      </trkpt>
      <trkpt lat="42.63236" lon="0.85791">
        <ele>2052.07</ele>
        <time>2011-03-11T07:33:10Z</time>
      </trkpt>
      <trkpt lat="42.63243" lon="0.85798">
        <ele>2055.44</ele>
        <time>2011-03-11T07:33:29Z</time>
      </trkpt>
      <trkpt lat="42.63252" lon="0.85805">
        <ele>2058.32</ele>
        <time>2011-03-11T07:34:01Z</time>
      </trkpt>
      <trkpt lat="42.63261" lon="0.85812">
        <ele>2061.2</ele>
        <time>2011-03-11T07:34:27Z</time>
      </trkpt>
      <trkpt lat="42.63267" lon="0.85817">
        <ele>2062.65</ele>
        <time>2011-03-11T07:34:38Z</time>
      </trkpt>
      <trkpt lat="42.63273" lon="0.85823">
        <ele>2066.49</ele>
        <time>2011-03-11T07:35:28Z</time>
      </trkpt>
      <trkpt lat="42.63273" lon="0.85823">
        <ele>2066.49</ele>
        <time>2011-03-11T07:35:29Z</time>
      </trkpt>
      <trkpt lat="42.63255" lon="0.85834">
        <ele>2070.34</ele>
        <time>2011-03-11T07:36:24Z</time>
      </trkpt>
      <trkpt lat="42.63255" lon="0.85834">
        <ele>2070.82</ele>
        <time>2011-03-11T07:36:29Z</time>
      </trkpt>
      <trkpt lat="42.63246" lon="0.85837">
        <ele>2074.18</ele>
        <time>2011-03-11T07:36:50Z</time>
      </trkpt>
      <trkpt lat="42.63235" lon="0.85841">
        <ele>2077.55</ele>
        <time>2011-03-11T07:37:26Z</time>
      </trkpt>
      <trkpt lat="42.63218" lon="0.85847">
        <ele>2080.43</ele>
        <time>2011-03-11T07:38:08Z</time>
      </trkpt>
      <trkpt lat="42.63209" lon="0.8585">
        <ele>2083.79</ele>
        <time>2011-03-11T07:38:24Z</time>
      </trkpt>
      <trkpt lat="42.63206" lon="0.85848">
        <ele>2084.28</ele>
        <time>2011-03-11T07:38:28Z</time>
      </trkpt>
      <trkpt lat="42.63195" lon="0.85844">
        <ele>2088.12</ele>
        <time>2011-03-11T07:38:49Z</time>
      </trkpt>
      <trkpt lat="42.63195" lon="0.85844">
        <ele>2088.6</ele>
        <time>2011-03-11T07:39:16Z</time>
      </trkpt>
      <trkpt lat="42.63201" lon="0.85843">
        <ele>2088.12</ele>
        <time>2011-03-11T07:39:29Z</time>
      </trkpt>
      <trkpt lat="42.63203" lon="0.85843">
        <ele>2090.04</ele>
        <time>2011-03-11T07:39:32Z</time>
      </trkpt>
      <trkpt lat="42.63202" lon="0.85842">
        <ele>2090.04</ele>
        <time>2011-03-11T07:40:47Z</time>
      </trkpt>
      <trkpt lat="42.63201" lon="0.85839">
        <ele>2091.97</ele>
        <time>2011-03-11T07:41:06Z</time>
      </trkpt>
      <trkpt lat="42.63202" lon="0.85837">
        <ele>2092.93</ele>
        <time>2011-03-11T07:41:16Z</time>
      </trkpt>
      <trkpt lat="42.63203" lon="0.85843">
        <ele>2094.37</ele>
        <time>2011-03-11T07:41:33Z</time>
      </trkpt>
      <trkpt lat="42.63213" lon="0.8586">
        <ele>2097.73</ele>
        <time>2011-03-11T07:41:52Z</time>
      </trkpt>
      <trkpt lat="42.63218" lon="0.85868">
        <ele>2100.62</ele>
        <time>2011-03-11T07:42:14Z</time>
      </trkpt>
      <trkpt lat="42.63228" lon="0.85878">
        <ele>2103.02</ele>
        <time>2011-03-11T07:42:38Z</time>
      </trkpt>
      <trkpt lat="42.63236" lon="0.85889">
        <ele>2106.39</ele>
        <time>2011-03-11T07:43:03Z</time>
      </trkpt>
      <trkpt lat="42.63236" lon="0.8589">
        <ele>2105.42</ele>
        <time>2011-03-11T07:43:04Z</time>
      </trkpt>
      <trkpt lat="42.63246" lon="0.85898">
        <ele>2107.35</ele>
        <time>2011-03-11T07:43:25Z</time>
      </trkpt>
      <trkpt lat="42.63249" lon="0.85903">
        <ele>2109.27</ele>
        <time>2011-03-11T07:43:44Z</time>
      </trkpt>
      <trkpt lat="42.63255" lon="0.85914">
        <ele>2111.67</ele>
        <time>2011-03-11T07:44:03Z</time>
      </trkpt>
      <trkpt lat="42.6326" lon="0.85915">
        <ele>2114.56</ele>
        <time>2011-03-11T07:44:18Z</time>
      </trkpt>
      <trkpt lat="42.63272" lon="0.85927">
        <ele>2117.92</ele>
        <time>2011-03-11T07:45:24Z</time>
      </trkpt>
      <trkpt lat="42.63278" lon="0.85929">
        <ele>2118.88</ele>
        <time>2011-03-11T07:45:33Z</time>
      </trkpt>
      <trkpt lat="42.63283" lon="0.85931">
        <ele>2122.25</ele>
        <time>2011-03-11T07:46:03Z</time>
      </trkpt>
      <trkpt lat="42.6328" lon="0.85931">
        <ele>2125.61</ele>
        <time>2011-03-11T07:52:32Z</time>
      </trkpt>
      <trkpt lat="42.63267" lon="0.85941">
        <ele>2128.98</ele>
        <time>2011-03-11T07:52:48Z</time>
      </trkpt>
      <trkpt lat="42.63265" lon="0.85942">
        <ele>2132.34</ele>
        <time>2011-03-11T07:53:33Z</time>
      </trkpt>
      <trkpt lat="42.63271" lon="0.85946">
        <ele>2135.23</ele>
        <time>2011-03-11T07:54:00Z</time>
      </trkpt>
      <trkpt lat="42.63271" lon="0.85946">
        <ele>2135.71</ele>
        <time>2011-03-11T07:54:04Z</time>
      </trkpt>
      <trkpt lat="42.63271" lon="0.85947">
        <ele>2135.71</ele>
        <time>2011-03-11T07:54:30Z</time>
      </trkpt>
      <trkpt lat="42.63269" lon="0.85949">
        <ele>2139.07</ele>
        <time>2011-03-11T07:55:06Z</time>
      </trkpt>
      <trkpt lat="42.63274" lon="0.85956">
        <ele>2140.03</ele>
        <time>2011-03-11T07:55:26Z</time>
      </trkpt>
      <trkpt lat="42.63286" lon="0.85963">
        <ele>2143.4</ele>
        <time>2011-03-11T07:55:48Z</time>
      </trkpt>
      <trkpt lat="42.63294" lon="0.85967">
        <ele>2141.47</ele>
        <time>2011-03-11T07:56:10Z</time>
      </trkpt>
      <trkpt lat="42.63294" lon="0.85967">
        <ele>2144.84</ele>
        <time>2011-03-11T07:56:11Z</time>
      </trkpt>
      <trkpt lat="42.63291" lon="0.85966">
        <ele>2146.28</ele>
        <time>2011-03-11T07:57:57Z</time>
      </trkpt>
      <trkpt lat="42.63284" lon="0.85973">
        <ele>2149.65</ele>
        <time>2011-03-11T07:59:04Z</time>
      </trkpt>
      <trkpt lat="42.63285" lon="0.85977">
        <ele>2149.65</ele>
        <time>2011-03-11T07:59:15Z</time>
      </trkpt>
      <trkpt lat="42.63289" lon="0.8598">
        <ele>2153.01</ele>
        <time>2011-03-11T08:00:08Z</time>
      </trkpt>
      <trkpt lat="42.63284" lon="0.85994">
        <ele>2153.97</ele>
        <time>2011-03-11T08:00:22Z</time>
      </trkpt>
      <trkpt lat="42.6328" lon="0.85996">
        <ele>2157.34</ele>
        <time>2011-03-11T08:00:35Z</time>
      </trkpt>
      <trkpt lat="42.63279" lon="0.85996">
        <ele>2158.3</ele>
        <time>2011-03-11T08:00:51Z</time>
      </trkpt>
      <trkpt lat="42.63285" lon="0.86005">
        <ele>2161.66</ele>
        <time>2011-03-11T08:01:18Z</time>
      </trkpt>
      <trkpt lat="42.63293" lon="0.8601">
        <ele>2162.14</ele>
        <time>2011-03-11T08:01:37Z</time>
      </trkpt>
      <trkpt lat="42.63288" lon="0.86012">
        <ele>2165.51</ele>
        <time>2011-03-11T08:02:07Z</time>
      </trkpt>
      <trkpt lat="42.63281" lon="0.86013">
        <ele>2166.47</ele>
        <time>2011-03-11T08:02:21Z</time>
      </trkpt>
      <trkpt lat="42.63274" lon="0.86013">
        <ele>2169.83</ele>
        <time>2011-03-11T08:02:48Z</time>
      </trkpt>
      <trkpt lat="42.63277" lon="0.86025">
        <ele>2173.68</ele>
        <time>2011-03-11T08:04:13Z</time>
      </trkpt>
      <trkpt lat="42.63284" lon="0.86035">
        <ele>2175.6</ele>
        <time>2011-03-11T08:04:36Z</time>
      </trkpt>
      <trkpt lat="42.63273" lon="0.86042">
        <ele>2179.45</ele>
        <time>2011-03-11T08:04:55Z</time>
      </trkpt>
      <trkpt lat="42.63268" lon="0.86041">
        <ele>2182.33</ele>
        <time>2011-03-11T08:05:27Z</time>
      </trkpt>
      <trkpt lat="42.6327" lon="0.86053">
        <ele>2183.77</ele>
        <time>2011-03-11T08:05:44Z</time>
      </trkpt>
      <trkpt lat="42.63269" lon="0.86054">
        <ele>2187.14</ele>
        <time>2011-03-11T08:06:00Z</time>
      </trkpt>
      <trkpt lat="42.6327" lon="0.86059">
        <ele>2190.5</ele>
        <time>2011-03-11T08:06:41Z</time>
      </trkpt>
      <trkpt lat="42.63267" lon="0.86064">
        <ele>2193.39</ele>
        <time>2011-03-11T08:07:03Z</time>
      </trkpt>
      <trkpt lat="42.63262" lon="0.86061">
        <ele>2194.35</ele>
        <time>2011-03-11T08:07:59Z</time>
      </trkpt>
      <trkpt lat="42.63264" lon="0.86068">
        <ele>2196.75</ele>
        <time>2011-03-11T08:08:22Z</time>
      </trkpt>
      <trkpt lat="42.63264" lon="0.86068">
        <ele>2196.75</ele>
        <time>2011-03-11T08:08:33Z</time>
      </trkpt>
      <trkpt lat="42.63266" lon="0.86079">
        <ele>2198.19</ele>
        <time>2011-03-11T08:08:41Z</time>
      </trkpt>
      <trkpt lat="42.63272" lon="0.86089">
        <ele>2200.11</ele>
        <time>2011-03-11T08:08:55Z</time>
      </trkpt>
      <trkpt lat="42.63274" lon="0.86094">
        <ele>2201.56</ele>
        <time>2011-03-11T08:09:16Z</time>
      </trkpt>
      <trkpt lat="42.63268" lon="0.86104">
        <ele>2204.44</ele>
        <time>2011-03-11T08:09:28Z</time>
      </trkpt>
      <trkpt lat="42.63274" lon="0.86112">
        <ele>2207.32</ele>
        <time>2011-03-11T08:09:43Z</time>
      </trkpt>
      <trkpt lat="42.6327" lon="0.86121">
        <ele>2209.25</ele>
        <time>2011-03-11T08:09:58Z</time>
      </trkpt>
      <trkpt lat="42.63263" lon="0.86135">
        <ele>2212.13</ele>
        <time>2011-03-11T08:10:56Z</time>
      </trkpt>
      <trkpt lat="42.63263" lon="0.86136">
        <ele>2212.13</ele>
        <time>2011-03-11T08:10:57Z</time>
      </trkpt>
      <trkpt lat="42.6326" lon="0.86143">
        <ele>2212.13</ele>
        <time>2011-03-11T08:11:22Z</time>
      </trkpt>
      <trkpt lat="42.63257" lon="0.86162">
        <ele>2211.17</ele>
        <time>2011-03-11T08:11:36Z</time>
      </trkpt>
      <trkpt lat="42.63254" lon="0.86165">
        <ele>2213.09</ele>
        <time>2011-03-11T08:11:59Z</time>
      </trkpt>
      <trkpt lat="42.63257" lon="0.86162">
        <ele>2203.96</ele>
        <time>2011-03-11T08:13:43Z</time>
      </trkpt>
      <trkpt lat="42.63257" lon="0.86162">
        <ele>2218.38</ele>
        <time>2011-03-11T08:13:44Z</time>
      </trkpt>
      <trkpt lat="42.63257" lon="0.86162">
        <ele>2213.57</ele>
        <time>2011-03-11T08:13:45Z</time>
      </trkpt>
      <trkpt lat="42.63258" lon="0.86162">
        <ele>2212.61</ele>
        <time>2011-03-11T08:13:47Z</time>
      </trkpt>
      <trkpt lat="42.63254" lon="0.86168">
        <ele>2211.65</ele>
        <time>2011-03-11T08:14:28Z</time>
      </trkpt>
      <trkpt lat="42.63252" lon="0.86181">
        <ele>2212.61</ele>
        <time>2011-03-11T08:14:44Z</time>
      </trkpt>
      <trkpt lat="42.63247" lon="0.86205">
        <ele>2212.13</ele>
        <time>2011-03-11T08:15:01Z</time>
      </trkpt>
      <trkpt lat="42.6324" lon="0.86225">
        <ele>2212.13</ele>
        <time>2011-03-11T08:15:16Z</time>
      </trkpt>
      <trkpt lat="42.63229" lon="0.86253">
        <ele>2213.09</ele>
        <time>2011-03-11T08:15:36Z</time>
      </trkpt>
      <trkpt lat="42.63218" lon="0.86274">
        <ele>2213.57</ele>
        <time>2011-03-11T08:15:53Z</time>
      </trkpt>
      <trkpt lat="42.6321" lon="0.86292">
        <ele>2212.13</ele>
        <time>2011-03-11T08:16:08Z</time>
      </trkpt>
      <trkpt lat="42.63211" lon="0.86306">
        <ele>2213.09</ele>
        <time>2011-03-11T08:16:21Z</time>
      </trkpt>
      <trkpt lat="42.63207" lon="0.86305">
        <ele>2212.61</ele>
        <time>2011-03-11T08:16:25Z</time>
      </trkpt>
      <trkpt lat="42.63202" lon="0.86326">
        <ele>2213.57</ele>
        <time>2011-03-11T08:16:40Z</time>
      </trkpt>
      <trkpt lat="42.63195" lon="0.86347">
        <ele>2213.09</ele>
        <time>2011-03-11T08:16:56Z</time>
      </trkpt>
      <trkpt lat="42.63195" lon="0.86357">
        <ele>2213.57</ele>
        <time>2011-03-11T08:17:03Z</time>
      </trkpt>
      <trkpt lat="42.63185" lon="0.86369">
        <ele>2213.57</ele>
        <time>2011-03-11T08:17:17Z</time>
      </trkpt>
      <trkpt lat="42.63174" lon="0.86402">
        <ele>2214.05</ele>
        <time>2011-03-11T08:17:39Z</time>
      </trkpt>
      <trkpt lat="42.63168" lon="0.86424">
        <ele>2214.53</ele>
        <time>2011-03-11T08:17:54Z</time>
      </trkpt>
      <trkpt lat="42.63167" lon="0.86455">
        <ele>2214.05</ele>
        <time>2011-03-11T08:18:11Z</time>
      </trkpt>
      <trkpt lat="42.63166" lon="0.86487">
        <ele>2214.05</ele>
        <time>2011-03-11T08:18:29Z</time>
      </trkpt>
      <trkpt lat="42.63161" lon="0.86509">
        <ele>2212.61</ele>
        <time>2011-03-11T08:18:44Z</time>
      </trkpt>
      <trkpt lat="42.63153" lon="0.86535">
        <ele>2214.05</ele>
        <time>2011-03-11T08:19:03Z</time>
      </trkpt>
      <trkpt lat="42.63149" lon="0.86565">
        <ele>2213.09</ele>
        <time>2011-03-11T08:19:23Z</time>
      </trkpt>
      <trkpt lat="42.63139" lon="0.86578">
        <ele>2213.57</ele>
        <time>2011-03-11T08:19:37Z</time>
      </trkpt>
      <trkpt lat="42.63125" lon="0.86591">
        <ele>2214.05</ele>
        <time>2011-03-11T08:19:54Z</time>
      </trkpt>
      <trkpt lat="42.63118" lon="0.86599">
        <ele>2212.61</ele>
        <time>2011-03-11T08:20:04Z</time>
      </trkpt>
      <trkpt lat="42.63112" lon="0.86605">
        <ele>2214.05</ele>
        <time>2011-03-11T08:20:16Z</time>
      </trkpt>
      <trkpt lat="42.63103" lon="0.86606">
        <ele>2215.5</ele>
        <time>2011-03-11T08:20:26Z</time>
      </trkpt>
      <trkpt lat="42.63103" lon="0.8661">
        <ele>2216.46</ele>
        <time>2011-03-11T08:21:27Z</time>
      </trkpt>
      <trkpt lat="42.63094" lon="0.86622">
        <ele>2217.9</ele>
        <time>2011-03-11T08:21:38Z</time>
      </trkpt>
      <trkpt lat="42.63087" lon="0.86631">
        <ele>2220.3</ele>
        <time>2011-03-11T08:21:53Z</time>
      </trkpt>
      <trkpt lat="42.63074" lon="0.86645">
        <ele>2222.71</ele>
        <time>2011-03-11T08:22:14Z</time>
      </trkpt>
      <trkpt lat="42.63064" lon="0.86657">
        <ele>2223.19</ele>
        <time>2011-03-11T08:22:29Z</time>
      </trkpt>
      <trkpt lat="42.63056" lon="0.86663">
        <ele>2225.59</ele>
        <time>2011-03-11T08:22:45Z</time>
      </trkpt>
      <trkpt lat="42.63052" lon="0.86671">
        <ele>2226.55</ele>
        <time>2011-03-11T08:22:56Z</time>
      </trkpt>
      <trkpt lat="42.63039" lon="0.8669">
        <ele>2228.47</ele>
        <time>2011-03-11T08:23:19Z</time>
      </trkpt>
      <trkpt lat="42.63028" lon="0.86706">
        <ele>2231.84</ele>
        <time>2011-03-11T08:23:46Z</time>
      </trkpt>
      <trkpt lat="42.63023" lon="0.86716">
        <ele>2232.8</ele>
        <time>2011-03-11T08:23:57Z</time>
      </trkpt>
      <trkpt lat="42.63019" lon="0.86731">
        <ele>2234.72</ele>
        <time>2011-03-11T08:24:20Z</time>
      </trkpt>
      <trkpt lat="42.63013" lon="0.86749">
        <ele>2237.61</ele>
        <time>2011-03-11T08:24:42Z</time>
      </trkpt>
      <trkpt lat="42.63007" lon="0.86773">
        <ele>2240.97</ele>
        <time>2011-03-11T08:25:12Z</time>
      </trkpt>
      <trkpt lat="42.62997" lon="0.86797">
        <ele>2243.85</ele>
        <time>2011-03-11T08:25:48Z</time>
      </trkpt>
      <trkpt lat="42.62989" lon="0.86814">
        <ele>2245.78</ele>
        <time>2011-03-11T08:26:14Z</time>
      </trkpt>
      <trkpt lat="42.62985" lon="0.86829">
        <ele>2246.74</ele>
        <time>2011-03-11T08:26:33Z</time>
      </trkpt>
      <trkpt lat="42.6298" lon="0.8683">
        <ele>2249.62</ele>
        <time>2011-03-11T08:26:43Z</time>
      </trkpt>
      <trkpt lat="42.62974" lon="0.86843">
        <ele>2252.99</ele>
        <time>2011-03-11T08:27:08Z</time>
      </trkpt>
      <trkpt lat="42.62978" lon="0.86851">
        <ele>2253.95</ele>
        <time>2011-03-11T08:27:27Z</time>
      </trkpt>
      <trkpt lat="42.6298" lon="0.86868">
        <ele>2257.79</ele>
        <time>2011-03-11T08:27:56Z</time>
      </trkpt>
      <trkpt lat="42.62972" lon="0.86875">
        <ele>2260.2</ele>
        <time>2011-03-11T08:28:14Z</time>
      </trkpt>
      <trkpt lat="42.62962" lon="0.86873">
        <ele>2263.56</ele>
        <time>2011-03-11T08:28:32Z</time>
      </trkpt>
      <trkpt lat="42.62959" lon="0.86882">
        <ele>2264.52</ele>
        <time>2011-03-11T08:28:54Z</time>
      </trkpt>
      <trkpt lat="42.62961" lon="0.86896">
        <ele>2267.89</ele>
        <time>2011-03-11T08:29:17Z</time>
      </trkpt>
      <trkpt lat="42.62968" lon="0.86906">
        <ele>2269.81</ele>
        <time>2011-03-11T08:29:37Z</time>
      </trkpt>
      <trkpt lat="42.62981" lon="0.86913">
        <ele>2273.17</ele>
        <time>2011-03-11T08:29:55Z</time>
      </trkpt>
      <trkpt lat="42.62987" lon="0.86917">
        <ele>2274.62</ele>
        <time>2011-03-11T08:30:09Z</time>
      </trkpt>
      <trkpt lat="42.62991" lon="0.86921">
        <ele>2275.1</ele>
        <time>2011-03-11T08:30:19Z</time>
      </trkpt>
      <trkpt lat="42.62999" lon="0.86921">
        <ele>2278.46</ele>
        <time>2011-03-11T08:30:41Z</time>
      </trkpt>
      <trkpt lat="42.63005" lon="0.86918">
        <ele>2278.46</ele>
        <time>2011-03-11T08:30:50Z</time>
      </trkpt>
      <trkpt lat="42.63017" lon="0.86925">
        <ele>2281.35</ele>
        <time>2011-03-11T08:31:10Z</time>
      </trkpt>
      <trkpt lat="42.63029" lon="0.86926">
        <ele>2284.71</ele>
        <time>2011-03-11T08:31:34Z</time>
      </trkpt>
      <trkpt lat="42.6302" lon="0.86957">
        <ele>2287.59</ele>
        <time>2011-03-11T08:32:32Z</time>
      </trkpt>
      <trkpt lat="42.6301" lon="0.8697">
        <ele>2290.96</ele>
        <time>2011-03-11T08:33:06Z</time>
      </trkpt>
      <trkpt lat="42.63006" lon="0.86976">
        <ele>2290.96</ele>
        <time>2011-03-11T08:33:29Z</time>
      </trkpt>
      <trkpt lat="42.63004" lon="0.86976">
        <ele>2293.84</ele>
        <time>2011-03-11T08:33:54Z</time>
      </trkpt>
      <trkpt lat="42.62994" lon="0.86998">
        <ele>2297.21</ele>
        <time>2011-03-11T08:34:41Z</time>
      </trkpt>
      <trkpt lat="42.62986" lon="0.87013">
        <ele>2300.09</ele>
        <time>2011-03-11T08:35:07Z</time>
      </trkpt>
      <trkpt lat="42.62978" lon="0.87023">
        <ele>2303.46</ele>
        <time>2011-03-11T08:35:36Z</time>
      </trkpt>
      <trkpt lat="42.62974" lon="0.87018">
        <ele>2306.34</ele>
        <time>2011-03-11T08:36:12Z</time>
      </trkpt>
      <trkpt lat="42.62977" lon="0.87023">
        <ele>2309.22</ele>
        <time>2011-03-11T08:36:39Z</time>
      </trkpt>
      <trkpt lat="42.62975" lon="0.87034">
        <ele>2312.11</ele>
        <time>2011-03-11T08:37:02Z</time>
      </trkpt>
      <trkpt lat="42.62971" lon="0.87043">
        <ele>2313.07</ele>
        <time>2011-03-11T08:37:15Z</time>
      </trkpt>
      <trkpt lat="42.62962" lon="0.87053">
        <ele>2316.43</ele>
        <time>2011-03-11T08:37:34Z</time>
      </trkpt>
      <trkpt lat="42.62954" lon="0.87061">
        <ele>2318.36</ele>
        <time>2011-03-11T08:37:54Z</time>
      </trkpt>
      <trkpt lat="42.62952" lon="0.87073">
        <ele>2320.28</ele>
        <time>2011-03-11T08:38:10Z</time>
      </trkpt>
      <trkpt lat="42.62947" lon="0.87069">
        <ele>2321.72</ele>
        <time>2011-03-11T08:38:29Z</time>
      </trkpt>
      <trkpt lat="42.62944" lon="0.87063">
        <ele>2321.72</ele>
        <time>2011-03-11T08:40:19Z</time>
      </trkpt>
      <trkpt lat="42.62944" lon="0.87063">
        <ele>2320.76</ele>
        <time>2011-03-11T08:40:21Z</time>
      </trkpt>
      <trkpt lat="42.62945" lon="0.87062">
        <ele>2311.63</ele>
        <time>2011-03-11T08:40:23Z</time>
      </trkpt>
      <trkpt lat="42.62945" lon="0.87061">
        <ele>2322.68</ele>
        <time>2011-03-11T08:40:25Z</time>
      </trkpt>
      <trkpt lat="42.62943" lon="0.87061">
        <ele>2320.28</ele>
        <time>2011-03-11T08:40:28Z</time>
      </trkpt>
      <trkpt lat="42.62942" lon="0.87063">
        <ele>2320.76</ele>
        <time>2011-03-11T08:40:56Z</time>
      </trkpt>
      <trkpt lat="42.62942" lon="0.87064">
        <ele>2314.03</ele>
        <time>2011-03-11T08:41:03Z</time>
      </trkpt>
      <trkpt lat="42.62942" lon="0.87064">
        <ele>2322.68</ele>
        <time>2011-03-11T08:41:04Z</time>
      </trkpt>
      <trkpt lat="42.62944" lon="0.87068">
        <ele>2323.16</ele>
        <time>2011-03-11T08:43:14Z</time>
      </trkpt>
      <trkpt lat="42.62944" lon="0.87067">
        <ele>2321.24</ele>
        <time>2011-03-11T08:43:31Z</time>
      </trkpt>
      <trkpt lat="42.62943" lon="0.87068">
        <ele>2322.2</ele>
        <time>2011-03-11T08:43:53Z</time>
      </trkpt>
      <trkpt lat="42.62943" lon="0.87067">
        <ele>2321.72</ele>
        <time>2011-03-11T08:44:29Z</time>
      </trkpt>
      <trkpt lat="42.62943" lon="0.87067">
        <ele>2323.16</ele>
        <time>2011-03-11T08:44:46Z</time>
      </trkpt>
      <trkpt lat="42.62937" lon="0.87068">
        <ele>2323.16</ele>
        <time>2011-03-11T08:45:11Z</time>
      </trkpt>
      <trkpt lat="42.62936" lon="0.87068">
        <ele>2323.64</ele>
        <time>2011-03-11T08:45:16Z</time>
      </trkpt>
      <trkpt lat="42.62929" lon="0.87076">
        <ele>2324.12</ele>
        <time>2011-03-11T08:45:29Z</time>
      </trkpt>
      <trkpt lat="42.62925" lon="0.87078">
        <ele>2326.53</ele>
        <time>2011-03-11T08:45:37Z</time>
      </trkpt>
      <trkpt lat="42.62923" lon="0.87079">
        <ele>2326.05</ele>
        <time>2011-03-11T08:45:40Z</time>
      </trkpt>
      <trkpt lat="42.62915" lon="0.87082">
        <ele>2327.01</ele>
        <time>2011-03-11T08:45:53Z</time>
      </trkpt>
      <trkpt lat="42.62904" lon="0.87086">
        <ele>2326.53</ele>
        <time>2011-03-11T08:46:04Z</time>
      </trkpt>
      <trkpt lat="42.62893" lon="0.8709">
        <ele>2326.53</ele>
        <time>2011-03-11T08:46:17Z</time>
      </trkpt>
      <trkpt lat="42.62891" lon="0.87089">
        <ele>2327.01</ele>
        <time>2011-03-11T08:46:19Z</time>
      </trkpt>
      <trkpt lat="42.62883" lon="0.8709">
        <ele>2327.97</ele>
        <time>2011-03-11T08:46:28Z</time>
      </trkpt>
      <trkpt lat="42.62878" lon="0.87091">
        <ele>2327.01</ele>
        <time>2011-03-11T08:46:34Z</time>
      </trkpt>
      <trkpt lat="42.62869" lon="0.87092">
        <ele>2328.45</ele>
        <time>2011-03-11T08:46:44Z</time>
      </trkpt>
      <trkpt lat="42.62859" lon="0.87096">
        <ele>2328.93</ele>
        <time>2011-03-11T08:46:56Z</time>
      </trkpt>
      <trkpt lat="42.62854" lon="0.871">
        <ele>2329.89</ele>
        <time>2011-03-11T08:47:07Z</time>
      </trkpt>
      <trkpt lat="42.62852" lon="0.87104">
        <ele>2330.85</ele>
        <time>2011-03-11T08:47:30Z</time>
      </trkpt>
      <trkpt lat="42.62845" lon="0.8711">
        <ele>2333.26</ele>
        <time>2011-03-11T08:47:45Z</time>
      </trkpt>
      <trkpt lat="42.6284" lon="0.87116">
        <ele>2335.18</ele>
        <time>2011-03-11T08:47:57Z</time>
      </trkpt>
      <trkpt lat="42.62838" lon="0.87119">
        <ele>2336.62</ele>
        <time>2011-03-11T08:48:02Z</time>
      </trkpt>
      <trkpt lat="42.62833" lon="0.87126">
        <ele>2338.06</ele>
        <time>2011-03-11T08:48:16Z</time>
      </trkpt>
      <trkpt lat="42.62832" lon="0.87129">
        <ele>2339.02</ele>
        <time>2011-03-11T08:48:21Z</time>
      </trkpt>
      <trkpt lat="42.62829" lon="0.87139">
        <ele>2340.47</ele>
        <time>2011-03-11T08:48:36Z</time>
      </trkpt>
      <trkpt lat="42.62826" lon="0.87149">
        <ele>2342.39</ele>
        <time>2011-03-11T08:48:48Z</time>
      </trkpt>
      <trkpt lat="42.62823" lon="0.87159">
        <ele>2342.87</ele>
        <time>2011-03-11T08:49:01Z</time>
      </trkpt>
      <trkpt lat="42.62822" lon="0.87166">
        <ele>2344.79</ele>
        <time>2011-03-11T08:49:13Z</time>
      </trkpt>
      <trkpt lat="42.62819" lon="0.87176">
        <ele>2345.75</ele>
        <time>2011-03-11T08:49:28Z</time>
      </trkpt>
      <trkpt lat="42.62818" lon="0.87185">
        <ele>2348.16</ele>
        <time>2011-03-11T08:49:39Z</time>
      </trkpt>
      <trkpt lat="42.62817" lon="0.87188">
        <ele>2348.16</ele>
        <time>2011-03-11T08:49:50Z</time>
      </trkpt>
      <trkpt lat="42.62814" lon="0.8719">
        <ele>2349.6</ele>
        <time>2011-03-11T08:50:00Z</time>
      </trkpt>
      <trkpt lat="42.62811" lon="0.87192">
        <ele>2350.08</ele>
        <time>2011-03-11T08:50:35Z</time>
      </trkpt>
      <trkpt lat="42.628" lon="0.87192">
        <ele>2352</ele>
        <time>2011-03-11T08:50:47Z</time>
      </trkpt>
      <trkpt lat="42.62794" lon="0.87189">
        <ele>2354.41</ele>
        <time>2011-03-11T08:50:58Z</time>
      </trkpt>
      <trkpt lat="42.62793" lon="0.87181">
        <ele>2355.37</ele>
        <time>2011-03-11T08:51:09Z</time>
      </trkpt>
      <trkpt lat="42.62792" lon="0.87175">
        <ele>2357.29</ele>
        <time>2011-03-11T08:51:20Z</time>
      </trkpt>
      <trkpt lat="42.62792" lon="0.87174">
        <ele>2357.77</ele>
        <time>2011-03-11T08:51:21Z</time>
      </trkpt>
      <trkpt lat="42.62791" lon="0.87172">
        <ele>2359.69</ele>
        <time>2011-03-11T08:51:34Z</time>
      </trkpt>
      <trkpt lat="42.62787" lon="0.8718">
        <ele>2360.17</ele>
        <time>2011-03-11T08:51:47Z</time>
      </trkpt>
      <trkpt lat="42.62786" lon="0.87187">
        <ele>2361.62</ele>
        <time>2011-03-11T08:52:07Z</time>
      </trkpt>
      <trkpt lat="42.62785" lon="0.87196">
        <ele>2363.54</ele>
        <time>2011-03-11T08:52:21Z</time>
      </trkpt>
      <trkpt lat="42.62784" lon="0.87201">
        <ele>2364.5</ele>
        <time>2011-03-11T08:52:25Z</time>
      </trkpt>
      <trkpt lat="42.62783" lon="0.87203">
        <ele>2365.46</ele>
        <time>2011-03-11T08:52:28Z</time>
      </trkpt>
      <trkpt lat="42.62783" lon="0.87216">
        <ele>2366.9</ele>
        <time>2011-03-11T08:52:40Z</time>
      </trkpt>
      <trkpt lat="42.62781" lon="0.87222">
        <ele>2368.83</ele>
        <time>2011-03-11T08:52:52Z</time>
      </trkpt>
      <trkpt lat="42.62782" lon="0.87232">
        <ele>2369.79</ele>
        <time>2011-03-11T08:53:04Z</time>
      </trkpt>
      <trkpt lat="42.62787" lon="0.87239">
        <ele>2371.71</ele>
        <time>2011-03-11T08:53:18Z</time>
      </trkpt>
      <trkpt lat="42.62786" lon="0.8725">
        <ele>2373.15</ele>
        <time>2011-03-11T08:53:33Z</time>
      </trkpt>
      <trkpt lat="42.62789" lon="0.8726">
        <ele>2375.07</ele>
        <time>2011-03-11T08:53:47Z</time>
      </trkpt>
      <trkpt lat="42.62789" lon="0.87262">
        <ele>2376.04</ele>
        <time>2011-03-11T08:54:01Z</time>
      </trkpt>
      <trkpt lat="42.62787" lon="0.87264">
        <ele>2377</ele>
        <time>2011-03-11T08:54:13Z</time>
      </trkpt>
      <trkpt lat="42.62785" lon="0.87263">
        <ele>2377.48</ele>
        <time>2011-03-11T08:54:25Z</time>
      </trkpt>
      <trkpt lat="42.62777" lon="0.8726">
        <ele>2379.4</ele>
        <time>2011-03-11T08:54:36Z</time>
      </trkpt>
      <trkpt lat="42.6277" lon="0.8726">
        <ele>2381.32</ele>
        <time>2011-03-11T08:54:49Z</time>
      </trkpt>
      <trkpt lat="42.62767" lon="0.87266">
        <ele>2382.76</ele>
        <time>2011-03-11T08:55:11Z</time>
      </trkpt>
      <trkpt lat="42.62767" lon="0.87266">
        <ele>2383.25</ele>
        <time>2011-03-11T08:55:12Z</time>
      </trkpt>
      <trkpt lat="42.62768" lon="0.87279">
        <ele>2384.69</ele>
        <time>2011-03-11T08:55:29Z</time>
      </trkpt>
      <trkpt lat="42.62771" lon="0.87288">
        <ele>2386.61</ele>
        <time>2011-03-11T08:55:50Z</time>
      </trkpt>
      <trkpt lat="42.62772" lon="0.87292">
        <ele>2387.09</ele>
        <time>2011-03-11T08:55:55Z</time>
      </trkpt>
      <trkpt lat="42.62772" lon="0.87298">
        <ele>2388.05</ele>
        <time>2011-03-11T08:55:59Z</time>
      </trkpt>
      <trkpt lat="42.6277" lon="0.87304">
        <ele>2389.97</ele>
        <time>2011-03-11T08:56:11Z</time>
      </trkpt>
      <trkpt lat="42.62767" lon="0.87305">
        <ele>2390.46</ele>
        <time>2011-03-11T08:56:13Z</time>
      </trkpt>
      <trkpt lat="42.62761" lon="0.87305">
        <ele>2392.86</ele>
        <time>2011-03-11T08:56:25Z</time>
      </trkpt>
      <trkpt lat="42.62761" lon="0.87311">
        <ele>2395.26</ele>
        <time>2011-03-11T08:56:35Z</time>
      </trkpt>
      <trkpt lat="42.62763" lon="0.87316">
        <ele>2396.22</ele>
        <time>2011-03-11T08:56:48Z</time>
      </trkpt>
      <trkpt lat="42.62763" lon="0.87317">
        <ele>2396.7</ele>
        <time>2011-03-11T08:56:50Z</time>
      </trkpt>
      <trkpt lat="42.62764" lon="0.87321">
        <ele>2398.15</ele>
        <time>2011-03-11T08:57:01Z</time>
      </trkpt>
      <trkpt lat="42.62764" lon="0.87324">
        <ele>2399.11</ele>
        <time>2011-03-11T08:57:13Z</time>
      </trkpt>
      <trkpt lat="42.62761" lon="0.87323">
        <ele>2400.07</ele>
        <time>2011-03-11T08:57:21Z</time>
      </trkpt>
      <trkpt lat="42.62754" lon="0.87323">
        <ele>2401.51</ele>
        <time>2011-03-11T08:57:33Z</time>
      </trkpt>
      <trkpt lat="42.62749" lon="0.8732">
        <ele>2402.95</ele>
        <time>2011-03-11T08:57:43Z</time>
      </trkpt>
      <trkpt lat="42.62747" lon="0.87323">
        <ele>2403.91</ele>
        <time>2011-03-11T08:57:54Z</time>
      </trkpt>
      <trkpt lat="42.62747" lon="0.87326">
        <ele>2403.91</ele>
        <time>2011-03-11T08:57:56Z</time>
      </trkpt>
      <trkpt lat="42.62747" lon="0.8733">
        <ele>2404.88</ele>
        <time>2011-03-11T08:58:17Z</time>
      </trkpt>
      <trkpt lat="42.62747" lon="0.87336">
        <ele>2406.32</ele>
        <time>2011-03-11T08:58:37Z</time>
      </trkpt>
      <trkpt lat="42.62749" lon="0.87347">
        <ele>2407.76</ele>
        <time>2011-03-11T08:58:52Z</time>
      </trkpt>
      <trkpt lat="42.6275" lon="0.8735">
        <ele>2408.72</ele>
        <time>2011-03-11T08:59:03Z</time>
      </trkpt>
      <trkpt lat="42.62749" lon="0.8735">
        <ele>2409.2</ele>
        <time>2011-03-11T08:59:05Z</time>
      </trkpt>
      <trkpt lat="42.62742" lon="0.87351">
        <ele>2411.12</ele>
        <time>2011-03-11T08:59:18Z</time>
      </trkpt>
      <trkpt lat="42.62731" lon="0.87356">
        <ele>2412.09</ele>
        <time>2011-03-11T08:59:30Z</time>
      </trkpt>
      <trkpt lat="42.62725" lon="0.87358">
        <ele>2414.01</ele>
        <time>2011-03-11T08:59:41Z</time>
      </trkpt>
      <trkpt lat="42.62719" lon="0.87356">
        <ele>2416.41</ele>
        <time>2011-03-11T08:59:55Z</time>
      </trkpt>
      <trkpt lat="42.62716" lon="0.87361">
        <ele>2417.37</ele>
        <time>2011-03-11T09:00:09Z</time>
      </trkpt>
      <trkpt lat="42.62714" lon="0.87366">
        <ele>2419.3</ele>
        <time>2011-03-11T09:00:21Z</time>
      </trkpt>
      <trkpt lat="42.62711" lon="0.87373">
        <ele>2421.22</ele>
        <time>2011-03-11T09:00:31Z</time>
      </trkpt>
      <trkpt lat="42.6271" lon="0.87382">
        <ele>2422.66</ele>
        <time>2011-03-11T09:00:43Z</time>
      </trkpt>
      <trkpt lat="42.62709" lon="0.87391">
        <ele>2424.1</ele>
        <time>2011-03-11T09:00:55Z</time>
      </trkpt>
      <trkpt lat="42.62708" lon="0.87397">
        <ele>2426.02</ele>
        <time>2011-03-11T09:01:08Z</time>
      </trkpt>
      <trkpt lat="42.62702" lon="0.87393">
        <ele>2428.43</ele>
        <time>2011-03-11T09:01:19Z</time>
      </trkpt>
      <trkpt lat="42.627" lon="0.87394">
        <ele>2428.91</ele>
        <time>2011-03-11T09:01:28Z</time>
      </trkpt>
      <trkpt lat="42.62697" lon="0.87399">
        <ele>2429.39</ele>
        <time>2011-03-11T09:01:34Z</time>
      </trkpt>
      <trkpt lat="42.62694" lon="0.87403">
        <ele>2431.31</ele>
        <time>2011-03-11T09:01:47Z</time>
      </trkpt>
      <trkpt lat="42.62692" lon="0.87404">
        <ele>2433.23</ele>
        <time>2011-03-11T09:01:59Z</time>
      </trkpt>
      <trkpt lat="42.62688" lon="0.87408">
        <ele>2434.68</ele>
        <time>2011-03-11T09:02:10Z</time>
      </trkpt>
      <trkpt lat="42.62687" lon="0.87411">
        <ele>2435.64</ele>
        <time>2011-03-11T09:02:19Z</time>
      </trkpt>
      <trkpt lat="42.62685" lon="0.8742">
        <ele>2437.08</ele>
        <time>2011-03-11T09:02:31Z</time>
      </trkpt>
      <trkpt lat="42.62682" lon="0.87421">
        <ele>2438.52</ele>
        <time>2011-03-11T09:02:43Z</time>
      </trkpt>
      <trkpt lat="42.62674" lon="0.8742">
        <ele>2440.44</ele>
        <time>2011-03-11T09:03:05Z</time>
      </trkpt>
      <trkpt lat="42.62673" lon="0.87422">
        <ele>2440.44</ele>
        <time>2011-03-11T09:03:08Z</time>
      </trkpt>
      <trkpt lat="42.62673" lon="0.87427">
        <ele>2440.92</ele>
        <time>2011-03-11T09:03:20Z</time>
      </trkpt>
      <trkpt lat="42.62673" lon="0.87427">
        <ele>2441.41</ele>
        <time>2011-03-11T09:03:29Z</time>
      </trkpt>
      <trkpt lat="42.62671" lon="0.87435">
        <ele>2442.37</ele>
        <time>2011-03-11T09:03:37Z</time>
      </trkpt>
      <trkpt lat="42.62669" lon="0.87444">
        <ele>2442.85</ele>
        <time>2011-03-11T09:03:49Z</time>
      </trkpt>
      <trkpt lat="42.62666" lon="0.87448">
        <ele>2443.81</ele>
        <time>2011-03-11T09:04:00Z</time>
      </trkpt>
      <trkpt lat="42.62664" lon="0.87452">
        <ele>2443.81</ele>
        <time>2011-03-11T09:04:10Z</time>
      </trkpt>
      <trkpt lat="42.62662" lon="0.8746">
        <ele>2445.25</ele>
        <time>2011-03-11T09:05:14Z</time>
      </trkpt>
      <trkpt lat="42.62658" lon="0.87465">
        <ele>2447.17</ele>
        <time>2011-03-11T09:05:26Z</time>
      </trkpt>
      <trkpt lat="42.62655" lon="0.87473">
        <ele>2449.1</ele>
        <time>2011-03-11T09:05:38Z</time>
      </trkpt>
      <trkpt lat="42.62651" lon="0.87483">
        <ele>2451.02</ele>
        <time>2011-03-11T09:05:50Z</time>
      </trkpt>
      <trkpt lat="42.6265" lon="0.8749">
        <ele>2452.94</ele>
        <time>2011-03-11T09:06:01Z</time>
      </trkpt>
      <trkpt lat="42.62647" lon="0.87496">
        <ele>2455.82</ele>
        <time>2011-03-11T09:06:13Z</time>
      </trkpt>
      <trkpt lat="42.62646" lon="0.87503">
        <ele>2458.71</ele>
        <time>2011-03-11T09:06:23Z</time>
      </trkpt>
      <trkpt lat="42.62647" lon="0.87508">
        <ele>2460.15</ele>
        <time>2011-03-11T09:06:35Z</time>
      </trkpt>
      <trkpt lat="42.6265" lon="0.87509">
        <ele>2460.63</ele>
        <time>2011-03-11T09:06:46Z</time>
      </trkpt>
      <trkpt lat="42.62652" lon="0.87508">
        <ele>2461.59</ele>
        <time>2011-03-11T09:07:01Z</time>
      </trkpt>
      <trkpt lat="42.62653" lon="0.87508">
        <ele>2462.07</ele>
        <time>2011-03-11T09:07:16Z</time>
      </trkpt>
      <trkpt lat="42.62652" lon="0.87511">
        <ele>2463.04</ele>
        <time>2011-03-11T09:07:26Z</time>
      </trkpt>
      <trkpt lat="42.62648" lon="0.87515">
        <ele>2464</ele>
        <time>2011-03-11T09:07:37Z</time>
      </trkpt>
      <trkpt lat="42.62646" lon="0.87517">
        <ele>2464</ele>
        <time>2011-03-11T09:07:52Z</time>
      </trkpt>
      <trkpt lat="42.62646" lon="0.87517">
        <ele>2464</ele>
        <time>2011-03-11T09:08:11Z</time>
      </trkpt>
      <trkpt lat="42.62645" lon="0.8752">
        <ele>2466.4</ele>
        <time>2011-03-11T09:08:22Z</time>
      </trkpt>
      <trkpt lat="42.62644" lon="0.87521">
        <ele>2464.96</ele>
        <time>2011-03-11T09:08:38Z</time>
      </trkpt>
      <trkpt lat="42.62641" lon="0.87526">
        <ele>2463.52</ele>
        <time>2011-03-11T09:08:55Z</time>
      </trkpt>
      <trkpt lat="42.62641" lon="0.87527">
        <ele>2463.52</ele>
        <time>2011-03-11T09:08:58Z</time>
      </trkpt>
      <trkpt lat="42.62637" lon="0.87535">
        <ele>2463.52</ele>
        <time>2011-03-11T09:09:09Z</time>
      </trkpt>
      <trkpt lat="42.62628" lon="0.87539">
        <ele>2464.96</ele>
        <time>2011-03-11T09:09:22Z</time>
      </trkpt>
      <trkpt lat="42.62626" lon="0.8754">
        <ele>2464.96</ele>
        <time>2011-03-11T09:09:35Z</time>
      </trkpt>
      <trkpt lat="42.62626" lon="0.8754">
        <ele>2464.96</ele>
        <time>2011-03-11T09:09:43Z</time>
      </trkpt>
      <trkpt lat="42.62625" lon="0.8754">
        <ele>2466.4</ele>
        <time>2011-03-11T09:09:45Z</time>
      </trkpt>
      <trkpt lat="42.6262" lon="0.87543">
        <ele>2466.88</ele>
        <time>2011-03-11T09:09:53Z</time>
      </trkpt>
      <trkpt lat="42.62616" lon="0.87549">
        <ele>2465.92</ele>
        <time>2011-03-11T09:09:59Z</time>
      </trkpt>
      <trkpt lat="42.62607" lon="0.8756">
        <ele>2464.96</ele>
        <time>2011-03-11T09:10:12Z</time>
      </trkpt>
      <trkpt lat="42.62604" lon="0.87561">
        <ele>2465.44</ele>
        <time>2011-03-11T09:10:22Z</time>
      </trkpt>
      <trkpt lat="42.62602" lon="0.87562">
        <ele>2465.44</ele>
        <time>2011-03-11T09:10:39Z</time>
      </trkpt>
      <trkpt lat="42.62606" lon="0.8756">
        <ele>2464.96</ele>
        <time>2011-03-11T09:11:00Z</time>
      </trkpt>
      <trkpt lat="42.62606" lon="0.87561">
        <ele>2465.44</ele>
        <time>2011-03-11T09:11:12Z</time>
      </trkpt>
      <trkpt lat="42.62605" lon="0.8756">
        <ele>2461.11</ele>
        <time>2011-03-11T09:11:21Z</time>
      </trkpt>
      <trkpt lat="42.62605" lon="0.8756">
        <ele>2461.59</ele>
        <time>2011-03-11T09:11:22Z</time>
      </trkpt>
      <trkpt lat="42.62605" lon="0.8756">
        <ele>2463.52</ele>
        <time>2011-03-11T09:11:24Z</time>
      </trkpt>
      <trkpt lat="42.62606" lon="0.8756">
        <ele>2464.48</ele>
        <time>2011-03-11T09:12:23Z</time>
      </trkpt>
      <trkpt lat="42.62606" lon="0.8756">
        <ele>2464.48</ele>
        <time>2011-03-11T09:12:51Z</time>
      </trkpt>
      <trkpt lat="42.62606" lon="0.8756">
        <ele>2464</ele>
        <time>2011-03-11T09:13:39Z</time>
      </trkpt>
      <trkpt lat="42.62606" lon="0.8756">
        <ele>2464.96</ele>
        <time>2011-03-11T09:15:04Z</time>
      </trkpt>
      <trkpt lat="42.62606" lon="0.8756">
        <ele>2463.52</ele>
        <time>2011-03-11T09:15:42Z</time>
      </trkpt>
      <trkpt lat="42.62606" lon="0.8756">
        <ele>2464.48</ele>
        <time>2011-03-11T09:16:12Z</time>
      </trkpt>
      <trkpt lat="42.62606" lon="0.8756">
        <ele>2464.48</ele>
        <time>2011-03-11T09:16:56Z</time>
      </trkpt>
      <trkpt lat="42.62606" lon="0.87561">
        <ele>2464.48</ele>
        <time>2011-03-11T09:17:18Z</time>
      </trkpt>
      <trkpt lat="42.62606" lon="0.87561">
        <ele>2465.44</ele>
        <time>2011-03-11T09:17:50Z</time>
      </trkpt>
      <trkpt lat="42.62606" lon="0.87561">
        <ele>2464.48</ele>
        <time>2011-03-11T09:18:15Z</time>
      </trkpt>
      <trkpt lat="42.62606" lon="0.87561">
        <ele>2464.48</ele>
        <time>2011-03-11T09:18:50Z</time>
      </trkpt>
      <trkpt lat="42.62606" lon="0.87561">
        <ele>2464.96</ele>
        <time>2011-03-11T09:19:14Z</time>
      </trkpt>
      <trkpt lat="42.62606" lon="0.87561">
        <ele>2465.44</ele>
        <time>2011-03-11T09:19:49Z</time>
      </trkpt>
      <trkpt lat="42.62606" lon="0.8756">
        <ele>2468.8</ele>
        <time>2011-03-11T09:20:05Z</time>
      </trkpt>
      <trkpt lat="42.62606" lon="0.8756">
        <ele>2465.44</ele>
        <time>2011-03-11T09:20:10Z</time>
      </trkpt>
      <trkpt lat="42.62607" lon="0.87562">
        <ele>2469.28</ele>
        <time>2011-03-11T09:20:20Z</time>
      </trkpt>
      <trkpt lat="42.62608" lon="0.87562">
        <ele>2468.8</ele>
        <time>2011-03-11T09:20:21Z</time>
      </trkpt>
      <trkpt lat="42.62608" lon="0.87562">
        <ele>2467.84</ele>
        <time>2011-03-11T09:20:23Z</time>
      </trkpt>
      <trkpt lat="42.62608" lon="0.87562">
        <ele>2471.21</ele>
        <time>2011-03-11T09:20:39Z</time>
      </trkpt>
      <trkpt lat="42.62608" lon="0.87562">
        <ele>2459.67</ele>
        <time>2011-03-11T09:20:40Z</time>
      </trkpt>
      <trkpt lat="42.62608" lon="0.87562">
        <ele>2467.36</ele>
        <time>2011-03-11T09:20:41Z</time>
      </trkpt>
      <trkpt lat="42.62608" lon="0.87562">
        <ele>2462.07</ele>
        <time>2011-03-11T09:20:45Z</time>
      </trkpt>
      <trkpt lat="42.62608" lon="0.87562">
        <ele>2465.92</ele>
        <time>2011-03-11T09:20:46Z</time>
      </trkpt>
      <trkpt lat="42.62608" lon="0.87562">
        <ele>2469.76</ele>
        <time>2011-03-11T09:20:47Z</time>
      </trkpt>
      <trkpt lat="42.62608" lon="0.87562">
        <ele>2468.32</ele>
        <time>2011-03-11T09:20:48Z</time>
      </trkpt>
      <trkpt lat="42.62608" lon="0.87562">
        <ele>2459.19</ele>
        <time>2011-03-11T09:20:53Z</time>
      </trkpt>
      <trkpt lat="42.62608" lon="0.87562">
        <ele>2468.8</ele>
        <time>2011-03-11T09:20:54Z</time>
      </trkpt>
      <trkpt lat="42.62608" lon="0.87562">
        <ele>2468.32</ele>
        <time>2011-03-11T09:20:55Z</time>
      </trkpt>
      <trkpt lat="42.62607" lon="0.87562">
        <ele>2464.96</ele>
        <time>2011-03-11T09:21:19Z</time>
      </trkpt>
      <trkpt lat="42.62607" lon="0.87563">
        <ele>2465.92</ele>
        <time>2011-03-11T09:21:28Z</time>
      </trkpt>
      <trkpt lat="42.62607" lon="0.87563">
        <ele>2466.4</ele>
        <time>2011-03-11T09:21:56Z</time>
      </trkpt>
      <trkpt lat="42.62608" lon="0.87563">
        <ele>2467.84</ele>
        <time>2011-03-11T09:22:00Z</time>
      </trkpt>
      <trkpt lat="42.62609" lon="0.87562">
        <ele>2467.36</ele>
        <time>2011-03-11T09:22:09Z</time>
      </trkpt>
      <trkpt lat="42.62609" lon="0.87563">
        <ele>2466.4</ele>
        <time>2011-03-11T09:22:29Z</time>
      </trkpt>
      <trkpt lat="42.62609" lon="0.87563">
        <ele>2466.4</ele>
        <time>2011-03-11T09:22:30Z</time>
      </trkpt>
      <trkpt lat="42.62608" lon="0.87577">
        <ele>2463.52</ele>
        <time>2011-03-11T09:22:41Z</time>
      </trkpt>
      <trkpt lat="42.62607" lon="0.87577">
        <ele>2464</ele>
        <time>2011-03-11T09:22:42Z</time>
      </trkpt>
      <trkpt lat="42.62602" lon="0.87575">
        <ele>2463.04</ele>
        <time>2011-03-11T09:22:47Z</time>
      </trkpt>
      <trkpt lat="42.62595" lon="0.87569">
        <ele>2461.59</ele>
        <time>2011-03-11T09:22:58Z</time>
      </trkpt>
      <trkpt lat="42.62591" lon="0.87569">
        <ele>2458.23</ele>
        <time>2011-03-11T09:23:06Z</time>
      </trkpt>
      <trkpt lat="42.62591" lon="0.87569">
        <ele>2459.67</ele>
        <time>2011-03-11T09:23:19Z</time>
      </trkpt>
      <trkpt lat="42.62592" lon="0.87569">
        <ele>2460.63</ele>
        <time>2011-03-11T09:23:29Z</time>
      </trkpt>
      <trkpt lat="42.62592" lon="0.87569">
        <ele>2457.75</ele>
        <time>2011-03-11T09:23:36Z</time>
      </trkpt>
      <trkpt lat="42.62592" lon="0.87569">
        <ele>2459.19</ele>
        <time>2011-03-11T09:23:39Z</time>
      </trkpt>
      <trkpt lat="42.62592" lon="0.87571">
        <ele>2460.63</ele>
        <time>2011-03-11T09:23:46Z</time>
      </trkpt>
      <trkpt lat="42.62591" lon="0.87571">
        <ele>2460.15</ele>
        <time>2011-03-11T09:24:03Z</time>
      </trkpt>
      <trkpt lat="42.62592" lon="0.87571">
        <ele>2460.63</ele>
        <time>2011-03-11T09:24:19Z</time>
      </trkpt>
      <trkpt lat="42.62595" lon="0.8759">
        <ele>2457.27</ele>
        <time>2011-03-11T09:24:24Z</time>
      </trkpt>
      <trkpt lat="42.62596" lon="0.87606">
        <ele>2454.38</ele>
        <time>2011-03-11T09:24:27Z</time>
      </trkpt>
      <trkpt lat="42.62595" lon="0.87613">
        <ele>2452.94</ele>
        <time>2011-03-11T09:24:30Z</time>
      </trkpt>
      <trkpt lat="42.62597" lon="0.87627">
        <ele>2453.42</ele>
        <time>2011-03-11T09:24:41Z</time>
      </trkpt>
      <trkpt lat="42.62598" lon="0.87637">
        <ele>2452.94</ele>
        <time>2011-03-11T09:24:55Z</time>
      </trkpt>
      <trkpt lat="42.62602" lon="0.87651">
        <ele>2452.94</ele>
        <time>2011-03-11T09:25:04Z</time>
      </trkpt>
      <trkpt lat="42.62603" lon="0.87655">
        <ele>2452.46</ele>
        <time>2011-03-11T09:25:07Z</time>
      </trkpt>
      <trkpt lat="42.62605" lon="0.87661">
        <ele>2451.5</ele>
        <time>2011-03-11T09:25:20Z</time>
      </trkpt>
      <trkpt lat="42.62605" lon="0.87661">
        <ele>2451.5</ele>
        <time>2011-03-11T09:25:21Z</time>
      </trkpt>
      <trkpt lat="42.62605" lon="0.87662">
        <ele>2454.38</ele>
        <time>2011-03-11T09:25:37Z</time>
      </trkpt>
      <trkpt lat="42.62605" lon="0.87662">
        <ele>2450.54</ele>
        <time>2011-03-11T09:25:39Z</time>
      </trkpt>
      <trkpt lat="42.62605" lon="0.87662">
        <ele>2451.5</ele>
        <time>2011-03-11T09:25:40Z</time>
      </trkpt>
      <trkpt lat="42.62605" lon="0.87662">
        <ele>2447.65</ele>
        <time>2011-03-11T09:25:41Z</time>
      </trkpt>
      <trkpt lat="42.62605" lon="0.87662">
        <ele>2454.86</ele>
        <time>2011-03-11T09:25:43Z</time>
      </trkpt>
      <trkpt lat="42.62605" lon="0.87662">
        <ele>2451.98</ele>
        <time>2011-03-11T09:25:44Z</time>
      </trkpt>
      <trkpt lat="42.62606" lon="0.87661">
        <ele>2448.62</ele>
        <time>2011-03-11T09:26:13Z</time>
      </trkpt>
      <trkpt lat="42.62606" lon="0.87661">
        <ele>2453.42</ele>
        <time>2011-03-11T09:26:16Z</time>
      </trkpt>
      <trkpt lat="42.62605" lon="0.8766">
        <ele>2452.94</ele>
        <time>2011-03-11T09:26:48Z</time>
      </trkpt>
      <trkpt lat="42.62605" lon="0.8766">
        <ele>2452.94</ele>
        <time>2011-03-11T09:27:18Z</time>
      </trkpt>
      <trkpt lat="42.62607" lon="0.87672">
        <ele>2452.94</ele>
        <time>2011-03-11T09:27:25Z</time>
      </trkpt>
      <trkpt lat="42.62606" lon="0.87693">
        <ele>2451.98</ele>
        <time>2011-03-11T09:27:38Z</time>
      </trkpt>
      <trkpt lat="42.62604" lon="0.87704">
        <ele>2451.98</ele>
        <time>2011-03-11T09:27:49Z</time>
      </trkpt>
      <trkpt lat="42.62602" lon="0.87711">
        <ele>2451.98</ele>
        <time>2011-03-11T09:28:04Z</time>
      </trkpt>
      <trkpt lat="42.62601" lon="0.87726">
        <ele>2451.02</ele>
        <time>2011-03-11T09:28:16Z</time>
      </trkpt>
      <trkpt lat="42.62601" lon="0.87726">
        <ele>2451.02</ele>
        <time>2011-03-11T09:28:37Z</time>
      </trkpt>
      <trkpt lat="42.626" lon="0.8773">
        <ele>2451.98</ele>
        <time>2011-03-11T09:28:41Z</time>
      </trkpt>
      <trkpt lat="42.62601" lon="0.87746">
        <ele>2451.02</ele>
        <time>2011-03-11T09:28:51Z</time>
      </trkpt>
      <trkpt lat="42.62601" lon="0.87751">
        <ele>2450.54</ele>
        <time>2011-03-11T09:28:54Z</time>
      </trkpt>
      <trkpt lat="42.62594" lon="0.87754">
        <ele>2450.54</ele>
        <time>2011-03-11T09:29:00Z</time>
      </trkpt>
      <trkpt lat="42.6258" lon="0.87764">
        <ele>2450.06</ele>
        <time>2011-03-11T09:29:12Z</time>
      </trkpt>
      <trkpt lat="42.6256" lon="0.87773">
        <ele>2448.13</ele>
        <time>2011-03-11T09:29:25Z</time>
      </trkpt>
      <trkpt lat="42.62553" lon="0.87777">
        <ele>2447.17</ele>
        <time>2011-03-11T09:29:30Z</time>
      </trkpt>
      <trkpt lat="42.62545" lon="0.87783">
        <ele>2447.65</ele>
        <time>2011-03-11T09:29:39Z</time>
      </trkpt>
      <trkpt lat="42.62542" lon="0.87784">
        <ele>2447.17</ele>
        <time>2011-03-11T09:29:42Z</time>
      </trkpt>
      <trkpt lat="42.62537" lon="0.87785">
        <ele>2447.65</ele>
        <time>2011-03-11T09:29:47Z</time>
      </trkpt>
      <trkpt lat="42.62529" lon="0.87785">
        <ele>2449.1</ele>
        <time>2011-03-11T09:29:56Z</time>
      </trkpt>
      <trkpt lat="42.62528" lon="0.87786">
        <ele>2449.1</ele>
        <time>2011-03-11T09:29:58Z</time>
      </trkpt>
      <trkpt lat="42.62518" lon="0.87787">
        <ele>2450.06</ele>
        <time>2011-03-11T09:30:09Z</time>
      </trkpt>
      <trkpt lat="42.62513" lon="0.8779">
        <ele>2451.02</ele>
        <time>2011-03-11T09:30:16Z</time>
      </trkpt>
      <trkpt lat="42.62507" lon="0.87794">
        <ele>2450.06</ele>
        <time>2011-03-11T09:30:23Z</time>
      </trkpt>
      <trkpt lat="42.62499" lon="0.878">
        <ele>2451.02</ele>
        <time>2011-03-11T09:30:35Z</time>
      </trkpt>
      <trkpt lat="42.62498" lon="0.87801">
        <ele>2451.5</ele>
        <time>2011-03-11T09:30:39Z</time>
      </trkpt>
      <trkpt lat="42.62491" lon="0.87811">
        <ele>2452.46</ele>
        <time>2011-03-11T09:30:49Z</time>
      </trkpt>
      <trkpt lat="42.62487" lon="0.87817">
        <ele>2453.42</ele>
        <time>2011-03-11T09:30:57Z</time>
      </trkpt>
      <trkpt lat="42.62482" lon="0.87824">
        <ele>2454.38</ele>
        <time>2011-03-11T09:31:04Z</time>
      </trkpt>
      <trkpt lat="42.62478" lon="0.87821">
        <ele>2455.34</ele>
        <time>2011-03-11T09:31:11Z</time>
      </trkpt>
      <trkpt lat="42.62474" lon="0.87817">
        <ele>2456.79</ele>
        <time>2011-03-11T09:31:17Z</time>
      </trkpt>
      <trkpt lat="42.62467" lon="0.87819">
        <ele>2458.71</ele>
        <time>2011-03-11T09:31:28Z</time>
      </trkpt>
      <trkpt lat="42.62462" lon="0.8782">
        <ele>2461.11</ele>
        <time>2011-03-11T09:31:35Z</time>
      </trkpt>
      <trkpt lat="42.62458" lon="0.87824">
        <ele>2462.55</ele>
        <time>2011-03-11T09:31:51Z</time>
      </trkpt>
      <trkpt lat="42.62454" lon="0.87826">
        <ele>2462.55</ele>
        <time>2011-03-11T09:31:55Z</time>
      </trkpt>
      <trkpt lat="42.62444" lon="0.87826">
        <ele>2464.48</ele>
        <time>2011-03-11T09:32:06Z</time>
      </trkpt>
      <trkpt lat="42.62441" lon="0.87828">
        <ele>2464.48</ele>
        <time>2011-03-11T09:32:10Z</time>
      </trkpt>
      <trkpt lat="42.62437" lon="0.8783">
        <ele>2464.96</ele>
        <time>2011-03-11T09:32:14Z</time>
      </trkpt>
      <trkpt lat="42.62425" lon="0.87835">
        <ele>2465.44</ele>
        <time>2011-03-11T09:32:25Z</time>
      </trkpt>
      <trkpt lat="42.62416" lon="0.87835">
        <ele>2464</ele>
        <time>2011-03-11T09:32:32Z</time>
      </trkpt>
      <trkpt lat="42.62409" lon="0.87839">
        <ele>2463.52</ele>
        <time>2011-03-11T09:32:45Z</time>
      </trkpt>
      <trkpt lat="42.62408" lon="0.8784">
        <ele>2463.04</ele>
        <time>2011-03-11T09:32:47Z</time>
      </trkpt>
      <trkpt lat="42.62405" lon="0.87848">
        <ele>2461.59</ele>
        <time>2011-03-11T09:32:51Z</time>
      </trkpt>
      <trkpt lat="42.62402" lon="0.87856">
        <ele>2459.67</ele>
        <time>2011-03-11T09:32:54Z</time>
      </trkpt>
      <trkpt lat="42.62402" lon="0.87859">
        <ele>2458.71</ele>
        <time>2011-03-11T09:33:08Z</time>
      </trkpt>
      <trkpt lat="42.624" lon="0.87861">
        <ele>2458.71</ele>
        <time>2011-03-11T09:33:31Z</time>
      </trkpt>
      <trkpt lat="42.62399" lon="0.87863">
        <ele>2456.79</ele>
        <time>2011-03-11T09:33:36Z</time>
      </trkpt>
      <trkpt lat="42.62396" lon="0.87868">
        <ele>2455.34</ele>
        <time>2011-03-11T09:33:42Z</time>
      </trkpt>
      <trkpt lat="42.62388" lon="0.87879">
        <ele>2452.46</ele>
        <time>2011-03-11T09:33:54Z</time>
      </trkpt>
      <trkpt lat="42.62387" lon="0.87881">
        <ele>2452.46</ele>
        <time>2011-03-11T09:33:55Z</time>
      </trkpt>
      <trkpt lat="42.62385" lon="0.87885">
        <ele>2450.54</ele>
        <time>2011-03-11T09:33:58Z</time>
      </trkpt>
      <trkpt lat="42.62375" lon="0.879">
        <ele>2447.17</ele>
        <time>2011-03-11T09:34:08Z</time>
      </trkpt>
      <trkpt lat="42.62371" lon="0.87906">
        <ele>2446.21</ele>
        <time>2011-03-11T09:34:10Z</time>
      </trkpt>
      <trkpt lat="42.62368" lon="0.87909">
        <ele>2445.73</ele>
        <time>2011-03-11T09:34:13Z</time>
      </trkpt>
      <trkpt lat="42.62365" lon="0.8791">
        <ele>2446.21</ele>
        <time>2011-03-11T09:34:16Z</time>
      </trkpt>
      <trkpt lat="42.62362" lon="0.87909">
        <ele>2446.21</ele>
        <time>2011-03-11T09:34:29Z</time>
      </trkpt>
      <trkpt lat="42.62361" lon="0.8791">
        <ele>2446.21</ele>
        <time>2011-03-11T09:35:56Z</time>
      </trkpt>
      <trkpt lat="42.62359" lon="0.87915">
        <ele>2447.17</ele>
        <time>2011-03-11T09:36:02Z</time>
      </trkpt>
      <trkpt lat="42.62356" lon="0.87918">
        <ele>2447.65</ele>
        <time>2011-03-11T09:36:06Z</time>
      </trkpt>
      <trkpt lat="42.62354" lon="0.8792">
        <ele>2447.65</ele>
        <time>2011-03-11T09:36:09Z</time>
      </trkpt>
      <trkpt lat="42.62352" lon="0.87922">
        <ele>2448.13</ele>
        <time>2011-03-11T09:36:12Z</time>
      </trkpt>
      <trkpt lat="42.62342" lon="0.87923">
        <ele>2450.06</ele>
        <time>2011-03-11T09:36:23Z</time>
      </trkpt>
      <trkpt lat="42.62339" lon="0.87924">
        <ele>2451.5</ele>
        <time>2011-03-11T09:36:32Z</time>
      </trkpt>
      <trkpt lat="42.62333" lon="0.87926">
        <ele>2452.46</ele>
        <time>2011-03-11T09:36:40Z</time>
      </trkpt>
      <trkpt lat="42.62326" lon="0.87927">
        <ele>2452.94</ele>
        <time>2011-03-11T09:36:49Z</time>
      </trkpt>
      <trkpt lat="42.62318" lon="0.87929">
        <ele>2455.82</ele>
        <time>2011-03-11T09:37:00Z</time>
      </trkpt>
      <trkpt lat="42.62321" lon="0.87935">
        <ele>2455.82</ele>
        <time>2011-03-11T09:37:09Z</time>
      </trkpt>
      <trkpt lat="42.62318" lon="0.87942">
        <ele>2459.19</ele>
        <time>2011-03-11T09:37:19Z</time>
      </trkpt>
      <trkpt lat="42.62317" lon="0.87942">
        <ele>2459.19</ele>
        <time>2011-03-11T09:37:21Z</time>
      </trkpt>
      <trkpt lat="42.62307" lon="0.87951">
        <ele>2460.15</ele>
        <time>2011-03-11T09:37:35Z</time>
      </trkpt>
      <trkpt lat="42.62301" lon="0.87955">
        <ele>2462.07</ele>
        <time>2011-03-11T09:37:44Z</time>
      </trkpt>
      <trkpt lat="42.62292" lon="0.8796">
        <ele>2462.55</ele>
        <time>2011-03-11T09:37:55Z</time>
      </trkpt>
      <trkpt lat="42.62291" lon="0.87961">
        <ele>2463.04</ele>
        <time>2011-03-11T09:37:56Z</time>
      </trkpt>
      <trkpt lat="42.62283" lon="0.87964">
        <ele>2464.96</ele>
        <time>2011-03-11T09:38:06Z</time>
      </trkpt>
      <trkpt lat="42.62273" lon="0.87971">
        <ele>2465.44</ele>
        <time>2011-03-11T09:38:18Z</time>
      </trkpt>
      <trkpt lat="42.62272" lon="0.87972">
        <ele>2465.92</ele>
        <time>2011-03-11T09:38:20Z</time>
      </trkpt>
      <trkpt lat="42.62265" lon="0.87975">
        <ele>2466.88</ele>
        <time>2011-03-11T09:38:28Z</time>
      </trkpt>
      <trkpt lat="42.62262" lon="0.87979">
        <ele>2466.88</ele>
        <time>2011-03-11T09:38:32Z</time>
      </trkpt>
      <trkpt lat="42.62254" lon="0.87986">
        <ele>2467.36</ele>
        <time>2011-03-11T09:38:42Z</time>
      </trkpt>
      <trkpt lat="42.62248" lon="0.87991">
        <ele>2466.4</ele>
        <time>2011-03-11T09:38:49Z</time>
      </trkpt>
      <trkpt lat="42.62234" lon="0.87999">
        <ele>2464.96</ele>
        <time>2011-03-11T09:39:02Z</time>
      </trkpt>
      <trkpt lat="42.62227" lon="0.88001">
        <ele>2462.55</ele>
        <time>2011-03-11T09:39:06Z</time>
      </trkpt>
      <trkpt lat="42.62225" lon="0.88002">
        <ele>2462.07</ele>
        <time>2011-03-11T09:39:19Z</time>
      </trkpt>
      <trkpt lat="42.62226" lon="0.87999">
        <ele>2462.55</ele>
        <time>2011-03-11T09:39:33Z</time>
      </trkpt>
      <trkpt lat="42.6223" lon="0.87997">
        <ele>2463.04</ele>
        <time>2011-03-11T09:39:50Z</time>
      </trkpt>
      <trkpt lat="42.6223" lon="0.87997">
        <ele>2463.04</ele>
        <time>2011-03-11T09:39:51Z</time>
      </trkpt>
      <trkpt lat="42.62242" lon="0.87993">
        <ele>2465.44</ele>
        <time>2011-03-11T09:40:02Z</time>
      </trkpt>
      <trkpt lat="42.62244" lon="0.87993">
        <ele>2464.96</ele>
        <time>2011-03-11T09:40:04Z</time>
      </trkpt>
      <trkpt lat="42.62247" lon="0.87991">
        <ele>2465.92</ele>
        <time>2011-03-11T09:40:08Z</time>
      </trkpt>
      <trkpt lat="42.62254" lon="0.87987">
        <ele>2467.36</ele>
        <time>2011-03-11T09:40:21Z</time>
      </trkpt>
      <trkpt lat="42.62254" lon="0.87987">
        <ele>2466.88</ele>
        <time>2011-03-11T09:40:49Z</time>
      </trkpt>
      <trkpt lat="42.62258" lon="0.87984">
        <ele>2467.84</ele>
        <time>2011-03-11T09:41:29Z</time>
      </trkpt>
      <trkpt lat="42.6227" lon="0.87984">
        <ele>2468.32</ele>
        <time>2011-03-11T09:41:40Z</time>
      </trkpt>
      <trkpt lat="42.62283" lon="0.87988">
        <ele>2468.8</ele>
        <time>2011-03-11T09:41:53Z</time>
      </trkpt>
      <trkpt lat="42.62287" lon="0.87989">
        <ele>2469.28</ele>
        <time>2011-03-11T09:41:59Z</time>
      </trkpt>
      <trkpt lat="42.62292" lon="0.8799">
        <ele>2469.76</ele>
        <time>2011-03-11T09:42:07Z</time>
      </trkpt>
      <trkpt lat="42.62304" lon="0.87995">
        <ele>2471.21</ele>
        <time>2011-03-11T09:42:19Z</time>
      </trkpt>
      <trkpt lat="42.62316" lon="0.87998">
        <ele>2471.69</ele>
        <time>2011-03-11T09:42:33Z</time>
      </trkpt>
      <trkpt lat="42.62321" lon="0.87999">
        <ele>2471.21</ele>
        <time>2011-03-11T09:42:40Z</time>
      </trkpt>
      <trkpt lat="42.62327" lon="0.88001">
        <ele>2471.21</ele>
        <time>2011-03-11T09:42:46Z</time>
      </trkpt>
      <trkpt lat="42.62336" lon="0.88005">
        <ele>2472.65</ele>
        <time>2011-03-11T09:42:56Z</time>
      </trkpt>
      <trkpt lat="42.62341" lon="0.88009">
        <ele>2474.09</ele>
        <time>2011-03-11T09:43:03Z</time>
      </trkpt>
      <trkpt lat="42.62346" lon="0.88011">
        <ele>2474.57</ele>
        <time>2011-03-11T09:43:08Z</time>
      </trkpt>
      <trkpt lat="42.62349" lon="0.88014">
        <ele>2475.53</ele>
        <time>2011-03-11T09:43:12Z</time>
      </trkpt>
      <trkpt lat="42.62353" lon="0.88012">
        <ele>2476.01</ele>
        <time>2011-03-11T09:43:17Z</time>
      </trkpt>
      <trkpt lat="42.62358" lon="0.88006">
        <ele>2476.01</ele>
        <time>2011-03-11T09:43:25Z</time>
      </trkpt>
      <trkpt lat="42.62361" lon="0.88003">
        <ele>2476.49</ele>
        <time>2011-03-11T09:43:29Z</time>
      </trkpt>
      <trkpt lat="42.62365" lon="0.87995">
        <ele>2476.01</ele>
        <time>2011-03-11T09:43:36Z</time>
      </trkpt>
      <trkpt lat="42.62367" lon="0.87994">
        <ele>2476.97</ele>
        <time>2011-03-11T09:43:38Z</time>
      </trkpt>
      <trkpt lat="42.62382" lon="0.87989">
        <ele>2478.9</ele>
        <time>2011-03-11T09:43:53Z</time>
      </trkpt>
      <trkpt lat="42.62395" lon="0.87992">
        <ele>2481.3</ele>
        <time>2011-03-11T09:44:06Z</time>
      </trkpt>
      <trkpt lat="42.62398" lon="0.87993">
        <ele>2481.78</ele>
        <time>2011-03-11T09:44:09Z</time>
      </trkpt>
      <trkpt lat="42.62409" lon="0.88001">
        <ele>2483.7</ele>
        <time>2011-03-11T09:44:23Z</time>
      </trkpt>
      <trkpt lat="42.62409" lon="0.88002">
        <ele>2484.18</ele>
        <time>2011-03-11T09:44:24Z</time>
      </trkpt>
      <trkpt lat="42.62419" lon="0.88014">
        <ele>2484.66</ele>
        <time>2011-03-11T09:44:39Z</time>
      </trkpt>
      <trkpt lat="42.62428" lon="0.88026">
        <ele>2487.55</ele>
        <time>2011-03-11T09:44:53Z</time>
      </trkpt>
      <trkpt lat="42.62434" lon="0.88039">
        <ele>2488.99</ele>
        <time>2011-03-11T09:45:07Z</time>
      </trkpt>
      <trkpt lat="42.62439" lon="0.88053">
        <ele>2490.43</ele>
        <time>2011-03-11T09:45:20Z</time>
      </trkpt>
      <trkpt lat="42.6244" lon="0.88056">
        <ele>2489.47</ele>
        <time>2011-03-11T09:45:22Z</time>
      </trkpt>
      <trkpt lat="42.62447" lon="0.88068">
        <ele>2492.36</ele>
        <time>2011-03-11T09:45:34Z</time>
      </trkpt>
      <trkpt lat="42.62448" lon="0.88069">
        <ele>2491.87</ele>
        <time>2011-03-11T09:45:35Z</time>
      </trkpt>
      <trkpt lat="42.62459" lon="0.88077">
        <ele>2494.28</ele>
        <time>2011-03-11T09:45:48Z</time>
      </trkpt>
      <trkpt lat="42.62473" lon="0.88087">
        <ele>2496.2</ele>
        <time>2011-03-11T09:46:03Z</time>
      </trkpt>
      <trkpt lat="42.62482" lon="0.88093">
        <ele>2496.68</ele>
        <time>2011-03-11T09:46:13Z</time>
      </trkpt>
      <trkpt lat="42.62488" lon="0.881">
        <ele>2498.12</ele>
        <time>2011-03-11T09:46:25Z</time>
      </trkpt>
      <trkpt lat="42.62491" lon="0.88103">
        <ele>2498.6</ele>
        <time>2011-03-11T09:46:29Z</time>
      </trkpt>
      <trkpt lat="42.62501" lon="0.88119">
        <ele>2498.6</ele>
        <time>2011-03-11T09:46:43Z</time>
      </trkpt>
      <trkpt lat="42.62503" lon="0.88124">
        <ele>2499.57</ele>
        <time>2011-03-11T09:46:47Z</time>
      </trkpt>
      <trkpt lat="42.62504" lon="0.88139">
        <ele>2501.97</ele>
        <time>2011-03-11T09:47:00Z</time>
      </trkpt>
      <trkpt lat="42.62506" lon="0.88155">
        <ele>2503.89</ele>
        <time>2011-03-11T09:47:13Z</time>
      </trkpt>
      <trkpt lat="42.62506" lon="0.88158">
        <ele>2503.89</ele>
        <time>2011-03-11T09:47:15Z</time>
      </trkpt>
      <trkpt lat="42.62508" lon="0.88164">
        <ele>2505.33</ele>
        <time>2011-03-11T09:47:19Z</time>
      </trkpt>
      <trkpt lat="42.62511" lon="0.88181">
        <ele>2507.26</ele>
        <time>2011-03-11T09:47:31Z</time>
      </trkpt>
      <trkpt lat="42.62515" lon="0.88194">
        <ele>2510.14</ele>
        <time>2011-03-11T09:47:42Z</time>
      </trkpt>
      <trkpt lat="42.62517" lon="0.88207">
        <ele>2512.06</ele>
        <time>2011-03-11T09:47:53Z</time>
      </trkpt>
      <trkpt lat="42.62522" lon="0.88224">
        <ele>2513.98</ele>
        <time>2011-03-11T09:48:05Z</time>
      </trkpt>
      <trkpt lat="42.62522" lon="0.8823">
        <ele>2515.43</ele>
        <time>2011-03-11T09:48:10Z</time>
      </trkpt>
      <trkpt lat="42.62518" lon="0.88238">
        <ele>2514.95</ele>
        <time>2011-03-11T09:48:17Z</time>
      </trkpt>
      <trkpt lat="42.62511" lon="0.88248">
        <ele>2513.98</ele>
        <time>2011-03-11T09:48:25Z</time>
      </trkpt>
      <trkpt lat="42.62502" lon="0.88258">
        <ele>2512.54</ele>
        <time>2011-03-11T09:48:33Z</time>
      </trkpt>
      <trkpt lat="42.625" lon="0.88259">
        <ele>2512.54</ele>
        <time>2011-03-11T09:48:34Z</time>
      </trkpt>
      <trkpt lat="42.62496" lon="0.88261">
        <ele>2511.58</ele>
        <time>2011-03-11T09:48:45Z</time>
      </trkpt>
      <trkpt lat="42.62498" lon="0.88265">
        <ele>2511.58</ele>
        <time>2011-03-11T09:48:50Z</time>
      </trkpt>
      <trkpt lat="42.62495" lon="0.88283">
        <ele>2507.26</ele>
        <time>2011-03-11T09:48:59Z</time>
      </trkpt>
      <trkpt lat="42.62495" lon="0.88285">
        <ele>2507.26</ele>
        <time>2011-03-11T09:49:00Z</time>
      </trkpt>
      <trkpt lat="42.62491" lon="0.88289">
        <ele>2505.33</ele>
        <time>2011-03-11T09:49:05Z</time>
      </trkpt>
      <trkpt lat="42.62492" lon="0.88289">
        <ele>2505.33</ele>
        <time>2011-03-11T09:49:31Z</time>
      </trkpt>
      <trkpt lat="42.62491" lon="0.88289">
        <ele>2503.89</ele>
        <time>2011-03-11T09:49:46Z</time>
      </trkpt>
      <trkpt lat="42.62492" lon="0.88288">
        <ele>2504.37</ele>
        <time>2011-03-11T09:53:56Z</time>
      </trkpt>
      <trkpt lat="42.62493" lon="0.88288">
        <ele>2503.89</ele>
        <time>2011-03-11T09:57:01Z</time>
      </trkpt>
      <trkpt lat="42.62492" lon="0.88288">
        <ele>2505.33</ele>
        <time>2011-03-11T09:57:04Z</time>
      </trkpt>
      <trkpt lat="42.62492" lon="0.8829">
        <ele>2505.33</ele>
        <time>2011-03-11T09:57:21Z</time>
      </trkpt>
      <trkpt lat="42.62492" lon="0.8829">
        <ele>2504.85</ele>
        <time>2011-03-11T09:57:27Z</time>
      </trkpt>
      <trkpt lat="42.62493" lon="0.88292">
        <ele>2505.33</ele>
        <time>2011-03-11T09:57:37Z</time>
      </trkpt>
      <trkpt lat="42.62495" lon="0.88307">
        <ele>2502.45</ele>
        <time>2011-03-11T09:57:42Z</time>
      </trkpt>
      <trkpt lat="42.62496" lon="0.88311">
        <ele>2500.53</ele>
        <time>2011-03-11T09:57:48Z</time>
      </trkpt>
      <trkpt lat="42.62489" lon="0.88311">
        <ele>2496.68</ele>
        <time>2011-03-11T09:57:53Z</time>
      </trkpt>
      <trkpt lat="42.62488" lon="0.88312">
        <ele>2495.24</ele>
        <time>2011-03-11T09:58:01Z</time>
      </trkpt>
      <trkpt lat="42.6249" lon="0.88322">
        <ele>2491.87</ele>
        <time>2011-03-11T09:58:05Z</time>
      </trkpt>
      <trkpt lat="42.62491" lon="0.88324">
        <ele>2492.36</ele>
        <time>2011-03-11T09:58:06Z</time>
      </trkpt>
      <trkpt lat="42.62492" lon="0.88331">
        <ele>2490.43</ele>
        <time>2011-03-11T09:58:08Z</time>
      </trkpt>
      <trkpt lat="42.62496" lon="0.88348">
        <ele>2486.59</ele>
        <time>2011-03-11T09:58:12Z</time>
      </trkpt>
      <trkpt lat="42.62497" lon="0.88351">
        <ele>2485.63</ele>
        <time>2011-03-11T09:58:14Z</time>
      </trkpt>
      <trkpt lat="42.62496" lon="0.88351">
        <ele>2486.11</ele>
        <time>2011-03-11T09:58:17Z</time>
      </trkpt>
      <trkpt lat="42.62483" lon="0.88349">
        <ele>2481.78</ele>
        <time>2011-03-11T09:58:21Z</time>
      </trkpt>
      <trkpt lat="42.62474" lon="0.88348">
        <ele>2478.42</ele>
        <time>2011-03-11T09:58:24Z</time>
      </trkpt>
      <trkpt lat="42.62473" lon="0.88348">
        <ele>2477.94</ele>
        <time>2011-03-11T09:58:26Z</time>
      </trkpt>
      <trkpt lat="42.62473" lon="0.88348">
        <ele>2477.94</ele>
        <time>2011-03-11T09:58:27Z</time>
      </trkpt>
      <trkpt lat="42.62476" lon="0.88362">
        <ele>2473.13</ele>
        <time>2011-03-11T09:58:31Z</time>
      </trkpt>
      <trkpt lat="42.62482" lon="0.88377">
        <ele>2469.28</ele>
        <time>2011-03-11T09:58:36Z</time>
      </trkpt>
      <trkpt lat="42.62484" lon="0.8838">
        <ele>2469.28</ele>
        <time>2011-03-11T09:58:37Z</time>
      </trkpt>
      <trkpt lat="42.62485" lon="0.88383">
        <ele>2468.8</ele>
        <time>2011-03-11T09:58:38Z</time>
      </trkpt>
      <trkpt lat="42.62493" lon="0.884">
        <ele>2464</ele>
        <time>2011-03-11T09:58:42Z</time>
      </trkpt>
      <trkpt lat="42.62494" lon="0.88404">
        <ele>2463.52</ele>
        <time>2011-03-11T09:58:43Z</time>
      </trkpt>
      <trkpt lat="42.62499" lon="0.88417">
        <ele>2460.63</ele>
        <time>2011-03-11T09:58:46Z</time>
      </trkpt>
      <trkpt lat="42.62503" lon="0.88428">
        <ele>2457.27</ele>
        <time>2011-03-11T09:58:48Z</time>
      </trkpt>
      <trkpt lat="42.62504" lon="0.88432">
        <ele>2455.82</ele>
        <time>2011-03-11T09:58:51Z</time>
      </trkpt>
      <trkpt lat="42.62504" lon="0.88433">
        <ele>2456.31</ele>
        <time>2011-03-11T09:58:55Z</time>
      </trkpt>
      <trkpt lat="42.62508" lon="0.88443">
        <ele>2456.31</ele>
        <time>2011-03-11T09:59:06Z</time>
      </trkpt>
      <trkpt lat="42.62509" lon="0.88446">
        <ele>2456.31</ele>
        <time>2011-03-11T09:59:09Z</time>
      </trkpt>
      <trkpt lat="42.62509" lon="0.88452">
        <ele>2454.86</ele>
        <time>2011-03-11T09:59:16Z</time>
      </trkpt>
      <trkpt lat="42.62511" lon="0.88458">
        <ele>2454.86</ele>
        <time>2011-03-11T09:59:21Z</time>
      </trkpt>
      <trkpt lat="42.62515" lon="0.88478">
        <ele>2451.02</ele>
        <time>2011-03-11T09:59:31Z</time>
      </trkpt>
      <trkpt lat="42.62518" lon="0.88484">
        <ele>2450.54</ele>
        <time>2011-03-11T09:59:44Z</time>
      </trkpt>
      <trkpt lat="42.62518" lon="0.88484">
        <ele>2450.54</ele>
        <time>2011-03-11T09:59:47Z</time>
      </trkpt>
      <trkpt lat="42.62521" lon="0.88501">
        <ele>2448.13</ele>
        <time>2011-03-11T09:59:54Z</time>
      </trkpt>
      <trkpt lat="42.62523" lon="0.88511">
        <ele>2446.69</ele>
        <time>2011-03-11T09:59:58Z</time>
      </trkpt>
      <trkpt lat="42.62527" lon="0.88532">
        <ele>2442.85</ele>
        <time>2011-03-11T10:00:09Z</time>
      </trkpt>
      <trkpt lat="42.62527" lon="0.88535">
        <ele>2443.33</ele>
        <time>2011-03-11T10:00:11Z</time>
      </trkpt>
      <trkpt lat="42.62528" lon="0.88545">
        <ele>2442.37</ele>
        <time>2011-03-11T10:00:17Z</time>
      </trkpt>
      <trkpt lat="42.62528" lon="0.88547">
        <ele>2442.85</ele>
        <time>2011-03-11T10:00:38Z</time>
      </trkpt>
      <trkpt lat="42.62528" lon="0.88547">
        <ele>2442.37</ele>
        <time>2011-03-11T10:00:46Z</time>
      </trkpt>
      <trkpt lat="42.62527" lon="0.88555">
        <ele>2441.89</ele>
        <time>2011-03-11T10:00:50Z</time>
      </trkpt>
      <trkpt lat="42.62526" lon="0.88571">
        <ele>2442.37</ele>
        <time>2011-03-11T10:01:01Z</time>
      </trkpt>
      <trkpt lat="42.62524" lon="0.88592">
        <ele>2441.41</ele>
        <time>2011-03-11T10:01:12Z</time>
      </trkpt>
      <trkpt lat="42.62522" lon="0.886">
        <ele>2440.44</ele>
        <time>2011-03-11T10:01:16Z</time>
      </trkpt>
      <trkpt lat="42.62522" lon="0.88607">
        <ele>2440.92</ele>
        <time>2011-03-11T10:01:20Z</time>
      </trkpt>
      <trkpt lat="42.62523" lon="0.88612">
        <ele>2439.96</ele>
        <time>2011-03-11T10:01:23Z</time>
      </trkpt>
      <trkpt lat="42.62524" lon="0.8863">
        <ele>2439</ele>
        <time>2011-03-11T10:01:32Z</time>
      </trkpt>
      <trkpt lat="42.62525" lon="0.88643">
        <ele>2438.04</ele>
        <time>2011-03-11T10:01:37Z</time>
      </trkpt>
      <trkpt lat="42.62524" lon="0.88657">
        <ele>2437.08</ele>
        <time>2011-03-11T10:01:43Z</time>
      </trkpt>
      <trkpt lat="42.62525" lon="0.88667">
        <ele>2436.6</ele>
        <time>2011-03-11T10:01:48Z</time>
      </trkpt>
      <trkpt lat="42.62527" lon="0.8868">
        <ele>2437.08</ele>
        <time>2011-03-11T10:01:56Z</time>
      </trkpt>
      <trkpt lat="42.62528" lon="0.88683">
        <ele>2437.56</ele>
        <time>2011-03-11T10:02:15Z</time>
      </trkpt>
      <trkpt lat="42.62528" lon="0.88683">
        <ele>2437.56</ele>
        <time>2011-03-11T10:02:21Z</time>
      </trkpt>
      <trkpt lat="42.62529" lon="0.88684">
        <ele>2436.12</ele>
        <time>2011-03-11T10:02:24Z</time>
      </trkpt>
      <trkpt lat="42.62529" lon="0.88683">
        <ele>2436.6</ele>
        <time>2011-03-11T10:06:25Z</time>
      </trkpt>
      <trkpt lat="42.62528" lon="0.88684">
        <ele>2436.6</ele>
        <time>2011-03-11T10:07:07Z</time>
      </trkpt>
      <trkpt lat="42.62528" lon="0.88683">
        <ele>2437.56</ele>
        <time>2011-03-11T10:09:19Z</time>
      </trkpt>
      <trkpt lat="42.62528" lon="0.88683">
        <ele>2437.08</ele>
        <time>2011-03-11T10:09:58Z</time>
      </trkpt>
      <trkpt lat="42.62531" lon="0.8869">
        <ele>2437.08</ele>
        <time>2011-03-11T10:10:17Z</time>
      </trkpt>
      <trkpt lat="42.62534" lon="0.88695">
        <ele>2437.08</ele>
        <time>2011-03-11T10:10:21Z</time>
      </trkpt>
      <trkpt lat="42.62535" lon="0.88699">
        <ele>2437.56</ele>
        <time>2011-03-11T10:10:25Z</time>
      </trkpt>
      <trkpt lat="42.62536" lon="0.88701">
        <ele>2437.08</ele>
        <time>2011-03-11T10:10:33Z</time>
      </trkpt>
      <trkpt lat="42.62537" lon="0.887">
        <ele>2435.64</ele>
        <time>2011-03-11T10:10:35Z</time>
      </trkpt>
      <trkpt lat="42.62537" lon="0.887">
        <ele>2439.48</ele>
        <time>2011-03-11T10:10:40Z</time>
      </trkpt>
      <trkpt lat="42.62537" lon="0.887">
        <ele>2435.64</ele>
        <time>2011-03-11T10:10:42Z</time>
      </trkpt>
      <trkpt lat="42.62537" lon="0.887">
        <ele>2435.64</ele>
        <time>2011-03-11T10:11:00Z</time>
      </trkpt>
      <trkpt lat="42.62535" lon="0.88699">
        <ele>2437.08</ele>
        <time>2011-03-11T10:11:07Z</time>
      </trkpt>
      <trkpt lat="42.62535" lon="0.88699">
        <ele>2437.08</ele>
        <time>2011-03-11T10:11:16Z</time>
      </trkpt>
      <trkpt lat="42.62536" lon="0.887">
        <ele>2436.12</ele>
        <time>2011-03-11T10:11:18Z</time>
      </trkpt>
      <trkpt lat="42.62538" lon="0.88705">
        <ele>2436.12</ele>
        <time>2011-03-11T10:11:21Z</time>
      </trkpt>
      <trkpt lat="42.62544" lon="0.8872">
        <ele>2434.68</ele>
        <time>2011-03-11T10:11:32Z</time>
      </trkpt>
      <trkpt lat="42.62549" lon="0.88735">
        <ele>2433.23</ele>
        <time>2011-03-11T10:11:41Z</time>
      </trkpt>
      <trkpt lat="42.6255" lon="0.88738">
        <ele>2432.75</ele>
        <time>2011-03-11T10:11:43Z</time>
      </trkpt>
      <trkpt lat="42.62551" lon="0.88756">
        <ele>2433.71</ele>
        <time>2011-03-11T10:11:56Z</time>
      </trkpt>
      <trkpt lat="42.62555" lon="0.88776">
        <ele>2434.2</ele>
        <time>2011-03-11T10:12:11Z</time>
      </trkpt>
      <trkpt lat="42.62554" lon="0.88782">
        <ele>2434.2</ele>
        <time>2011-03-11T10:12:15Z</time>
      </trkpt>
      <trkpt lat="42.62554" lon="0.88791">
        <ele>2434.2</ele>
        <time>2011-03-11T10:12:21Z</time>
      </trkpt>
      <trkpt lat="42.62553" lon="0.88803">
        <ele>2434.68</ele>
        <time>2011-03-11T10:12:29Z</time>
      </trkpt>
      <trkpt lat="42.6255" lon="0.88811">
        <ele>2435.16</ele>
        <time>2011-03-11T10:12:35Z</time>
      </trkpt>
      <trkpt lat="42.6255" lon="0.88813">
        <ele>2436.12</ele>
        <time>2011-03-11T10:12:37Z</time>
      </trkpt>
      <trkpt lat="42.6255" lon="0.88819">
        <ele>2436.6</ele>
        <time>2011-03-11T10:12:42Z</time>
      </trkpt>
      <trkpt lat="42.6255" lon="0.88824">
        <ele>2436.6</ele>
        <time>2011-03-11T10:12:46Z</time>
      </trkpt>
      <trkpt lat="42.6255" lon="0.88833">
        <ele>2436.12</ele>
        <time>2011-03-11T10:12:52Z</time>
      </trkpt>
      <trkpt lat="42.6255" lon="0.8885">
        <ele>2435.64</ele>
        <time>2011-03-11T10:13:05Z</time>
      </trkpt>
      <trkpt lat="42.62551" lon="0.88853">
        <ele>2436.12</ele>
        <time>2011-03-11T10:13:13Z</time>
      </trkpt>
      <trkpt lat="42.62551" lon="0.88869">
        <ele>2437.08</ele>
        <time>2011-03-11T10:13:25Z</time>
      </trkpt>
      <trkpt lat="42.6255" lon="0.88876">
        <ele>2436.12</ele>
        <time>2011-03-11T10:13:29Z</time>
      </trkpt>
      <trkpt lat="42.62551" lon="0.88888">
        <ele>2437.08</ele>
        <time>2011-03-11T10:13:37Z</time>
      </trkpt>
      <trkpt lat="42.62548" lon="0.88915">
        <ele>2435.16</ele>
        <time>2011-03-11T10:13:52Z</time>
      </trkpt>
      <trkpt lat="42.62548" lon="0.88916">
        <ele>2435.64</ele>
        <time>2011-03-11T10:13:53Z</time>
      </trkpt>
      <trkpt lat="42.62549" lon="0.88919">
        <ele>2435.64</ele>
        <time>2011-03-11T10:13:55Z</time>
      </trkpt>
      <trkpt lat="42.62546" lon="0.88939">
        <ele>2434.68</ele>
        <time>2011-03-11T10:14:07Z</time>
      </trkpt>
      <trkpt lat="42.62546" lon="0.88941">
        <ele>2434.68</ele>
        <time>2011-03-11T10:14:08Z</time>
      </trkpt>
      <trkpt lat="42.62542" lon="0.88965">
        <ele>2434.2</ele>
        <time>2011-03-11T10:14:22Z</time>
      </trkpt>
      <trkpt lat="42.62541" lon="0.8897">
        <ele>2433.71</ele>
        <time>2011-03-11T10:14:25Z</time>
      </trkpt>
      <trkpt lat="42.6254" lon="0.8898">
        <ele>2434.2</ele>
        <time>2011-03-11T10:14:31Z</time>
      </trkpt>
      <trkpt lat="42.62539" lon="0.88983">
        <ele>2434.2</ele>
        <time>2011-03-11T10:14:33Z</time>
      </trkpt>
      <trkpt lat="42.62537" lon="0.88996">
        <ele>2434.68</ele>
        <time>2011-03-11T10:14:41Z</time>
      </trkpt>
      <trkpt lat="42.62534" lon="0.89006">
        <ele>2434.68</ele>
        <time>2011-03-11T10:14:47Z</time>
      </trkpt>
      <trkpt lat="42.62529" lon="0.89034">
        <ele>2432.27</ele>
        <time>2011-03-11T10:14:57Z</time>
      </trkpt>
      <trkpt lat="42.62521" lon="0.89053">
        <ele>2428.43</ele>
        <time>2011-03-11T10:15:01Z</time>
      </trkpt>
      <trkpt lat="42.62514" lon="0.89062">
        <ele>2426.02</ele>
        <time>2011-03-11T10:15:04Z</time>
      </trkpt>
      <trkpt lat="42.62509" lon="0.8907">
        <ele>2426.02</ele>
        <time>2011-03-11T10:15:10Z</time>
      </trkpt>
      <trkpt lat="42.62499" lon="0.8908">
        <ele>2426.5</ele>
        <time>2011-03-11T10:15:21Z</time>
      </trkpt>
      <trkpt lat="42.62498" lon="0.89081">
        <ele>2427.47</ele>
        <time>2011-03-11T10:15:36Z</time>
      </trkpt>
      <trkpt lat="42.62498" lon="0.89081">
        <ele>2426.99</ele>
        <time>2011-03-11T10:16:00Z</time>
      </trkpt>
      <trkpt lat="42.62498" lon="0.89081">
        <ele>2426.99</ele>
        <time>2011-03-11T10:16:09Z</time>
      </trkpt>
      <trkpt lat="42.62492" lon="0.89085">
        <ele>2426.99</ele>
        <time>2011-03-11T10:16:14Z</time>
      </trkpt>
      <trkpt lat="42.62479" lon="0.89091">
        <ele>2427.95</ele>
        <time>2011-03-11T10:16:24Z</time>
      </trkpt>
      <trkpt lat="42.62467" lon="0.89096">
        <ele>2428.43</ele>
        <time>2011-03-11T10:16:32Z</time>
      </trkpt>
      <trkpt lat="42.62466" lon="0.89095">
        <ele>2428.43</ele>
        <time>2011-03-11T10:16:33Z</time>
      </trkpt>
      <trkpt lat="42.62452" lon="0.89099">
        <ele>2430.83</ele>
        <time>2011-03-11T10:16:45Z</time>
      </trkpt>
      <trkpt lat="42.6244" lon="0.89101">
        <ele>2430.83</ele>
        <time>2011-03-11T10:16:55Z</time>
      </trkpt>
      <trkpt lat="42.62435" lon="0.89103">
        <ele>2431.79</ele>
        <time>2011-03-11T10:16:59Z</time>
      </trkpt>
      <trkpt lat="42.62432" lon="0.89104">
        <ele>2432.27</ele>
        <time>2011-03-11T10:17:01Z</time>
      </trkpt>
      <trkpt lat="42.62419" lon="0.8911">
        <ele>2432.75</ele>
        <time>2011-03-11T10:17:12Z</time>
      </trkpt>
      <trkpt lat="42.62416" lon="0.89112">
        <ele>2433.23</ele>
        <time>2011-03-11T10:17:15Z</time>
      </trkpt>
      <trkpt lat="42.62414" lon="0.89114">
        <ele>2433.71</ele>
        <time>2011-03-11T10:17:17Z</time>
      </trkpt>
      <trkpt lat="42.6241" lon="0.89116">
        <ele>2433.71</ele>
        <time>2011-03-11T10:17:21Z</time>
      </trkpt>
      <trkpt lat="42.62407" lon="0.89119">
        <ele>2435.16</ele>
        <time>2011-03-11T10:17:23Z</time>
      </trkpt>
      <trkpt lat="42.62404" lon="0.8912">
        <ele>2435.16</ele>
        <time>2011-03-11T10:17:25Z</time>
      </trkpt>
      <trkpt lat="42.62392" lon="0.89125">
        <ele>2436.12</ele>
        <time>2011-03-11T10:17:35Z</time>
      </trkpt>
      <trkpt lat="42.62382" lon="0.89129">
        <ele>2437.56</ele>
        <time>2011-03-11T10:17:46Z</time>
      </trkpt>
      <trkpt lat="42.62377" lon="0.89131">
        <ele>2439.48</ele>
        <time>2011-03-11T10:17:54Z</time>
      </trkpt>
      <trkpt lat="42.62372" lon="0.89131">
        <ele>2441.89</ele>
        <time>2011-03-11T10:18:15Z</time>
      </trkpt>
      <trkpt lat="42.62371" lon="0.89131">
        <ele>2441.89</ele>
        <time>2011-03-11T10:18:16Z</time>
      </trkpt>
      <trkpt lat="42.62362" lon="0.8913">
        <ele>2444.29</ele>
        <time>2011-03-11T10:18:27Z</time>
      </trkpt>
      <trkpt lat="42.62361" lon="0.8913">
        <ele>2444.29</ele>
        <time>2011-03-11T10:18:28Z</time>
      </trkpt>
      <trkpt lat="42.62352" lon="0.89128">
        <ele>2445.73</ele>
        <time>2011-03-11T10:18:40Z</time>
      </trkpt>
      <trkpt lat="42.62349" lon="0.89126">
        <ele>2446.69</ele>
        <time>2011-03-11T10:18:44Z</time>
      </trkpt>
      <trkpt lat="42.62348" lon="0.89126">
        <ele>2448.62</ele>
        <time>2011-03-11T10:18:47Z</time>
      </trkpt>
      <trkpt lat="42.62342" lon="0.89124">
        <ele>2449.58</ele>
        <time>2011-03-11T10:19:04Z</time>
      </trkpt>
      <trkpt lat="42.62337" lon="0.89123">
        <ele>2450.54</ele>
        <time>2011-03-11T10:19:14Z</time>
      </trkpt>
      <trkpt lat="42.62334" lon="0.89122">
        <ele>2451.98</ele>
        <time>2011-03-11T10:19:28Z</time>
      </trkpt>
      <trkpt lat="42.62334" lon="0.89122">
        <ele>2451.02</ele>
        <time>2011-03-11T10:20:05Z</time>
      </trkpt>
      <trkpt lat="42.6233" lon="0.89122">
        <ele>2452.94</ele>
        <time>2011-03-11T10:20:31Z</time>
      </trkpt>
      <trkpt lat="42.62323" lon="0.89124">
        <ele>2455.34</ele>
        <time>2011-03-11T10:20:41Z</time>
      </trkpt>
      <trkpt lat="42.62321" lon="0.89124">
        <ele>2455.82</ele>
        <time>2011-03-11T10:20:44Z</time>
      </trkpt>
      <trkpt lat="42.62315" lon="0.89131">
        <ele>2457.75</ele>
        <time>2011-03-11T10:20:55Z</time>
      </trkpt>
      <trkpt lat="42.62309" lon="0.89142">
        <ele>2459.19</ele>
        <time>2011-03-11T10:21:08Z</time>
      </trkpt>
      <trkpt lat="42.62309" lon="0.89144">
        <ele>2460.15</ele>
        <time>2011-03-11T10:21:25Z</time>
      </trkpt>
      <trkpt lat="42.62308" lon="0.89143">
        <ele>2460.15</ele>
        <time>2011-03-11T10:21:37Z</time>
      </trkpt>
      <trkpt lat="42.62308" lon="0.89143">
        <ele>2459.67</ele>
        <time>2011-03-11T10:22:01Z</time>
      </trkpt>
      <trkpt lat="42.62308" lon="0.89143">
        <ele>2460.15</ele>
        <time>2011-03-11T10:23:14Z</time>
      </trkpt>
      <trkpt lat="42.62308" lon="0.89145">
        <ele>2459.67</ele>
        <time>2011-03-11T10:24:30Z</time>
      </trkpt>
      <trkpt lat="42.62304" lon="0.89151">
        <ele>2461.11</ele>
        <time>2011-03-11T10:24:39Z</time>
      </trkpt>
      <trkpt lat="42.62301" lon="0.89161">
        <ele>2462.07</ele>
        <time>2011-03-11T10:24:53Z</time>
      </trkpt>
      <trkpt lat="42.62297" lon="0.89172">
        <ele>2463.52</ele>
        <time>2011-03-11T10:25:05Z</time>
      </trkpt>
      <trkpt lat="42.62295" lon="0.89181">
        <ele>2466.4</ele>
        <time>2011-03-11T10:25:20Z</time>
      </trkpt>
      <trkpt lat="42.62293" lon="0.89191">
        <ele>2468.8</ele>
        <time>2011-03-11T10:25:34Z</time>
      </trkpt>
      <trkpt lat="42.62293" lon="0.89192">
        <ele>2468.8</ele>
        <time>2011-03-11T10:25:35Z</time>
      </trkpt>
      <trkpt lat="42.62293" lon="0.89204">
        <ele>2470.73</ele>
        <time>2011-03-11T10:25:46Z</time>
      </trkpt>
      <trkpt lat="42.6229" lon="0.89213">
        <ele>2472.65</ele>
        <time>2011-03-11T10:26:00Z</time>
      </trkpt>
      <trkpt lat="42.62286" lon="0.8922">
        <ele>2474.57</ele>
        <time>2011-03-11T10:26:14Z</time>
      </trkpt>
      <trkpt lat="42.62286" lon="0.89221">
        <ele>2475.05</ele>
        <time>2011-03-11T10:26:15Z</time>
      </trkpt>
      <trkpt lat="42.62282" lon="0.8923">
        <ele>2475.53</ele>
        <time>2011-03-11T10:26:28Z</time>
      </trkpt>
      <trkpt lat="42.62279" lon="0.89239">
        <ele>2476.97</ele>
        <time>2011-03-11T10:26:40Z</time>
      </trkpt>
      <trkpt lat="42.62276" lon="0.89247">
        <ele>2478.42</ele>
        <time>2011-03-11T10:26:51Z</time>
      </trkpt>
      <trkpt lat="42.62276" lon="0.89249">
        <ele>2479.38</ele>
        <time>2011-03-11T10:26:54Z</time>
      </trkpt>
      <trkpt lat="42.62273" lon="0.89256">
        <ele>2480.82</ele>
        <time>2011-03-11T10:27:06Z</time>
      </trkpt>
      <trkpt lat="42.62271" lon="0.89263">
        <ele>2481.78</ele>
        <time>2011-03-11T10:27:17Z</time>
      </trkpt>
      <trkpt lat="42.62269" lon="0.89271">
        <ele>2483.22</ele>
        <time>2011-03-11T10:27:28Z</time>
      </trkpt>
      <trkpt lat="42.62267" lon="0.89276">
        <ele>2484.66</ele>
        <time>2011-03-11T10:27:46Z</time>
      </trkpt>
      <trkpt lat="42.62264" lon="0.89284">
        <ele>2486.11</ele>
        <time>2011-03-11T10:27:59Z</time>
      </trkpt>
      <trkpt lat="42.62261" lon="0.89292">
        <ele>2487.07</ele>
        <time>2011-03-11T10:28:12Z</time>
      </trkpt>
      <trkpt lat="42.6226" lon="0.893">
        <ele>2488.51</ele>
        <time>2011-03-11T10:28:22Z</time>
      </trkpt>
      <trkpt lat="42.62258" lon="0.89307">
        <ele>2489.95</ele>
        <time>2011-03-11T10:28:35Z</time>
      </trkpt>
      <trkpt lat="42.62257" lon="0.89318">
        <ele>2491.39</ele>
        <time>2011-03-11T10:28:47Z</time>
      </trkpt>
      <trkpt lat="42.62256" lon="0.89327">
        <ele>2493.8</ele>
        <time>2011-03-11T10:29:00Z</time>
      </trkpt>
      <trkpt lat="42.62257" lon="0.89333">
        <ele>2494.28</ele>
        <time>2011-03-11T10:29:12Z</time>
      </trkpt>
      <trkpt lat="42.62257" lon="0.89339">
        <ele>2497.16</ele>
        <time>2011-03-11T10:29:21Z</time>
      </trkpt>
      <trkpt lat="42.6226" lon="0.89347">
        <ele>2497.64</ele>
        <time>2011-03-11T10:29:33Z</time>
      </trkpt>
      <trkpt lat="42.62262" lon="0.89351">
        <ele>2498.6</ele>
        <time>2011-03-11T10:29:41Z</time>
      </trkpt>
      <trkpt lat="42.62263" lon="0.8936">
        <ele>2501.01</ele>
        <time>2011-03-11T10:29:54Z</time>
      </trkpt>
      <trkpt lat="42.62264" lon="0.89371">
        <ele>2501.97</ele>
        <time>2011-03-11T10:30:05Z</time>
      </trkpt>
      <trkpt lat="42.62264" lon="0.89377">
        <ele>2503.89</ele>
        <time>2011-03-11T10:30:19Z</time>
      </trkpt>
      <trkpt lat="42.62266" lon="0.89386">
        <ele>2504.85</ele>
        <time>2011-03-11T10:30:31Z</time>
      </trkpt>
      <trkpt lat="42.62268" lon="0.89391">
        <ele>2506.77</ele>
        <time>2011-03-11T10:30:43Z</time>
      </trkpt>
      <trkpt lat="42.62266" lon="0.89395">
        <ele>2507.26</ele>
        <time>2011-03-11T10:30:54Z</time>
      </trkpt>
      <trkpt lat="42.6226" lon="0.89397">
        <ele>2510.14</ele>
        <time>2011-03-11T10:31:09Z</time>
      </trkpt>
      <trkpt lat="42.62255" lon="0.89397">
        <ele>2512.06</ele>
        <time>2011-03-11T10:31:21Z</time>
      </trkpt>
      <trkpt lat="42.62249" lon="0.89396">
        <ele>2513.5</ele>
        <time>2011-03-11T10:31:32Z</time>
      </trkpt>
      <trkpt lat="42.62242" lon="0.89397">
        <ele>2514.95</ele>
        <time>2011-03-11T10:31:44Z</time>
      </trkpt>
      <trkpt lat="42.62241" lon="0.89398">
        <ele>2515.91</ele>
        <time>2011-03-11T10:31:46Z</time>
      </trkpt>
      <trkpt lat="42.62236" lon="0.89404">
        <ele>2516.87</ele>
        <time>2011-03-11T10:31:57Z</time>
      </trkpt>
      <trkpt lat="42.62235" lon="0.89406">
        <ele>2517.83</ele>
        <time>2011-03-11T10:32:02Z</time>
      </trkpt>
      <trkpt lat="42.62234" lon="0.89413">
        <ele>2518.79</ele>
        <time>2011-03-11T10:32:14Z</time>
      </trkpt>
      <trkpt lat="42.62235" lon="0.89414">
        <ele>2519.27</ele>
        <time>2011-03-11T10:32:18Z</time>
      </trkpt>
      <trkpt lat="42.62236" lon="0.89423">
        <ele>2521.19</ele>
        <time>2011-03-11T10:32:26Z</time>
      </trkpt>
      <trkpt lat="42.62232" lon="0.89428">
        <ele>2522.16</ele>
        <time>2011-03-11T10:32:36Z</time>
      </trkpt>
      <trkpt lat="42.62226" lon="0.89432">
        <ele>2524.08</ele>
        <time>2011-03-11T10:32:49Z</time>
      </trkpt>
      <trkpt lat="42.6222" lon="0.89437">
        <ele>2525.04</ele>
        <time>2011-03-11T10:33:00Z</time>
      </trkpt>
      <trkpt lat="42.62217" lon="0.89438">
        <ele>2526.48</ele>
        <time>2011-03-11T10:33:12Z</time>
      </trkpt>
      <trkpt lat="42.6221" lon="0.89443">
        <ele>2528.4</ele>
        <time>2011-03-11T10:33:24Z</time>
      </trkpt>
      <trkpt lat="42.62208" lon="0.89445">
        <ele>2529.37</ele>
        <time>2011-03-11T10:33:28Z</time>
      </trkpt>
      <trkpt lat="42.62202" lon="0.89446">
        <ele>2530.81</ele>
        <time>2011-03-11T10:33:41Z</time>
      </trkpt>
      <trkpt lat="42.62197" lon="0.89447">
        <ele>2532.25</ele>
        <time>2011-03-11T10:33:51Z</time>
      </trkpt>
      <trkpt lat="42.62192" lon="0.89447">
        <ele>2533.69</ele>
        <time>2011-03-11T10:34:02Z</time>
      </trkpt>
      <trkpt lat="42.62186" lon="0.89445">
        <ele>2535.13</ele>
        <time>2011-03-11T10:34:14Z</time>
      </trkpt>
      <trkpt lat="42.62181" lon="0.89442">
        <ele>2536.58</ele>
        <time>2011-03-11T10:34:25Z</time>
      </trkpt>
      <trkpt lat="42.62176" lon="0.89438">
        <ele>2538.5</ele>
        <time>2011-03-11T10:34:36Z</time>
      </trkpt>
      <trkpt lat="42.62173" lon="0.89438">
        <ele>2540.42</ele>
        <time>2011-03-11T10:34:46Z</time>
      </trkpt>
      <trkpt lat="42.62168" lon="0.8945">
        <ele>2543.31</ele>
        <time>2011-03-11T10:35:02Z</time>
      </trkpt>
      <trkpt lat="42.62166" lon="0.8946">
        <ele>2545.23</ele>
        <time>2011-03-11T10:35:16Z</time>
      </trkpt>
      <trkpt lat="42.62165" lon="0.89469">
        <ele>2546.67</ele>
        <time>2011-03-11T10:35:30Z</time>
      </trkpt>
      <trkpt lat="42.62164" lon="0.89477">
        <ele>2549.07</ele>
        <time>2011-03-11T10:35:42Z</time>
      </trkpt>
      <trkpt lat="42.62164" lon="0.89478">
        <ele>2549.07</ele>
        <time>2011-03-11T10:35:43Z</time>
      </trkpt>
      <trkpt lat="42.62163" lon="0.89487">
        <ele>2550.51</ele>
        <time>2011-03-11T10:35:55Z</time>
      </trkpt>
      <trkpt lat="42.62162" lon="0.89494">
        <ele>2551.96</ele>
        <time>2011-03-11T10:36:04Z</time>
      </trkpt>
      <trkpt lat="42.62162" lon="0.89506">
        <ele>2553.4</ele>
        <time>2011-03-11T10:36:21Z</time>
      </trkpt>
      <trkpt lat="42.62162" lon="0.89508">
        <ele>2553.4</ele>
        <time>2011-03-11T10:36:24Z</time>
      </trkpt>
      <trkpt lat="42.62162" lon="0.89518">
        <ele>2556.28</ele>
        <time>2011-03-11T10:36:36Z</time>
      </trkpt>
      <trkpt lat="42.62163" lon="0.89528">
        <ele>2558.21</ele>
        <time>2011-03-11T10:36:50Z</time>
      </trkpt>
      <trkpt lat="42.62165" lon="0.89537">
        <ele>2560.61</ele>
        <time>2011-03-11T10:37:02Z</time>
      </trkpt>
      <trkpt lat="42.62169" lon="0.89544">
        <ele>2562.05</ele>
        <time>2011-03-11T10:37:15Z</time>
      </trkpt>
      <trkpt lat="42.62172" lon="0.89551">
        <ele>2563.97</ele>
        <time>2011-03-11T10:37:25Z</time>
      </trkpt>
      <trkpt lat="42.62169" lon="0.89557">
        <ele>2564.45</ele>
        <time>2011-03-11T10:37:32Z</time>
      </trkpt>
      <trkpt lat="42.62162" lon="0.89562">
        <ele>2564.45</ele>
        <time>2011-03-11T10:37:46Z</time>
      </trkpt>
      <trkpt lat="42.62162" lon="0.89562">
        <ele>2564.93</ele>
        <time>2011-03-11T10:38:06Z</time>
      </trkpt>
      <trkpt lat="42.62164" lon="0.89564">
        <ele>2564.45</ele>
        <time>2011-03-11T10:38:08Z</time>
      </trkpt>
      <trkpt lat="42.62171" lon="0.89564">
        <ele>2563.97</ele>
        <time>2011-03-11T10:38:15Z</time>
      </trkpt>
      <trkpt lat="42.62172" lon="0.8956">
        <ele>2564.93</ele>
        <time>2011-03-11T10:38:29Z</time>
      </trkpt>
      <trkpt lat="42.62171" lon="0.89559">
        <ele>2562.53</ele>
        <time>2011-03-11T10:38:34Z</time>
      </trkpt>
      <trkpt lat="42.62171" lon="0.89559">
        <ele>2562.05</ele>
        <time>2011-03-11T10:38:45Z</time>
      </trkpt>
      <trkpt lat="42.62173" lon="0.89561">
        <ele>2562.05</ele>
        <time>2011-03-11T10:38:56Z</time>
      </trkpt>
      <trkpt lat="42.62173" lon="0.89561">
        <ele>2565.9</ele>
        <time>2011-03-11T10:39:30Z</time>
      </trkpt>
      <trkpt lat="42.62173" lon="0.89561">
        <ele>2563.97</ele>
        <time>2011-03-11T10:39:33Z</time>
      </trkpt>
      <trkpt lat="42.62173" lon="0.89561">
        <ele>2555.8</ele>
        <time>2011-03-11T10:39:36Z</time>
      </trkpt>
      <trkpt lat="42.62173" lon="0.89561">
        <ele>2564.45</ele>
        <time>2011-03-11T10:39:37Z</time>
      </trkpt>
      <trkpt lat="42.62173" lon="0.89561">
        <ele>2560.61</ele>
        <time>2011-03-11T10:39:40Z</time>
      </trkpt>
      <trkpt lat="42.62173" lon="0.89561">
        <ele>2563.97</ele>
        <time>2011-03-11T10:39:41Z</time>
      </trkpt>
      <trkpt lat="42.62173" lon="0.89561">
        <ele>2560.61</ele>
        <time>2011-03-11T10:39:45Z</time>
      </trkpt>
      <trkpt lat="42.62173" lon="0.89561">
        <ele>2563.97</ele>
        <time>2011-03-11T10:39:47Z</time>
      </trkpt>
      <trkpt lat="42.62173" lon="0.89561">
        <ele>2558.21</ele>
        <time>2011-03-11T10:39:49Z</time>
      </trkpt>
      <trkpt lat="42.62173" lon="0.89561">
        <ele>2563.01</ele>
        <time>2011-03-11T10:39:50Z</time>
      </trkpt>
      <trkpt lat="42.62173" lon="0.89561">
        <ele>2563.97</ele>
        <time>2011-03-11T10:39:52Z</time>
      </trkpt>
      <trkpt lat="42.62173" lon="0.89561">
        <ele>2563.97</ele>
        <time>2011-03-11T10:39:57Z</time>
      </trkpt>
      <trkpt lat="42.62173" lon="0.89561">
        <ele>2562.05</ele>
        <time>2011-03-11T10:40:07Z</time>
      </trkpt>
      <trkpt lat="42.62173" lon="0.89561">
        <ele>2563.01</ele>
        <time>2011-03-11T10:40:09Z</time>
      </trkpt>
      <trkpt lat="42.62174" lon="0.89562">
        <ele>2563.01</ele>
        <time>2011-03-11T10:43:30Z</time>
      </trkpt>
      <trkpt lat="42.62173" lon="0.89562">
        <ele>2563.49</ele>
        <time>2011-03-11T10:44:30Z</time>
      </trkpt>
      <trkpt lat="42.62173" lon="0.89563">
        <ele>2561.57</ele>
        <time>2011-03-11T10:53:58Z</time>
      </trkpt>
      <trkpt lat="42.62174" lon="0.89563">
        <ele>2561.09</ele>
        <time>2011-03-11T10:55:01Z</time>
      </trkpt>
      <trkpt lat="42.62175" lon="0.89562">
        <ele>2563.97</ele>
        <time>2011-03-11T10:57:42Z</time>
      </trkpt>
      <trkpt lat="42.62174" lon="0.89562">
        <ele>2560.61</ele>
        <time>2011-03-11T10:58:40Z</time>
      </trkpt>
      <trkpt lat="42.62174" lon="0.89562">
        <ele>2564.45</ele>
        <time>2011-03-11T11:00:41Z</time>
      </trkpt>
      <trkpt lat="42.62174" lon="0.89562">
        <ele>2564.45</ele>
        <time>2011-03-11T11:00:42Z</time>
      </trkpt>
      <trkpt lat="42.62174" lon="0.89562">
        <ele>2562.53</ele>
        <time>2011-03-11T11:00:44Z</time>
      </trkpt>
      <trkpt lat="42.62174" lon="0.89562">
        <ele>2561.57</ele>
        <time>2011-03-11T11:00:52Z</time>
      </trkpt>
      <trkpt lat="42.62173" lon="0.89562">
        <ele>2564.45</ele>
        <time>2011-03-11T11:02:34Z</time>
      </trkpt>
      <trkpt lat="42.62173" lon="0.89562">
        <ele>2561.57</ele>
        <time>2011-03-11T11:03:21Z</time>
      </trkpt>
      <trkpt lat="42.62173" lon="0.89562">
        <ele>2558.21</ele>
        <time>2011-03-11T11:03:52Z</time>
      </trkpt>
      <trkpt lat="42.62173" lon="0.89562">
        <ele>2559.65</ele>
        <time>2011-03-11T11:04:03Z</time>
      </trkpt>
      <trkpt lat="42.62172" lon="0.89563">
        <ele>2559.65</ele>
        <time>2011-03-11T11:05:04Z</time>
      </trkpt>
      <trkpt lat="42.62173" lon="0.89563">
        <ele>2563.01</ele>
        <time>2011-03-11T11:06:12Z</time>
      </trkpt>
      <trkpt lat="42.62173" lon="0.89563">
        <ele>2559.65</ele>
        <time>2011-03-11T11:06:44Z</time>
      </trkpt>
      <trkpt lat="42.62172" lon="0.89562">
        <ele>2561.09</ele>
        <time>2011-03-11T11:09:47Z</time>
      </trkpt>
      <trkpt lat="42.62171" lon="0.89561">
        <ele>2561.09</ele>
        <time>2011-03-11T11:10:02Z</time>
      </trkpt>
      <trkpt lat="42.62171" lon="0.8956">
        <ele>2563.97</ele>
        <time>2011-03-11T11:10:14Z</time>
      </trkpt>
      <trkpt lat="42.62171" lon="0.89561">
        <ele>2561.09</ele>
        <time>2011-03-11T11:10:22Z</time>
      </trkpt>
      <trkpt lat="42.6217" lon="0.89562">
        <ele>2562.53</ele>
        <time>2011-03-11T11:10:36Z</time>
      </trkpt>
      <trkpt lat="42.6217" lon="0.89562">
        <ele>2563.49</ele>
        <time>2011-03-11T11:10:46Z</time>
      </trkpt>
      <trkpt lat="42.6217" lon="0.89562">
        <ele>2562.05</ele>
        <time>2011-03-11T11:10:53Z</time>
      </trkpt>
      <trkpt lat="42.6217" lon="0.89561">
        <ele>2562.05</ele>
        <time>2011-03-11T11:11:07Z</time>
      </trkpt>
      <trkpt lat="42.6217" lon="0.89561">
        <ele>2562.05</ele>
        <time>2011-03-11T11:11:10Z</time>
      </trkpt>
      <trkpt lat="42.62158" lon="0.89575">
        <ele>2558.69</ele>
        <time>2011-03-11T11:11:17Z</time>
      </trkpt>
      <trkpt lat="42.62157" lon="0.89575">
        <ele>2561.09</ele>
        <time>2011-03-11T11:11:20Z</time>
      </trkpt>
      <trkpt lat="42.62157" lon="0.89575">
        <ele>2561.09</ele>
        <time>2011-03-11T11:11:24Z</time>
      </trkpt>
      <trkpt lat="42.62153" lon="0.89579">
        <ele>2557.24</ele>
        <time>2011-03-11T11:11:27Z</time>
      </trkpt>
      <trkpt lat="42.62149" lon="0.89582">
        <ele>2556.76</ele>
        <time>2011-03-11T11:11:28Z</time>
      </trkpt>
      <trkpt lat="42.6214" lon="0.89587">
        <ele>2555.32</ele>
        <time>2011-03-11T11:11:30Z</time>
      </trkpt>
      <trkpt lat="42.6213" lon="0.8959">
        <ele>2554.84</ele>
        <time>2011-03-11T11:11:38Z</time>
      </trkpt>
      <trkpt lat="42.6213" lon="0.8959">
        <ele>2555.32</ele>
        <time>2011-03-11T11:11:41Z</time>
      </trkpt>
      <trkpt lat="42.62129" lon="0.89609">
        <ele>2549.07</ele>
        <time>2011-03-11T11:11:45Z</time>
      </trkpt>
      <trkpt lat="42.62123" lon="0.89623">
        <ele>2545.23</ele>
        <time>2011-03-11T11:11:48Z</time>
      </trkpt>
      <trkpt lat="42.62122" lon="0.89629">
        <ele>2541.86</ele>
        <time>2011-03-11T11:11:49Z</time>
      </trkpt>
      <trkpt lat="42.62123" lon="0.89634">
        <ele>2538.5</ele>
        <time>2011-03-11T11:11:50Z</time>
      </trkpt>
      <trkpt lat="42.62124" lon="0.89645">
        <ele>2534.17</ele>
        <time>2011-03-11T11:11:52Z</time>
      </trkpt>
      <trkpt lat="42.62125" lon="0.89659">
        <ele>2528.89</ele>
        <time>2011-03-11T11:11:54Z</time>
      </trkpt>
      <trkpt lat="42.62128" lon="0.89675">
        <ele>2525.52</ele>
        <time>2011-03-11T11:11:57Z</time>
      </trkpt>
      <trkpt lat="42.62125" lon="0.89675">
        <ele>2523.6</ele>
        <time>2011-03-11T11:11:59Z</time>
      </trkpt>
      <trkpt lat="42.62126" lon="0.89676">
        <ele>2522.16</ele>
        <time>2011-03-11T11:12:15Z</time>
      </trkpt>
      <trkpt lat="42.62126" lon="0.89676">
        <ele>2522.64</ele>
        <time>2011-03-11T11:12:17Z</time>
      </trkpt>
      <trkpt lat="42.62132" lon="0.89695">
        <ele>2520.23</ele>
        <time>2011-03-11T11:12:21Z</time>
      </trkpt>
      <trkpt lat="42.62147" lon="0.89712">
        <ele>2519.27</ele>
        <time>2011-03-11T11:12:25Z</time>
      </trkpt>
      <trkpt lat="42.6215" lon="0.89713">
        <ele>2518.79</ele>
        <time>2011-03-11T11:12:38Z</time>
      </trkpt>
      <trkpt lat="42.6215" lon="0.89713">
        <ele>2518.31</ele>
        <time>2011-03-11T11:13:08Z</time>
      </trkpt>
      <trkpt lat="42.62146" lon="0.89711">
        <ele>2519.27</ele>
        <time>2011-03-11T11:13:16Z</time>
      </trkpt>
      <trkpt lat="42.62145" lon="0.89711">
        <ele>2519.27</ele>
        <time>2011-03-11T11:13:23Z</time>
      </trkpt>
      <trkpt lat="42.62145" lon="0.89711">
        <ele>2518.79</ele>
        <time>2011-03-11T11:14:04Z</time>
      </trkpt>
      <trkpt lat="42.62144" lon="0.89711">
        <ele>2519.75</ele>
        <time>2011-03-11T11:14:35Z</time>
      </trkpt>
      <trkpt lat="42.62144" lon="0.89711">
        <ele>2518.31</ele>
        <time>2011-03-11T11:15:19Z</time>
      </trkpt>
      <trkpt lat="42.62145" lon="0.89711">
        <ele>2517.83</ele>
        <time>2011-03-11T11:15:20Z</time>
      </trkpt>
      <trkpt lat="42.62146" lon="0.89715">
        <ele>2517.35</ele>
        <time>2011-03-11T11:15:24Z</time>
      </trkpt>
      <trkpt lat="42.62156" lon="0.8972">
        <ele>2516.39</ele>
        <time>2011-03-11T11:15:28Z</time>
      </trkpt>
      <trkpt lat="42.62163" lon="0.89742">
        <ele>2510.62</ele>
        <time>2011-03-11T11:15:32Z</time>
      </trkpt>
      <trkpt lat="42.62168" lon="0.89755">
        <ele>2506.77</ele>
        <time>2011-03-11T11:15:34Z</time>
      </trkpt>
      <trkpt lat="42.6217" lon="0.89761">
        <ele>2505.81</ele>
        <time>2011-03-11T11:15:35Z</time>
      </trkpt>
      <trkpt lat="42.62175" lon="0.89779">
        <ele>2502.45</ele>
        <time>2011-03-11T11:15:38Z</time>
      </trkpt>
      <trkpt lat="42.62178" lon="0.89793">
        <ele>2499.08</ele>
        <time>2011-03-11T11:15:41Z</time>
      </trkpt>
      <trkpt lat="42.62177" lon="0.89811">
        <ele>2493.8</ele>
        <time>2011-03-11T11:15:44Z</time>
      </trkpt>
      <trkpt lat="42.62176" lon="0.89831">
        <ele>2490.43</ele>
        <time>2011-03-11T11:15:47Z</time>
      </trkpt>
      <trkpt lat="42.62174" lon="0.89844">
        <ele>2486.59</ele>
        <time>2011-03-11T11:15:49Z</time>
      </trkpt>
      <trkpt lat="42.62169" lon="0.89865">
        <ele>2483.22</ele>
        <time>2011-03-11T11:15:52Z</time>
      </trkpt>
      <trkpt lat="42.62159" lon="0.89895">
        <ele>2477.94</ele>
        <time>2011-03-11T11:15:58Z</time>
      </trkpt>
      <trkpt lat="42.62157" lon="0.89898">
        <ele>2477.94</ele>
        <time>2011-03-11T11:15:59Z</time>
      </trkpt>
      <trkpt lat="42.62148" lon="0.89936">
        <ele>2475.05</ele>
        <time>2011-03-11T11:16:10Z</time>
      </trkpt>
      <trkpt lat="42.62142" lon="0.89969">
        <ele>2472.17</ele>
        <time>2011-03-11T11:16:18Z</time>
      </trkpt>
      <trkpt lat="42.62137" lon="0.90024">
        <ele>2471.21</ele>
        <time>2011-03-11T11:16:28Z</time>
      </trkpt>
      <trkpt lat="42.62136" lon="0.90056">
        <ele>2472.17</ele>
        <time>2011-03-11T11:16:38Z</time>
      </trkpt>
      <trkpt lat="42.62138" lon="0.9008">
        <ele>2471.21</ele>
        <time>2011-03-11T11:16:48Z</time>
      </trkpt>
      <trkpt lat="42.62137" lon="0.90118">
        <ele>2472.17</ele>
        <time>2011-03-11T11:16:59Z</time>
      </trkpt>
      <trkpt lat="42.62137" lon="0.90125">
        <ele>2471.69</ele>
        <time>2011-03-11T11:17:02Z</time>
      </trkpt>
      <trkpt lat="42.6214" lon="0.90131">
        <ele>2471.69</ele>
        <time>2011-03-11T11:17:08Z</time>
      </trkpt>
      <trkpt lat="42.62141" lon="0.90132">
        <ele>2471.69</ele>
        <time>2011-03-11T11:17:25Z</time>
      </trkpt>
      <trkpt lat="42.62136" lon="0.90134">
        <ele>2470.24</ele>
        <time>2011-03-11T11:17:35Z</time>
      </trkpt>
      <trkpt lat="42.62136" lon="0.90134">
        <ele>2471.21</ele>
        <time>2011-03-11T11:18:17Z</time>
      </trkpt>
      <trkpt lat="42.62136" lon="0.90134">
        <ele>2472.65</ele>
        <time>2011-03-11T11:18:42Z</time>
      </trkpt>
      <trkpt lat="42.62136" lon="0.90134">
        <ele>2471.69</ele>
        <time>2011-03-11T11:18:50Z</time>
      </trkpt>
      <trkpt lat="42.62137" lon="0.90145">
        <ele>2468.8</ele>
        <time>2011-03-11T11:19:02Z</time>
      </trkpt>
      <trkpt lat="42.62141" lon="0.90149">
        <ele>2467.36</ele>
        <time>2011-03-11T11:19:05Z</time>
      </trkpt>
      <trkpt lat="42.62141" lon="0.9015">
        <ele>2467.36</ele>
        <time>2011-03-11T11:19:18Z</time>
      </trkpt>
      <trkpt lat="42.62137" lon="0.90158">
        <ele>2464.48</ele>
        <time>2011-03-11T11:19:25Z</time>
      </trkpt>
      <trkpt lat="42.62137" lon="0.90158">
        <ele>2464.48</ele>
        <time>2011-03-11T11:19:29Z</time>
      </trkpt>
      <trkpt lat="42.62138" lon="0.90174">
        <ele>2461.11</ele>
        <time>2011-03-11T11:19:33Z</time>
      </trkpt>
      <trkpt lat="42.62142" lon="0.90176">
        <ele>2457.75</ele>
        <time>2011-03-11T11:19:36Z</time>
      </trkpt>
      <trkpt lat="42.62142" lon="0.90175">
        <ele>2457.75</ele>
        <time>2011-03-11T11:19:49Z</time>
      </trkpt>
      <trkpt lat="42.62146" lon="0.90192">
        <ele>2454.86</ele>
        <time>2011-03-11T11:19:53Z</time>
      </trkpt>
      <trkpt lat="42.62146" lon="0.90204">
        <ele>2451.5</ele>
        <time>2011-03-11T11:19:55Z</time>
      </trkpt>
      <trkpt lat="42.62147" lon="0.9021">
        <ele>2450.06</ele>
        <time>2011-03-11T11:19:56Z</time>
      </trkpt>
      <trkpt lat="42.62156" lon="0.90233">
        <ele>2442.37</ele>
        <time>2011-03-11T11:20:00Z</time>
      </trkpt>
      <trkpt lat="42.62153" lon="0.90257">
        <ele>2439.48</ele>
        <time>2011-03-11T11:20:05Z</time>
      </trkpt>
      <trkpt lat="42.62152" lon="0.90258">
        <ele>2439.96</ele>
        <time>2011-03-11T11:20:17Z</time>
      </trkpt>
      <trkpt lat="42.62164" lon="0.90268">
        <ele>2435.16</ele>
        <time>2011-03-11T11:20:21Z</time>
      </trkpt>
      <trkpt lat="42.62166" lon="0.90272">
        <ele>2434.68</ele>
        <time>2011-03-11T11:20:22Z</time>
      </trkpt>
      <trkpt lat="42.62166" lon="0.90282">
        <ele>2430.83</ele>
        <time>2011-03-11T11:20:24Z</time>
      </trkpt>
      <trkpt lat="42.62168" lon="0.90293">
        <ele>2427.47</ele>
        <time>2011-03-11T11:20:26Z</time>
      </trkpt>
      <trkpt lat="42.62169" lon="0.90306">
        <ele>2422.66</ele>
        <time>2011-03-11T11:20:28Z</time>
      </trkpt>
      <trkpt lat="42.62171" lon="0.9032">
        <ele>2419.3</ele>
        <time>2011-03-11T11:20:30Z</time>
      </trkpt>
      <trkpt lat="42.62176" lon="0.90332">
        <ele>2417.37</ele>
        <time>2011-03-11T11:20:32Z</time>
      </trkpt>
      <trkpt lat="42.62187" lon="0.90349">
        <ele>2415.45</ele>
        <time>2011-03-11T11:20:36Z</time>
      </trkpt>
      <trkpt lat="42.62189" lon="0.90351">
        <ele>2416.41</ele>
        <time>2011-03-11T11:20:47Z</time>
      </trkpt>
      <trkpt lat="42.62177" lon="0.90361">
        <ele>2414.49</ele>
        <time>2011-03-11T11:20:51Z</time>
      </trkpt>
      <trkpt lat="42.62174" lon="0.90365">
        <ele>2411.12</ele>
        <time>2011-03-11T11:20:52Z</time>
      </trkpt>
      <trkpt lat="42.62171" lon="0.9037">
        <ele>2411.12</ele>
        <time>2011-03-11T11:20:53Z</time>
      </trkpt>
      <trkpt lat="42.62161" lon="0.90392">
        <ele>2407.28</ele>
        <time>2011-03-11T11:20:57Z</time>
      </trkpt>
      <trkpt lat="42.62159" lon="0.90397">
        <ele>2406.8</ele>
        <time>2011-03-11T11:20:58Z</time>
      </trkpt>
      <trkpt lat="42.62155" lon="0.90404">
        <ele>2406.32</ele>
        <time>2011-03-11T11:21:00Z</time>
      </trkpt>
      <trkpt lat="42.62146" lon="0.90418">
        <ele>2403.43</ele>
        <time>2011-03-11T11:21:06Z</time>
      </trkpt>
      <trkpt lat="42.62145" lon="0.90418">
        <ele>2402.95</ele>
        <time>2011-03-11T11:21:25Z</time>
      </trkpt>
      <trkpt lat="42.62144" lon="0.90418">
        <ele>2404.39</ele>
        <time>2011-03-11T11:21:27Z</time>
      </trkpt>
      <trkpt lat="42.62137" lon="0.90428">
        <ele>2400.07</ele>
        <time>2011-03-11T11:21:33Z</time>
      </trkpt>
      <trkpt lat="42.62137" lon="0.90428">
        <ele>2399.59</ele>
        <time>2011-03-11T11:21:36Z</time>
      </trkpt>
      <trkpt lat="42.62142" lon="0.90439">
        <ele>2394.78</ele>
        <time>2011-03-11T11:21:40Z</time>
      </trkpt>
      <trkpt lat="42.62142" lon="0.90444">
        <ele>2393.82</ele>
        <time>2011-03-11T11:21:41Z</time>
      </trkpt>
      <trkpt lat="42.62141" lon="0.9047">
        <ele>2384.21</ele>
        <time>2011-03-11T11:21:45Z</time>
      </trkpt>
      <trkpt lat="42.62141" lon="0.90481">
        <ele>2378.44</ele>
        <time>2011-03-11T11:21:47Z</time>
      </trkpt>
      <trkpt lat="42.62142" lon="0.90493">
        <ele>2373.15</ele>
        <time>2011-03-11T11:21:49Z</time>
      </trkpt>
      <trkpt lat="42.62141" lon="0.90504">
        <ele>2367.38</ele>
        <time>2011-03-11T11:21:51Z</time>
      </trkpt>
      <trkpt lat="42.6214" lon="0.90516">
        <ele>2364.5</ele>
        <time>2011-03-11T11:21:53Z</time>
      </trkpt>
      <trkpt lat="42.62137" lon="0.90521">
        <ele>2361.14</ele>
        <time>2011-03-11T11:21:54Z</time>
      </trkpt>
      <trkpt lat="42.62133" lon="0.90531">
        <ele>2356.33</ele>
        <time>2011-03-11T11:21:56Z</time>
      </trkpt>
      <trkpt lat="42.62128" lon="0.90543">
        <ele>2353.44</ele>
        <time>2011-03-11T11:21:58Z</time>
      </trkpt>
      <trkpt lat="42.62128" lon="0.90553">
        <ele>2350.08</ele>
        <time>2011-03-11T11:22:00Z</time>
      </trkpt>
      <trkpt lat="42.62131" lon="0.90564">
        <ele>2345.75</ele>
        <time>2011-03-11T11:22:02Z</time>
      </trkpt>
      <trkpt lat="42.62127" lon="0.90576">
        <ele>2340.95</ele>
        <time>2011-03-11T11:22:04Z</time>
      </trkpt>
      <trkpt lat="42.62121" lon="0.906">
        <ele>2333.74</ele>
        <time>2011-03-11T11:22:08Z</time>
      </trkpt>
      <trkpt lat="42.6212" lon="0.90613">
        <ele>2328.45</ele>
        <time>2011-03-11T11:22:10Z</time>
      </trkpt>
      <trkpt lat="42.62123" lon="0.90629">
        <ele>2325.09</ele>
        <time>2011-03-11T11:22:13Z</time>
      </trkpt>
      <trkpt lat="42.62123" lon="0.90632">
        <ele>2323.64</ele>
        <time>2011-03-11T11:22:20Z</time>
      </trkpt>
      <trkpt lat="42.62123" lon="0.90632">
        <ele>2324.12</ele>
        <time>2011-03-11T11:22:39Z</time>
      </trkpt>
      <trkpt lat="42.62123" lon="0.90632">
        <ele>2325.09</ele>
        <time>2011-03-11T11:23:03Z</time>
      </trkpt>
      <trkpt lat="42.62123" lon="0.90632">
        <ele>2325.09</ele>
        <time>2011-03-11T11:23:33Z</time>
      </trkpt>
      <trkpt lat="42.62123" lon="0.90632">
        <ele>2325.09</ele>
        <time>2011-03-11T11:23:38Z</time>
      </trkpt>
      <trkpt lat="42.62123" lon="0.9063">
        <ele>2323.64</ele>
        <time>2011-03-11T11:23:50Z</time>
      </trkpt>
      <trkpt lat="42.62123" lon="0.9063">
        <ele>2324.12</ele>
        <time>2011-03-11T11:24:11Z</time>
      </trkpt>
      <trkpt lat="42.62122" lon="0.90631">
        <ele>2324.61</ele>
        <time>2011-03-11T11:24:17Z</time>
      </trkpt>
      <trkpt lat="42.62102" lon="0.90617">
        <ele>2322.2</ele>
        <time>2011-03-11T11:24:24Z</time>
      </trkpt>
      <trkpt lat="42.6209" lon="0.90599">
        <ele>2322.2</ele>
        <time>2011-03-11T11:24:32Z</time>
      </trkpt>
      <trkpt lat="42.62076" lon="0.90592">
        <ele>2321.24</ele>
        <time>2011-03-11T11:24:39Z</time>
      </trkpt>
      <trkpt lat="42.62045" lon="0.90592">
        <ele>2316.91</ele>
        <time>2011-03-11T11:24:44Z</time>
      </trkpt>
      <trkpt lat="42.62018" lon="0.90601">
        <ele>2311.63</ele>
        <time>2011-03-11T11:24:48Z</time>
      </trkpt>
      <trkpt lat="42.62007" lon="0.90603">
        <ele>2308.26</ele>
        <time>2011-03-11T11:24:50Z</time>
      </trkpt>
      <trkpt lat="42.61991" lon="0.90609">
        <ele>2306.34</ele>
        <time>2011-03-11T11:24:54Z</time>
      </trkpt>
      <trkpt lat="42.61971" lon="0.90616">
        <ele>2305.38</ele>
        <time>2011-03-11T11:25:07Z</time>
      </trkpt>
      <trkpt lat="42.61971" lon="0.90616">
        <ele>2305.86</ele>
        <time>2011-03-11T11:25:08Z</time>
      </trkpt>
      <trkpt lat="42.61971" lon="0.90615">
        <ele>2304.9</ele>
        <time>2011-03-11T11:25:12Z</time>
      </trkpt>
      <trkpt lat="42.61971" lon="0.90615">
        <ele>2304.42</ele>
        <time>2011-03-11T11:25:14Z</time>
      </trkpt>
      <trkpt lat="42.61971" lon="0.90615">
        <ele>2302.01</ele>
        <time>2011-03-11T11:25:19Z</time>
      </trkpt>
      <trkpt lat="42.61971" lon="0.90615">
        <ele>2306.82</ele>
        <time>2011-03-11T11:25:32Z</time>
      </trkpt>
      <trkpt lat="42.61971" lon="0.90615">
        <ele>2293.36</ele>
        <time>2011-03-11T11:25:33Z</time>
      </trkpt>
      <trkpt lat="42.61971" lon="0.90615">
        <ele>2302.49</ele>
        <time>2011-03-11T11:25:34Z</time>
      </trkpt>
      <trkpt lat="42.61971" lon="0.90613">
        <ele>2304.9</ele>
        <time>2011-03-11T11:31:06Z</time>
      </trkpt>
      <trkpt lat="42.61971" lon="0.90615">
        <ele>2304.9</ele>
        <time>2011-03-11T11:31:36Z</time>
      </trkpt>
      <trkpt lat="42.61972" lon="0.90616">
        <ele>2305.38</ele>
        <time>2011-03-11T11:31:49Z</time>
      </trkpt>
      <trkpt lat="42.61971" lon="0.90615">
        <ele>2305.38</ele>
        <time>2011-03-11T11:32:04Z</time>
      </trkpt>
      <trkpt lat="42.61972" lon="0.90615">
        <ele>2305.38</ele>
        <time>2011-03-11T11:32:18Z</time>
      </trkpt>
      <trkpt lat="42.61971" lon="0.90617">
        <ele>2305.38</ele>
        <time>2011-03-11T11:33:55Z</time>
      </trkpt>
      <trkpt lat="42.61972" lon="0.90612">
        <ele>2307.78</ele>
        <time>2011-03-11T11:34:05Z</time>
      </trkpt>
      <trkpt lat="42.61973" lon="0.90611">
        <ele>2308.74</ele>
        <time>2011-03-11T11:34:18Z</time>
      </trkpt>
      <trkpt lat="42.61974" lon="0.90606">
        <ele>2310.19</ele>
        <time>2011-03-11T11:34:39Z</time>
      </trkpt>
      <trkpt lat="42.61975" lon="0.906">
        <ele>2311.63</ele>
        <time>2011-03-11T11:34:54Z</time>
      </trkpt>
      <trkpt lat="42.61975" lon="0.906">
        <ele>2310.67</ele>
        <time>2011-03-11T11:35:23Z</time>
      </trkpt>
      <trkpt lat="42.61975" lon="0.906">
        <ele>2310.67</ele>
        <time>2011-03-11T11:35:31Z</time>
      </trkpt>
      <trkpt lat="42.61974" lon="0.90596">
        <ele>2312.59</ele>
        <time>2011-03-11T11:35:41Z</time>
      </trkpt>
      <trkpt lat="42.6197" lon="0.90593">
        <ele>2314.99</ele>
        <time>2011-03-11T11:35:56Z</time>
      </trkpt>
      <trkpt lat="42.61967" lon="0.90592">
        <ele>2316.91</ele>
        <time>2011-03-11T11:36:04Z</time>
      </trkpt>
      <trkpt lat="42.61957" lon="0.90588">
        <ele>2318.84</ele>
        <time>2011-03-11T11:36:17Z</time>
      </trkpt>
      <trkpt lat="42.61952" lon="0.90583">
        <ele>2322.2</ele>
        <time>2011-03-11T11:36:28Z</time>
      </trkpt>
      <trkpt lat="42.61951" lon="0.90583">
        <ele>2321.72</ele>
        <time>2011-03-11T11:36:31Z</time>
      </trkpt>
      <trkpt lat="42.61953" lon="0.90575">
        <ele>2324.12</ele>
        <time>2011-03-11T11:36:42Z</time>
      </trkpt>
      <trkpt lat="42.61953" lon="0.90574">
        <ele>2325.09</ele>
        <time>2011-03-11T11:36:44Z</time>
      </trkpt>
      <trkpt lat="42.61955" lon="0.90566">
        <ele>2327.01</ele>
        <time>2011-03-11T11:36:56Z</time>
      </trkpt>
      <trkpt lat="42.61954" lon="0.90564">
        <ele>2327.49</ele>
        <time>2011-03-11T11:37:06Z</time>
      </trkpt>
      <trkpt lat="42.61947" lon="0.90561">
        <ele>2328.93</ele>
        <time>2011-03-11T11:37:19Z</time>
      </trkpt>
      <trkpt lat="42.61941" lon="0.90557">
        <ele>2331.33</ele>
        <time>2011-03-11T11:37:32Z</time>
      </trkpt>
      <trkpt lat="42.61941" lon="0.90556">
        <ele>2331.33</ele>
        <time>2011-03-11T11:37:34Z</time>
      </trkpt>
      <trkpt lat="42.61935" lon="0.90553">
        <ele>2333.26</ele>
        <time>2011-03-11T11:37:45Z</time>
      </trkpt>
      <trkpt lat="42.61929" lon="0.90549">
        <ele>2334.7</ele>
        <time>2011-03-11T11:37:57Z</time>
      </trkpt>
      <trkpt lat="42.61926" lon="0.90546">
        <ele>2337.1</ele>
        <time>2011-03-11T11:38:07Z</time>
      </trkpt>
      <trkpt lat="42.61921" lon="0.90543">
        <ele>2338.54</ele>
        <time>2011-03-11T11:38:14Z</time>
      </trkpt>
      <trkpt lat="42.61916" lon="0.90541">
        <ele>2339.99</ele>
        <time>2011-03-11T11:38:26Z</time>
      </trkpt>
      <trkpt lat="42.61914" lon="0.9054">
        <ele>2340.95</ele>
        <time>2011-03-11T11:38:28Z</time>
      </trkpt>
      <trkpt lat="42.6191" lon="0.90537">
        <ele>2342.39</ele>
        <time>2011-03-11T11:38:40Z</time>
      </trkpt>
      <trkpt lat="42.61911" lon="0.90533">
        <ele>2344.79</ele>
        <time>2011-03-11T11:38:51Z</time>
      </trkpt>
      <trkpt lat="42.61911" lon="0.9053">
        <ele>2345.75</ele>
        <time>2011-03-11T11:38:55Z</time>
      </trkpt>
      <trkpt lat="42.61914" lon="0.90525">
        <ele>2347.68</ele>
        <time>2011-03-11T11:39:06Z</time>
      </trkpt>
      <trkpt lat="42.61914" lon="0.90523">
        <ele>2348.16</ele>
        <time>2011-03-11T11:39:16Z</time>
      </trkpt>
      <trkpt lat="42.61911" lon="0.90519">
        <ele>2349.12</ele>
        <time>2011-03-11T11:39:26Z</time>
      </trkpt>
      <trkpt lat="42.61906" lon="0.90518">
        <ele>2351.04</ele>
        <time>2011-03-11T11:39:37Z</time>
      </trkpt>
      <trkpt lat="42.61906" lon="0.90515">
        <ele>2352</ele>
        <time>2011-03-11T11:39:45Z</time>
      </trkpt>
      <trkpt lat="42.61907" lon="0.90514">
        <ele>2352.48</ele>
        <time>2011-03-11T11:39:47Z</time>
      </trkpt>
      <trkpt lat="42.61911" lon="0.9051">
        <ele>2353.44</ele>
        <time>2011-03-11T11:39:57Z</time>
      </trkpt>
      <trkpt lat="42.61915" lon="0.90507">
        <ele>2354.89</ele>
        <time>2011-03-11T11:40:07Z</time>
      </trkpt>
      <trkpt lat="42.61915" lon="0.90506">
        <ele>2357.29</ele>
        <time>2011-03-11T11:40:11Z</time>
      </trkpt>
      <trkpt lat="42.6192" lon="0.905">
        <ele>2357.77</ele>
        <time>2011-03-11T11:40:22Z</time>
      </trkpt>
      <trkpt lat="42.61922" lon="0.90496">
        <ele>2360.65</ele>
        <time>2011-03-11T11:40:34Z</time>
      </trkpt>
      <trkpt lat="42.61927" lon="0.9049">
        <ele>2363.54</ele>
        <time>2011-03-11T11:40:47Z</time>
      </trkpt>
      <trkpt lat="42.61931" lon="0.90485">
        <ele>2365.94</ele>
        <time>2011-03-11T11:40:59Z</time>
      </trkpt>
      <trkpt lat="42.61933" lon="0.90479">
        <ele>2366.9</ele>
        <time>2011-03-11T11:41:09Z</time>
      </trkpt>
      <trkpt lat="42.61933" lon="0.90477">
        <ele>2367.38</ele>
        <time>2011-03-11T11:41:19Z</time>
      </trkpt>
      <trkpt lat="42.61932" lon="0.90476">
        <ele>2367.86</ele>
        <time>2011-03-11T11:41:42Z</time>
      </trkpt>
      <trkpt lat="42.61927" lon="0.90471">
        <ele>2369.79</ele>
        <time>2011-03-11T11:41:52Z</time>
      </trkpt>
      <trkpt lat="42.61923" lon="0.90468">
        <ele>2372.19</ele>
        <time>2011-03-11T11:42:05Z</time>
      </trkpt>
      <trkpt lat="42.61918" lon="0.90465">
        <ele>2374.11</ele>
        <time>2011-03-11T11:42:15Z</time>
      </trkpt>
      <trkpt lat="42.61908" lon="0.90463">
        <ele>2376.52</ele>
        <time>2011-03-11T11:42:25Z</time>
      </trkpt>
      <trkpt lat="42.61908" lon="0.90462">
        <ele>2377</ele>
        <time>2011-03-11T11:42:26Z</time>
      </trkpt>
      <trkpt lat="42.619" lon="0.9046">
        <ele>2378.92</ele>
        <time>2011-03-11T11:42:39Z</time>
      </trkpt>
      <trkpt lat="42.61896" lon="0.90459">
        <ele>2381.32</ele>
        <time>2011-03-11T11:42:52Z</time>
      </trkpt>
      <trkpt lat="42.61892" lon="0.90458">
        <ele>2382.28</ele>
        <time>2011-03-11T11:42:58Z</time>
      </trkpt>
      <trkpt lat="42.61883" lon="0.9046">
        <ele>2384.69</ele>
        <time>2011-03-11T11:43:08Z</time>
      </trkpt>
      <trkpt lat="42.61876" lon="0.90462">
        <ele>2385.65</ele>
        <time>2011-03-11T11:43:17Z</time>
      </trkpt>
      <trkpt lat="42.61873" lon="0.90462">
        <ele>2389.01</ele>
        <time>2011-03-11T11:43:27Z</time>
      </trkpt>
      <trkpt lat="42.6187" lon="0.90462">
        <ele>2390.94</ele>
        <time>2011-03-11T11:43:33Z</time>
      </trkpt>
      <trkpt lat="42.61867" lon="0.90461">
        <ele>2392.86</ele>
        <time>2011-03-11T11:43:36Z</time>
      </trkpt>
      <trkpt lat="42.61866" lon="0.90459">
        <ele>2391.42</ele>
        <time>2011-03-11T11:43:38Z</time>
      </trkpt>
      <trkpt lat="42.6186" lon="0.90457">
        <ele>2391.9</ele>
        <time>2011-03-11T11:43:50Z</time>
      </trkpt>
      <trkpt lat="42.61853" lon="0.90453">
        <ele>2392.86</ele>
        <time>2011-03-11T11:44:03Z</time>
      </trkpt>
      <trkpt lat="42.61849" lon="0.90448">
        <ele>2395.26</ele>
        <time>2011-03-11T11:44:15Z</time>
      </trkpt>
      <trkpt lat="42.61845" lon="0.90444">
        <ele>2396.22</ele>
        <time>2011-03-11T11:44:27Z</time>
      </trkpt>
      <trkpt lat="42.6184" lon="0.90439">
        <ele>2397.67</ele>
        <time>2011-03-11T11:44:43Z</time>
      </trkpt>
      <trkpt lat="42.61839" lon="0.90438">
        <ele>2397.18</ele>
        <time>2011-03-11T11:44:44Z</time>
      </trkpt>
      <trkpt lat="42.61831" lon="0.90431">
        <ele>2398.63</ele>
        <time>2011-03-11T11:44:54Z</time>
      </trkpt>
      <trkpt lat="42.61821" lon="0.90425">
        <ele>2400.55</ele>
        <time>2011-03-11T11:45:09Z</time>
      </trkpt>
      <trkpt lat="42.61819" lon="0.90424">
        <ele>2401.51</ele>
        <time>2011-03-11T11:45:26Z</time>
      </trkpt>
      <trkpt lat="42.61819" lon="0.90425">
        <ele>2401.99</ele>
        <time>2011-03-11T11:46:30Z</time>
      </trkpt>
      <trkpt lat="42.61819" lon="0.90424">
        <ele>2401.03</ele>
        <time>2011-03-11T11:46:36Z</time>
      </trkpt>
      <trkpt lat="42.6182" lon="0.90424">
        <ele>2400.55</ele>
        <time>2011-03-11T11:46:48Z</time>
      </trkpt>
      <trkpt lat="42.61819" lon="0.90423">
        <ele>2401.03</ele>
        <time>2011-03-11T11:47:12Z</time>
      </trkpt>
      <trkpt lat="42.61819" lon="0.90423">
        <ele>2401.99</ele>
        <time>2011-03-11T11:48:21Z</time>
      </trkpt>
      <trkpt lat="42.61819" lon="0.90423">
        <ele>2402.47</ele>
        <time>2011-03-11T11:49:10Z</time>
      </trkpt>
      <trkpt lat="42.61817" lon="0.90421">
        <ele>2401.51</ele>
        <time>2011-03-11T11:49:13Z</time>
      </trkpt>
      <trkpt lat="42.61809" lon="0.90413">
        <ele>2403.43</ele>
        <time>2011-03-11T11:49:23Z</time>
      </trkpt>
      <trkpt lat="42.61801" lon="0.90399">
        <ele>2404.88</ele>
        <time>2011-03-11T11:49:36Z</time>
      </trkpt>
      <trkpt lat="42.61799" lon="0.90391">
        <ele>2405.36</ele>
        <time>2011-03-11T11:49:44Z</time>
      </trkpt>
      <trkpt lat="42.61791" lon="0.90381">
        <ele>2405.84</ele>
        <time>2011-03-11T11:49:54Z</time>
      </trkpt>
      <trkpt lat="42.6179" lon="0.90379">
        <ele>2404.88</ele>
        <time>2011-03-11T11:49:56Z</time>
      </trkpt>
      <trkpt lat="42.61781" lon="0.90372">
        <ele>2406.32</ele>
        <time>2011-03-11T11:50:09Z</time>
      </trkpt>
      <trkpt lat="42.61771" lon="0.9037">
        <ele>2408.24</ele>
        <time>2011-03-11T11:50:22Z</time>
      </trkpt>
      <trkpt lat="42.61754" lon="0.90367">
        <ele>2408.72</ele>
        <time>2011-03-11T11:50:34Z</time>
      </trkpt>
      <trkpt lat="42.61745" lon="0.9036">
        <ele>2408.72</ele>
        <time>2011-03-11T11:50:46Z</time>
      </trkpt>
      <trkpt lat="42.6174" lon="0.90353">
        <ele>2411.12</ele>
        <time>2011-03-11T11:50:57Z</time>
      </trkpt>
      <trkpt lat="42.61737" lon="0.90348">
        <ele>2410.16</ele>
        <time>2011-03-11T11:51:02Z</time>
      </trkpt>
      <trkpt lat="42.61727" lon="0.90336">
        <ele>2410.16</ele>
        <time>2011-03-11T11:51:16Z</time>
      </trkpt>
      <trkpt lat="42.61718" lon="0.90329">
        <ele>2410.16</ele>
        <time>2011-03-11T11:51:29Z</time>
      </trkpt>
      <trkpt lat="42.61717" lon="0.90328">
        <ele>2412.09</ele>
        <time>2011-03-11T11:51:52Z</time>
      </trkpt>
      <trkpt lat="42.61709" lon="0.90322">
        <ele>2414.49</ele>
        <time>2011-03-11T11:52:04Z</time>
      </trkpt>
      <trkpt lat="42.61707" lon="0.90321">
        <ele>2414.01</ele>
        <time>2011-03-11T11:52:07Z</time>
      </trkpt>
      <trkpt lat="42.61697" lon="0.90315">
        <ele>2415.93</ele>
        <time>2011-03-11T11:52:20Z</time>
      </trkpt>
      <trkpt lat="42.61691" lon="0.90309">
        <ele>2416.41</ele>
        <time>2011-03-11T11:52:30Z</time>
      </trkpt>
      <trkpt lat="42.6168" lon="0.90301">
        <ele>2417.85</ele>
        <time>2011-03-11T11:52:44Z</time>
      </trkpt>
      <trkpt lat="42.61675" lon="0.90297">
        <ele>2418.81</ele>
        <time>2011-03-11T11:52:53Z</time>
      </trkpt>
      <trkpt lat="42.61673" lon="0.90296">
        <ele>2419.3</ele>
        <time>2011-03-11T11:52:55Z</time>
      </trkpt>
      <trkpt lat="42.61671" lon="0.90294">
        <ele>2420.26</ele>
        <time>2011-03-11T11:53:08Z</time>
      </trkpt>
      <trkpt lat="42.61666" lon="0.90287">
        <ele>2423.14</ele>
        <time>2011-03-11T11:53:21Z</time>
      </trkpt>
      <trkpt lat="42.61657" lon="0.90282">
        <ele>2425.54</ele>
        <time>2011-03-11T11:53:31Z</time>
      </trkpt>
      <trkpt lat="42.61659" lon="0.90279">
        <ele>2427.95</ele>
        <time>2011-03-11T11:53:41Z</time>
      </trkpt>
      <trkpt lat="42.6166" lon="0.90276">
        <ele>2427.95</ele>
        <time>2011-03-11T11:53:43Z</time>
      </trkpt>
      <trkpt lat="42.6166" lon="0.9027">
        <ele>2430.35</ele>
        <time>2011-03-11T11:53:54Z</time>
      </trkpt>
      <trkpt lat="42.61662" lon="0.90264">
        <ele>2431.79</ele>
        <time>2011-03-11T11:53:59Z</time>
      </trkpt>
      <trkpt lat="42.61662" lon="0.90257">
        <ele>2433.71</ele>
        <time>2011-03-11T11:54:09Z</time>
      </trkpt>
      <trkpt lat="42.61658" lon="0.9025">
        <ele>2435.64</ele>
        <time>2011-03-11T11:54:22Z</time>
      </trkpt>
      <trkpt lat="42.61655" lon="0.90246">
        <ele>2439</ele>
        <time>2011-03-11T11:54:32Z</time>
      </trkpt>
      <trkpt lat="42.61655" lon="0.90245">
        <ele>2439</ele>
        <time>2011-03-11T11:54:33Z</time>
      </trkpt>
      <trkpt lat="42.61651" lon="0.90241">
        <ele>2440.92</ele>
        <time>2011-03-11T11:54:45Z</time>
      </trkpt>
      <trkpt lat="42.61647" lon="0.90234">
        <ele>2442.85</ele>
        <time>2011-03-11T11:54:58Z</time>
      </trkpt>
      <trkpt lat="42.61645" lon="0.90232">
        <ele>2443.81</ele>
        <time>2011-03-11T11:55:03Z</time>
      </trkpt>
      <trkpt lat="42.61643" lon="0.90229">
        <ele>2444.29</ele>
        <time>2011-03-11T11:55:08Z</time>
      </trkpt>
      <trkpt lat="42.61634" lon="0.90218">
        <ele>2445.25</ele>
        <time>2011-03-11T11:55:23Z</time>
      </trkpt>
      <trkpt lat="42.61631" lon="0.90212">
        <ele>2448.13</ele>
        <time>2011-03-11T11:55:36Z</time>
      </trkpt>
      <trkpt lat="42.61629" lon="0.90206">
        <ele>2451.02</ele>
        <time>2011-03-11T11:55:47Z</time>
      </trkpt>
      <trkpt lat="42.61627" lon="0.902">
        <ele>2451.98</ele>
        <time>2011-03-11T11:55:59Z</time>
      </trkpt>
      <trkpt lat="42.61625" lon="0.90195">
        <ele>2454.38</ele>
        <time>2011-03-11T11:56:10Z</time>
      </trkpt>
      <trkpt lat="42.6162" lon="0.9019">
        <ele>2455.82</ele>
        <time>2011-03-11T11:56:23Z</time>
      </trkpt>
      <trkpt lat="42.61613" lon="0.90185">
        <ele>2457.75</ele>
        <time>2011-03-11T11:56:37Z</time>
      </trkpt>
      <trkpt lat="42.61612" lon="0.90184">
        <ele>2458.71</ele>
        <time>2011-03-11T11:56:39Z</time>
      </trkpt>
      <trkpt lat="42.61607" lon="0.9018">
        <ele>2460.63</ele>
        <time>2011-03-11T11:56:50Z</time>
      </trkpt>
      <trkpt lat="42.61605" lon="0.90178">
        <ele>2462.55</ele>
        <time>2011-03-11T11:56:58Z</time>
      </trkpt>
      <trkpt lat="42.616" lon="0.90172">
        <ele>2464.48</ele>
        <time>2011-03-11T11:57:11Z</time>
      </trkpt>
      <trkpt lat="42.61595" lon="0.90165">
        <ele>2465.92</ele>
        <time>2011-03-11T11:57:24Z</time>
      </trkpt>
      <trkpt lat="42.61587" lon="0.90157">
        <ele>2466.88</ele>
        <time>2011-03-11T11:57:39Z</time>
      </trkpt>
      <trkpt lat="42.61586" lon="0.90156">
        <ele>2467.84</ele>
        <time>2011-03-11T11:58:06Z</time>
      </trkpt>
      <trkpt lat="42.61586" lon="0.90157">
        <ele>2467.36</ele>
        <time>2011-03-11T11:58:51Z</time>
      </trkpt>
      <trkpt lat="42.61581" lon="0.9015">
        <ele>2466.88</ele>
        <time>2011-03-11T12:01:10Z</time>
      </trkpt>
      <trkpt lat="42.61579" lon="0.90146">
        <ele>2466.88</ele>
        <time>2011-03-11T12:01:14Z</time>
      </trkpt>
      <trkpt lat="42.61572" lon="0.90136">
        <ele>2469.76</ele>
        <time>2011-03-11T12:01:29Z</time>
      </trkpt>
      <trkpt lat="42.61569" lon="0.90129">
        <ele>2471.69</ele>
        <time>2011-03-11T12:01:42Z</time>
      </trkpt>
      <trkpt lat="42.61567" lon="0.90116">
        <ele>2473.61</ele>
        <time>2011-03-11T12:01:55Z</time>
      </trkpt>
      <trkpt lat="42.61567" lon="0.9011">
        <ele>2475.53</ele>
        <time>2011-03-11T12:02:07Z</time>
      </trkpt>
      <trkpt lat="42.61563" lon="0.90104">
        <ele>2476.97</ele>
        <time>2011-03-11T12:02:19Z</time>
      </trkpt>
      <trkpt lat="42.6156" lon="0.90098">
        <ele>2479.86</ele>
        <time>2011-03-11T12:02:30Z</time>
      </trkpt>
      <trkpt lat="42.61559" lon="0.90098">
        <ele>2479.86</ele>
        <time>2011-03-11T12:02:31Z</time>
      </trkpt>
      <trkpt lat="42.61554" lon="0.90092">
        <ele>2482.74</ele>
        <time>2011-03-11T12:02:45Z</time>
      </trkpt>
      <trkpt lat="42.6155" lon="0.90088">
        <ele>2484.18</ele>
        <time>2011-03-11T12:02:57Z</time>
      </trkpt>
      <trkpt lat="42.61546" lon="0.90085">
        <ele>2486.11</ele>
        <time>2011-03-11T12:03:08Z</time>
      </trkpt>
      <trkpt lat="42.61542" lon="0.90082">
        <ele>2488.03</ele>
        <time>2011-03-11T12:03:20Z</time>
      </trkpt>
      <trkpt lat="42.61539" lon="0.90077">
        <ele>2489.47</ele>
        <time>2011-03-11T12:03:31Z</time>
      </trkpt>
      <trkpt lat="42.61534" lon="0.90074">
        <ele>2492.36</ele>
        <time>2011-03-11T12:03:43Z</time>
      </trkpt>
      <trkpt lat="42.61531" lon="0.9007">
        <ele>2494.76</ele>
        <time>2011-03-11T12:03:53Z</time>
      </trkpt>
      <trkpt lat="42.61527" lon="0.90068">
        <ele>2496.2</ele>
        <time>2011-03-11T12:04:05Z</time>
      </trkpt>
      <trkpt lat="42.61525" lon="0.90066">
        <ele>2497.16</ele>
        <time>2011-03-11T12:04:10Z</time>
      </trkpt>
      <trkpt lat="42.61523" lon="0.90066">
        <ele>2498.6</ele>
        <time>2011-03-11T12:04:18Z</time>
      </trkpt>
      <trkpt lat="42.61518" lon="0.90066">
        <ele>2500.53</ele>
        <time>2011-03-11T12:04:29Z</time>
      </trkpt>
      <trkpt lat="42.61516" lon="0.90059">
        <ele>2502.45</ele>
        <time>2011-03-11T12:04:41Z</time>
      </trkpt>
      <trkpt lat="42.61517" lon="0.90054">
        <ele>2503.41</ele>
        <time>2011-03-11T12:04:47Z</time>
      </trkpt>
      <trkpt lat="42.61515" lon="0.90045">
        <ele>2505.81</ele>
        <time>2011-03-11T12:05:03Z</time>
      </trkpt>
      <trkpt lat="42.61515" lon="0.90045">
        <ele>2506.77</ele>
        <time>2011-03-11T12:05:04Z</time>
      </trkpt>
      <trkpt lat="42.61512" lon="0.90037">
        <ele>2508.7</ele>
        <time>2011-03-11T12:05:16Z</time>
      </trkpt>
      <trkpt lat="42.61509" lon="0.90022">
        <ele>2510.62</ele>
        <time>2011-03-11T12:05:32Z</time>
      </trkpt>
      <trkpt lat="42.61506" lon="0.90007">
        <ele>2513.5</ele>
        <time>2011-03-11T12:05:49Z</time>
      </trkpt>
      <trkpt lat="42.61504" lon="0.89996">
        <ele>2514.47</ele>
        <time>2011-03-11T12:06:01Z</time>
      </trkpt>
      <trkpt lat="42.61501" lon="0.89984">
        <ele>2515.91</ele>
        <time>2011-03-11T12:06:15Z</time>
      </trkpt>
      <trkpt lat="42.61499" lon="0.89976">
        <ele>2518.31</ele>
        <time>2011-03-11T12:06:27Z</time>
      </trkpt>
      <trkpt lat="42.61499" lon="0.89974">
        <ele>2518.31</ele>
        <time>2011-03-11T12:06:29Z</time>
      </trkpt>
      <trkpt lat="42.61497" lon="0.89957">
        <ele>2521.68</ele>
        <time>2011-03-11T12:06:47Z</time>
      </trkpt>
      <trkpt lat="42.61495" lon="0.89947">
        <ele>2523.12</ele>
        <time>2011-03-11T12:06:57Z</time>
      </trkpt>
      <trkpt lat="42.61488" lon="0.89941">
        <ele>2525.52</ele>
        <time>2011-03-11T12:07:10Z</time>
      </trkpt>
      <trkpt lat="42.61481" lon="0.89934">
        <ele>2528.4</ele>
        <time>2011-03-11T12:07:25Z</time>
      </trkpt>
      <trkpt lat="42.61479" lon="0.89933">
        <ele>2528.4</ele>
        <time>2011-03-11T12:07:27Z</time>
      </trkpt>
      <trkpt lat="42.61471" lon="0.89928">
        <ele>2530.33</ele>
        <time>2011-03-11T12:07:38Z</time>
      </trkpt>
      <trkpt lat="42.61468" lon="0.89927">
        <ele>2531.77</ele>
        <time>2011-03-11T12:07:41Z</time>
      </trkpt>
      <trkpt lat="42.61461" lon="0.8992">
        <ele>2533.21</ele>
        <time>2011-03-11T12:07:52Z</time>
      </trkpt>
      <trkpt lat="42.61454" lon="0.89915">
        <ele>2536.1</ele>
        <time>2011-03-11T12:08:07Z</time>
      </trkpt>
      <trkpt lat="42.61455" lon="0.89912">
        <ele>2538.5</ele>
        <time>2011-03-11T12:08:18Z</time>
      </trkpt>
      <trkpt lat="42.6145" lon="0.89911">
        <ele>2540.42</ele>
        <time>2011-03-11T12:08:31Z</time>
      </trkpt>
      <trkpt lat="42.61445" lon="0.8991">
        <ele>2541.86</ele>
        <time>2011-03-11T12:08:42Z</time>
      </trkpt>
      <trkpt lat="42.61439" lon="0.8991">
        <ele>2544.27</ele>
        <time>2011-03-11T12:08:58Z</time>
      </trkpt>
      <trkpt lat="42.61439" lon="0.8991">
        <ele>2547.63</ele>
        <time>2011-03-11T12:09:12Z</time>
      </trkpt>
      <trkpt lat="42.61438" lon="0.8991">
        <ele>2547.63</ele>
        <time>2011-03-11T12:09:13Z</time>
      </trkpt>
      <trkpt lat="42.61429" lon="0.89909">
        <ele>2550.03</ele>
        <time>2011-03-11T12:09:25Z</time>
      </trkpt>
      <trkpt lat="42.61419" lon="0.89909">
        <ele>2551.96</ele>
        <time>2011-03-11T12:09:37Z</time>
      </trkpt>
      <trkpt lat="42.6141" lon="0.89908">
        <ele>2552.92</ele>
        <time>2011-03-11T12:09:49Z</time>
      </trkpt>
      <trkpt lat="42.61402" lon="0.89907">
        <ele>2555.32</ele>
        <time>2011-03-11T12:10:05Z</time>
      </trkpt>
      <trkpt lat="42.61392" lon="0.89904">
        <ele>2557.73</ele>
        <time>2011-03-11T12:10:17Z</time>
      </trkpt>
      <trkpt lat="42.61387" lon="0.89904">
        <ele>2558.69</ele>
        <time>2011-03-11T12:10:30Z</time>
      </trkpt>
      <trkpt lat="42.61383" lon="0.89904">
        <ele>2560.13</ele>
        <time>2011-03-11T12:10:34Z</time>
      </trkpt>
      <trkpt lat="42.61375" lon="0.89903">
        <ele>2561.57</ele>
        <time>2011-03-11T12:10:47Z</time>
      </trkpt>
      <trkpt lat="42.61365" lon="0.89904">
        <ele>2564.93</ele>
        <time>2011-03-11T12:11:00Z</time>
      </trkpt>
      <trkpt lat="42.61365" lon="0.89904">
        <ele>2564.93</ele>
        <time>2011-03-11T12:11:01Z</time>
      </trkpt>
      <trkpt lat="42.61361" lon="0.89905">
        <ele>2567.34</ele>
        <time>2011-03-11T12:11:16Z</time>
      </trkpt>
      <trkpt lat="42.61352" lon="0.89905">
        <ele>2568.78</ele>
        <time>2011-03-11T12:11:25Z</time>
      </trkpt>
      <trkpt lat="42.61343" lon="0.89907">
        <ele>2570.7</ele>
        <time>2011-03-11T12:11:36Z</time>
      </trkpt>
      <trkpt lat="42.61341" lon="0.89908">
        <ele>2572.14</ele>
        <time>2011-03-11T12:11:45Z</time>
      </trkpt>
      <trkpt lat="42.61338" lon="0.89909">
        <ele>2573.59</ele>
        <time>2011-03-11T12:11:58Z</time>
      </trkpt>
      <trkpt lat="42.61334" lon="0.89909">
        <ele>2575.99</ele>
        <time>2011-03-11T12:12:08Z</time>
      </trkpt>
      <trkpt lat="42.61332" lon="0.8991">
        <ele>2575.99</ele>
        <time>2011-03-11T12:12:11Z</time>
      </trkpt>
      <trkpt lat="42.61327" lon="0.89913">
        <ele>2578.39</ele>
        <time>2011-03-11T12:12:24Z</time>
      </trkpt>
      <trkpt lat="42.61321" lon="0.89916">
        <ele>2580.32</ele>
        <time>2011-03-11T12:12:36Z</time>
      </trkpt>
      <trkpt lat="42.61313" lon="0.89919">
        <ele>2583.2</ele>
        <time>2011-03-11T12:12:49Z</time>
      </trkpt>
      <trkpt lat="42.61301" lon="0.8992">
        <ele>2585.12</ele>
        <time>2011-03-11T12:13:01Z</time>
      </trkpt>
      <trkpt lat="42.61293" lon="0.89924">
        <ele>2587.53</ele>
        <time>2011-03-11T12:13:13Z</time>
      </trkpt>
      <trkpt lat="42.61286" lon="0.89929">
        <ele>2589.45</ele>
        <time>2011-03-11T12:13:26Z</time>
      </trkpt>
      <trkpt lat="42.61286" lon="0.89929">
        <ele>2589.93</ele>
        <time>2011-03-11T12:13:30Z</time>
      </trkpt>
      <trkpt lat="42.61279" lon="0.89935">
        <ele>2592.81</ele>
        <time>2011-03-11T12:13:44Z</time>
      </trkpt>
      <trkpt lat="42.61275" lon="0.89936">
        <ele>2594.74</ele>
        <time>2011-03-11T12:13:55Z</time>
      </trkpt>
      <trkpt lat="42.61266" lon="0.89931">
        <ele>2596.66</ele>
        <time>2011-03-11T12:14:08Z</time>
      </trkpt>
      <trkpt lat="42.61264" lon="0.89929">
        <ele>2599.06</ele>
        <time>2011-03-11T12:14:16Z</time>
      </trkpt>
      <trkpt lat="42.61257" lon="0.89923">
        <ele>2600.98</ele>
        <time>2011-03-11T12:14:29Z</time>
      </trkpt>
      <trkpt lat="42.61251" lon="0.89918">
        <ele>2603.87</ele>
        <time>2011-03-11T12:14:41Z</time>
      </trkpt>
      <trkpt lat="42.61245" lon="0.8991">
        <ele>2605.79</ele>
        <time>2011-03-11T12:14:59Z</time>
      </trkpt>
      <trkpt lat="42.61238" lon="0.89901">
        <ele>2609.16</ele>
        <time>2011-03-11T12:15:13Z</time>
      </trkpt>
      <trkpt lat="42.61234" lon="0.89895">
        <ele>2611.56</ele>
        <time>2011-03-11T12:15:26Z</time>
      </trkpt>
      <trkpt lat="42.6123" lon="0.89885">
        <ele>2613</ele>
        <time>2011-03-11T12:15:38Z</time>
      </trkpt>
      <trkpt lat="42.61227" lon="0.89884">
        <ele>2615.88</ele>
        <time>2011-03-11T12:15:52Z</time>
      </trkpt>
      <trkpt lat="42.61223" lon="0.89884">
        <ele>2616.37</ele>
        <time>2011-03-11T12:16:04Z</time>
      </trkpt>
      <trkpt lat="42.61219" lon="0.89884">
        <ele>2617.81</ele>
        <time>2011-03-11T12:16:21Z</time>
      </trkpt>
      <trkpt lat="42.61213" lon="0.89883">
        <ele>2620.21</ele>
        <time>2011-03-11T12:16:32Z</time>
      </trkpt>
      <trkpt lat="42.61207" lon="0.89881">
        <ele>2622.13</ele>
        <time>2011-03-11T12:16:44Z</time>
      </trkpt>
      <trkpt lat="42.61201" lon="0.89879">
        <ele>2624.54</ele>
        <time>2011-03-11T12:16:56Z</time>
      </trkpt>
      <trkpt lat="42.61195" lon="0.89879">
        <ele>2626.46</ele>
        <time>2011-03-11T12:17:09Z</time>
      </trkpt>
      <trkpt lat="42.61192" lon="0.89878">
        <ele>2628.86</ele>
        <time>2011-03-11T12:17:20Z</time>
      </trkpt>
      <trkpt lat="42.61189" lon="0.89877">
        <ele>2630.79</ele>
        <time>2011-03-11T12:17:31Z</time>
      </trkpt>
      <trkpt lat="42.61186" lon="0.89874">
        <ele>2633.19</ele>
        <time>2011-03-11T12:17:42Z</time>
      </trkpt>
      <trkpt lat="42.61186" lon="0.89874">
        <ele>2633.19</ele>
        <time>2011-03-11T12:17:43Z</time>
      </trkpt>
      <trkpt lat="42.61181" lon="0.89871">
        <ele>2635.11</ele>
        <time>2011-03-11T12:17:56Z</time>
      </trkpt>
      <trkpt lat="42.61181" lon="0.89871">
        <ele>2635.59</ele>
        <time>2011-03-11T12:17:58Z</time>
      </trkpt>
      <trkpt lat="42.61178" lon="0.89871">
        <ele>2637.51</ele>
        <time>2011-03-11T12:18:09Z</time>
      </trkpt>
      <trkpt lat="42.61176" lon="0.89873">
        <ele>2640.4</ele>
        <time>2011-03-11T12:18:20Z</time>
      </trkpt>
      <trkpt lat="42.61172" lon="0.89877">
        <ele>2641.84</ele>
        <time>2011-03-11T12:18:30Z</time>
      </trkpt>
      <trkpt lat="42.61169" lon="0.8988">
        <ele>2644.72</ele>
        <time>2011-03-11T12:18:39Z</time>
      </trkpt>
      <trkpt lat="42.61166" lon="0.89884">
        <ele>2645.21</ele>
        <time>2011-03-11T12:18:50Z</time>
      </trkpt>
      <trkpt lat="42.61164" lon="0.89887">
        <ele>2646.65</ele>
        <time>2011-03-11T12:18:59Z</time>
      </trkpt>
      <trkpt lat="42.61158" lon="0.89894">
        <ele>2649.05</ele>
        <time>2011-03-11T12:19:09Z</time>
      </trkpt>
      <trkpt lat="42.61156" lon="0.89895">
        <ele>2650.49</ele>
        <time>2011-03-11T12:19:20Z</time>
      </trkpt>
      <trkpt lat="42.61153" lon="0.89894">
        <ele>2651.93</ele>
        <time>2011-03-11T12:19:31Z</time>
      </trkpt>
      <trkpt lat="42.6115" lon="0.89893">
        <ele>2654.82</ele>
        <time>2011-03-11T12:19:42Z</time>
      </trkpt>
      <trkpt lat="42.61136" lon="0.89885">
        <ele>2656.26</ele>
        <time>2011-03-11T12:19:58Z</time>
      </trkpt>
      <trkpt lat="42.61129" lon="0.89881">
        <ele>2658.66</ele>
        <time>2011-03-11T12:20:12Z</time>
      </trkpt>
      <trkpt lat="42.61125" lon="0.89879">
        <ele>2660.11</ele>
        <time>2011-03-11T12:20:24Z</time>
      </trkpt>
      <trkpt lat="42.61113" lon="0.89876">
        <ele>2662.99</ele>
        <time>2011-03-11T12:20:36Z</time>
      </trkpt>
      <trkpt lat="42.61108" lon="0.89876">
        <ele>2665.39</ele>
        <time>2011-03-11T12:20:50Z</time>
      </trkpt>
      <trkpt lat="42.61104" lon="0.89878">
        <ele>2667.8</ele>
        <time>2011-03-11T12:21:02Z</time>
      </trkpt>
      <trkpt lat="42.61101" lon="0.89881">
        <ele>2668.28</ele>
        <time>2011-03-11T12:21:14Z</time>
      </trkpt>
      <trkpt lat="42.61102" lon="0.89882">
        <ele>2668.76</ele>
        <time>2011-03-11T12:21:59Z</time>
      </trkpt>
      <trkpt lat="42.61102" lon="0.89882">
        <ele>2668.76</ele>
        <time>2011-03-11T12:22:44Z</time>
      </trkpt>
      <trkpt lat="42.61101" lon="0.89881">
        <ele>2668.76</ele>
        <time>2011-03-11T12:23:29Z</time>
      </trkpt>
      <trkpt lat="42.61101" lon="0.89881">
        <ele>2669.72</ele>
        <time>2011-03-11T12:24:29Z</time>
      </trkpt>
      <trkpt lat="42.611" lon="0.89881">
        <ele>2669.24</ele>
        <time>2011-03-11T12:26:14Z</time>
      </trkpt>
      <trkpt lat="42.61101" lon="0.89881">
        <ele>2669.72</ele>
        <time>2011-03-11T12:27:01Z</time>
      </trkpt>
      <trkpt lat="42.611" lon="0.8988">
        <ele>2669.24</ele>
        <time>2011-03-11T12:27:56Z</time>
      </trkpt>
      <trkpt lat="42.611" lon="0.8988">
        <ele>2669.24</ele>
        <time>2011-03-11T12:28:25Z</time>
      </trkpt>
      <trkpt lat="42.611" lon="0.89881">
        <ele>2668.76</ele>
        <time>2011-03-11T12:28:50Z</time>
      </trkpt>
      <trkpt lat="42.61099" lon="0.89881">
        <ele>2667.8</ele>
        <time>2011-03-11T12:29:23Z</time>
      </trkpt>
      <trkpt lat="42.61099" lon="0.89881">
        <ele>2664.43</ele>
        <time>2011-03-11T12:29:30Z</time>
      </trkpt>
      <trkpt lat="42.61099" lon="0.89881">
        <ele>2668.28</ele>
        <time>2011-03-11T12:29:31Z</time>
      </trkpt>
      <trkpt lat="42.61098" lon="0.89882">
        <ele>2668.76</ele>
        <time>2011-03-11T12:32:40Z</time>
      </trkpt>
      <trkpt lat="42.61097" lon="0.89886">
        <ele>2669.72</ele>
        <time>2011-03-11T12:33:37Z</time>
      </trkpt>
      <trkpt lat="42.61096" lon="0.89889">
        <ele>2671.16</ele>
        <time>2011-03-11T12:33:57Z</time>
      </trkpt>
      <trkpt lat="42.61097" lon="0.89896">
        <ele>2672.6</ele>
        <time>2011-03-11T12:34:03Z</time>
      </trkpt>
      <trkpt lat="42.61098" lon="0.899">
        <ele>2673.08</ele>
        <time>2011-03-11T12:34:06Z</time>
      </trkpt>
      <trkpt lat="42.61099" lon="0.89908">
        <ele>2675.01</ele>
        <time>2011-03-11T12:34:18Z</time>
      </trkpt>
      <trkpt lat="42.61094" lon="0.89905">
        <ele>2676.93</ele>
        <time>2011-03-11T12:34:28Z</time>
      </trkpt>
      <trkpt lat="42.6109" lon="0.89903">
        <ele>2677.41</ele>
        <time>2011-03-11T12:34:39Z</time>
      </trkpt>
      <trkpt lat="42.6109" lon="0.89903">
        <ele>2677.89</ele>
        <time>2011-03-11T12:34:41Z</time>
      </trkpt>
      <trkpt lat="42.61087" lon="0.89906">
        <ele>2679.81</ele>
        <time>2011-03-11T12:34:54Z</time>
      </trkpt>
      <trkpt lat="42.61089" lon="0.89911">
        <ele>2680.77</ele>
        <time>2011-03-11T12:35:07Z</time>
      </trkpt>
      <trkpt lat="42.6109" lon="0.89914">
        <ele>2682.22</ele>
        <time>2011-03-11T12:35:22Z</time>
      </trkpt>
      <trkpt lat="42.61092" lon="0.89926">
        <ele>2683.66</ele>
        <time>2011-03-11T12:35:32Z</time>
      </trkpt>
      <trkpt lat="42.61093" lon="0.89933">
        <ele>2685.58</ele>
        <time>2011-03-11T12:35:40Z</time>
      </trkpt>
      <trkpt lat="42.61093" lon="0.89933">
        <ele>2686.54</ele>
        <time>2011-03-11T12:35:52Z</time>
      </trkpt>
      <trkpt lat="42.61091" lon="0.89931">
        <ele>2687.5</ele>
        <time>2011-03-11T12:35:55Z</time>
      </trkpt>
      <trkpt lat="42.61086" lon="0.89927">
        <ele>2687.98</ele>
        <time>2011-03-11T12:36:06Z</time>
      </trkpt>
      <trkpt lat="42.61086" lon="0.8993">
        <ele>2689.91</ele>
        <time>2011-03-11T12:36:16Z</time>
      </trkpt>
      <trkpt lat="42.61087" lon="0.89943">
        <ele>2691.83</ele>
        <time>2011-03-11T12:36:54Z</time>
      </trkpt>
      <trkpt lat="42.6109" lon="0.89956">
        <ele>2695.19</ele>
        <time>2011-03-11T12:37:08Z</time>
      </trkpt>
      <trkpt lat="42.6109" lon="0.89964">
        <ele>2697.6</ele>
        <time>2011-03-11T12:37:21Z</time>
      </trkpt>
      <trkpt lat="42.61089" lon="0.8996">
        <ele>2699.04</ele>
        <time>2011-03-11T12:37:37Z</time>
      </trkpt>
      <trkpt lat="42.61079" lon="0.89955">
        <ele>2701.92</ele>
        <time>2011-03-11T12:37:51Z</time>
      </trkpt>
      <trkpt lat="42.6107" lon="0.89948">
        <ele>2704.33</ele>
        <time>2011-03-11T12:38:04Z</time>
      </trkpt>
      <trkpt lat="42.61065" lon="0.89945">
        <ele>2705.29</ele>
        <time>2011-03-11T12:38:19Z</time>
      </trkpt>
      <trkpt lat="42.61059" lon="0.89942">
        <ele>2707.21</ele>
        <time>2011-03-11T12:38:31Z</time>
      </trkpt>
      <trkpt lat="42.6105" lon="0.8994">
        <ele>2708.65</ele>
        <time>2011-03-11T12:38:44Z</time>
      </trkpt>
      <trkpt lat="42.61051" lon="0.89943">
        <ele>2709.61</ele>
        <time>2011-03-11T12:38:57Z</time>
      </trkpt>
      <trkpt lat="42.61056" lon="0.89954">
        <ele>2712.02</ele>
        <time>2011-03-11T12:39:11Z</time>
      </trkpt>
      <trkpt lat="42.61059" lon="0.89965">
        <ele>2715.38</ele>
        <time>2011-03-11T12:39:23Z</time>
      </trkpt>
      <trkpt lat="42.61063" lon="0.89974">
        <ele>2717.78</ele>
        <time>2011-03-11T12:39:37Z</time>
      </trkpt>
      <trkpt lat="42.61064" lon="0.89978">
        <ele>2718.27</ele>
        <time>2011-03-11T12:39:41Z</time>
      </trkpt>
      <trkpt lat="42.61066" lon="0.89985">
        <ele>2720.67</ele>
        <time>2011-03-11T12:39:53Z</time>
      </trkpt>
      <trkpt lat="42.61063" lon="0.89982">
        <ele>2722.11</ele>
        <time>2011-03-11T12:40:04Z</time>
      </trkpt>
      <trkpt lat="42.61062" lon="0.89981">
        <ele>2722.11</ele>
        <time>2011-03-11T12:40:07Z</time>
      </trkpt>
      <trkpt lat="42.61052" lon="0.89975">
        <ele>2724.99</ele>
        <time>2011-03-11T12:40:22Z</time>
      </trkpt>
      <trkpt lat="42.61045" lon="0.89973">
        <ele>2726.44</ele>
        <time>2011-03-11T12:40:35Z</time>
      </trkpt>
      <trkpt lat="42.61046" lon="0.89979">
        <ele>2728.36</ele>
        <time>2011-03-11T12:40:45Z</time>
      </trkpt>
      <trkpt lat="42.61047" lon="0.89987">
        <ele>2730.76</ele>
        <time>2011-03-11T12:40:56Z</time>
      </trkpt>
      <trkpt lat="42.61049" lon="0.89998">
        <ele>2734.13</ele>
        <time>2011-03-11T12:41:11Z</time>
      </trkpt>
      <trkpt lat="42.61044" lon="0.89994">
        <ele>2735.09</ele>
        <time>2011-03-11T12:41:25Z</time>
      </trkpt>
      <trkpt lat="42.61036" lon="0.89987">
        <ele>2737.97</ele>
        <time>2011-03-11T12:41:41Z</time>
      </trkpt>
      <trkpt lat="42.61035" lon="0.89986">
        <ele>2738.45</ele>
        <time>2011-03-11T12:41:44Z</time>
      </trkpt>
      <trkpt lat="42.61035" lon="0.8999">
        <ele>2738.45</ele>
        <time>2011-03-11T12:41:50Z</time>
      </trkpt>
      <trkpt lat="42.61038" lon="0.90005">
        <ele>2740.86</ele>
        <time>2011-03-11T12:42:04Z</time>
      </trkpt>
      <trkpt lat="42.61033" lon="0.89999">
        <ele>2742.78</ele>
        <time>2011-03-11T12:42:16Z</time>
      </trkpt>
      <trkpt lat="42.61032" lon="0.89997">
        <ele>2743.74</ele>
        <time>2011-03-11T12:42:19Z</time>
      </trkpt>
      <trkpt lat="42.61021" lon="0.89988">
        <ele>2746.14</ele>
        <time>2011-03-11T12:42:36Z</time>
      </trkpt>
      <trkpt lat="42.6102" lon="0.89988">
        <ele>2747.1</ele>
        <time>2011-03-11T12:42:46Z</time>
      </trkpt>
      <trkpt lat="42.61023" lon="0.89999">
        <ele>2748.07</ele>
        <time>2011-03-11T12:42:57Z</time>
      </trkpt>
      <trkpt lat="42.61024" lon="0.90005">
        <ele>2750.47</ele>
        <time>2011-03-11T12:43:10Z</time>
      </trkpt>
      <trkpt lat="42.61022" lon="0.90002">
        <ele>2751.43</ele>
        <time>2011-03-11T12:43:22Z</time>
      </trkpt>
      <trkpt lat="42.61019" lon="0.9">
        <ele>2752.39</ele>
        <time>2011-03-11T12:43:36Z</time>
      </trkpt>
      <trkpt lat="42.6102" lon="0.90003">
        <ele>2752.87</ele>
        <time>2011-03-11T12:43:41Z</time>
      </trkpt>
      <trkpt lat="42.6102" lon="0.90007">
        <ele>2753.83</ele>
        <time>2011-03-11T12:43:45Z</time>
      </trkpt>
      <trkpt lat="42.61021" lon="0.90015">
        <ele>2755.76</ele>
        <time>2011-03-11T12:44:00Z</time>
      </trkpt>
      <trkpt lat="42.61019" lon="0.90011">
        <ele>2756.24</ele>
        <time>2011-03-11T12:44:17Z</time>
      </trkpt>
      <trkpt lat="42.61019" lon="0.90011">
        <ele>2755.76</ele>
        <time>2011-03-11T12:44:38Z</time>
      </trkpt>
      <trkpt lat="42.61018" lon="0.90011">
        <ele>2750.95</ele>
        <time>2011-03-11T12:44:55Z</time>
      </trkpt>
      <trkpt lat="42.61018" lon="0.90011">
        <ele>2758.16</ele>
        <time>2011-03-11T12:44:56Z</time>
      </trkpt>
      <trkpt lat="42.61018" lon="0.90011">
        <ele>2755.76</ele>
        <time>2011-03-11T12:45:01Z</time>
      </trkpt>
      <trkpt lat="42.61018" lon="0.90011">
        <ele>2748.55</ele>
        <time>2011-03-11T12:45:09Z</time>
      </trkpt>
      <trkpt lat="42.61018" lon="0.90011">
        <ele>2755.28</ele>
        <time>2011-03-11T12:45:10Z</time>
      </trkpt>
      <trkpt lat="42.61018" lon="0.90011">
        <ele>2757.2</ele>
        <time>2011-03-11T12:47:04Z</time>
      </trkpt>
      <trkpt lat="42.61018" lon="0.90011">
        <ele>2754.31</ele>
        <time>2011-03-11T12:47:39Z</time>
      </trkpt>
      <trkpt lat="42.61018" lon="0.90011">
        <ele>2756.24</ele>
        <time>2011-03-11T12:47:42Z</time>
      </trkpt>
      <trkpt lat="42.61018" lon="0.90011">
        <ele>2753.83</ele>
        <time>2011-03-11T12:48:24Z</time>
      </trkpt>
      <trkpt lat="42.61018" lon="0.90011">
        <ele>2755.76</ele>
        <time>2011-03-11T12:48:26Z</time>
      </trkpt>
      <trkpt lat="42.61018" lon="0.90011">
        <ele>2761.04</ele>
        <time>2011-03-11T12:48:43Z</time>
      </trkpt>
      <trkpt lat="42.61018" lon="0.9001">
        <ele>2756.24</ele>
        <time>2011-03-11T12:48:44Z</time>
      </trkpt>
      <trkpt lat="42.61018" lon="0.9001">
        <ele>2749.99</ele>
        <time>2011-03-11T12:48:46Z</time>
      </trkpt>
      <trkpt lat="42.61018" lon="0.9001">
        <ele>2758.16</ele>
        <time>2011-03-11T12:48:47Z</time>
      </trkpt>
      <trkpt lat="42.61018" lon="0.9001">
        <ele>2754.8</ele>
        <time>2011-03-11T12:48:48Z</time>
      </trkpt>
      <trkpt lat="42.61018" lon="0.9001">
        <ele>2756.72</ele>
        <time>2011-03-11T12:48:51Z</time>
      </trkpt>
      <trkpt lat="42.61018" lon="0.9001">
        <ele>2757.68</ele>
        <time>2011-03-11T12:49:12Z</time>
      </trkpt>
      <trkpt lat="42.61018" lon="0.9001">
        <ele>2757.68</ele>
        <time>2011-03-11T12:49:24Z</time>
      </trkpt>
      <trkpt lat="42.61018" lon="0.9001">
        <ele>2757.68</ele>
        <time>2011-03-11T12:49:36Z</time>
      </trkpt>
      <trkpt lat="42.61015" lon="0.9001">
        <ele>2759.12</ele>
        <time>2011-03-11T12:49:48Z</time>
      </trkpt>
      <trkpt lat="42.6101" lon="0.90009">
        <ele>2759.6</ele>
        <time>2011-03-11T12:49:56Z</time>
      </trkpt>
      <trkpt lat="42.6101" lon="0.90009">
        <ele>2762</ele>
        <time>2011-03-11T12:49:58Z</time>
      </trkpt>
      <trkpt lat="42.61008" lon="0.90013">
        <ele>2764.41</ele>
        <time>2011-03-11T12:50:10Z</time>
      </trkpt>
      <trkpt lat="42.61007" lon="0.90015">
        <ele>2765.85</ele>
        <time>2011-03-11T12:50:15Z</time>
      </trkpt>
      <trkpt lat="42.61006" lon="0.90019">
        <ele>2768.25</ele>
        <time>2011-03-11T12:50:27Z</time>
      </trkpt>
      <trkpt lat="42.61006" lon="0.90021">
        <ele>2769.21</ele>
        <time>2011-03-11T12:50:35Z</time>
      </trkpt>
      <trkpt lat="42.61003" lon="0.90021">
        <ele>2769.7</ele>
        <time>2011-03-11T12:50:47Z</time>
      </trkpt>
      <trkpt lat="42.61" lon="0.90019">
        <ele>2770.66</ele>
        <time>2011-03-11T12:51:00Z</time>
      </trkpt>
      <trkpt lat="42.61" lon="0.90019">
        <ele>2768.73</ele>
        <time>2011-03-11T12:51:10Z</time>
      </trkpt>
      <trkpt lat="42.61" lon="0.90019">
        <ele>2772.1</ele>
        <time>2011-03-11T12:51:16Z</time>
      </trkpt>
      <trkpt lat="42.61" lon="0.90019">
        <ele>2772.1</ele>
        <time>2011-03-11T12:51:17Z</time>
      </trkpt>
      <trkpt lat="42.61" lon="0.90019">
        <ele>2771.14</ele>
        <time>2011-03-11T12:51:46Z</time>
      </trkpt>
      <trkpt lat="42.61" lon="0.90019">
        <ele>2771.14</ele>
        <time>2011-03-11T12:52:29Z</time>
      </trkpt>
      <trkpt lat="42.61" lon="0.90019">
        <ele>2771.14</ele>
        <time>2011-03-11T12:53:01Z</time>
      </trkpt>
      <trkpt lat="42.61003" lon="0.9002">
        <ele>2770.18</ele>
        <time>2011-03-11T12:53:13Z</time>
      </trkpt>
      <trkpt lat="42.61003" lon="0.9002">
        <ele>2769.7</ele>
        <time>2011-03-11T12:53:31Z</time>
      </trkpt>
      <trkpt lat="42.61003" lon="0.9002">
        <ele>2768.25</ele>
        <time>2011-03-11T12:53:51Z</time>
      </trkpt>
      <trkpt lat="42.61003" lon="0.9002">
        <ele>2766.33</ele>
        <time>2011-03-11T12:54:00Z</time>
      </trkpt>
      <trkpt lat="42.61006" lon="0.90015">
        <ele>2763.93</ele>
        <time>2011-03-11T12:54:14Z</time>
      </trkpt>
      <trkpt lat="42.61011" lon="0.90011">
        <ele>2762</ele>
        <time>2011-03-11T12:54:33Z</time>
      </trkpt>
      <trkpt lat="42.61012" lon="0.9001">
        <ele>2761.04</ele>
        <time>2011-03-11T12:54:38Z</time>
      </trkpt>
      <trkpt lat="42.61014" lon="0.90009">
        <ele>2759.12</ele>
        <time>2011-03-11T12:54:49Z</time>
      </trkpt>
      <trkpt lat="42.61015" lon="0.9001">
        <ele>2755.76</ele>
        <time>2011-03-11T12:54:53Z</time>
      </trkpt>
      <trkpt lat="42.61016" lon="0.9001">
        <ele>2744.22</ele>
        <time>2011-03-11T12:55:05Z</time>
      </trkpt>
      <trkpt lat="42.61016" lon="0.9001">
        <ele>2757.68</ele>
        <time>2011-03-11T12:55:06Z</time>
      </trkpt>
      <trkpt lat="42.61016" lon="0.9001">
        <ele>2757.68</ele>
        <time>2011-03-11T12:55:22Z</time>
      </trkpt>
      <trkpt lat="42.61016" lon="0.9001">
        <ele>2757.68</ele>
        <time>2011-03-11T12:55:33Z</time>
      </trkpt>
      <trkpt lat="42.61016" lon="0.9001">
        <ele>2761.04</ele>
        <time>2011-03-11T12:55:38Z</time>
      </trkpt>
      <trkpt lat="42.61016" lon="0.9001">
        <ele>2759.6</ele>
        <time>2011-03-11T12:55:39Z</time>
      </trkpt>
      <trkpt lat="42.61016" lon="0.9001">
        <ele>2757.2</ele>
        <time>2011-03-11T12:55:41Z</time>
      </trkpt>
      <trkpt lat="42.61016" lon="0.9001">
        <ele>2759.12</ele>
        <time>2011-03-11T12:55:56Z</time>
      </trkpt>
      <trkpt lat="42.61016" lon="0.9001">
        <ele>2757.2</ele>
        <time>2011-03-11T12:55:59Z</time>
      </trkpt>
      <trkpt lat="42.61016" lon="0.9001">
        <ele>2757.2</ele>
        <time>2011-03-11T12:56:42Z</time>
      </trkpt>
      <trkpt lat="42.61016" lon="0.9001">
        <ele>2753.83</ele>
        <time>2011-03-11T12:57:19Z</time>
      </trkpt>
      <trkpt lat="42.61016" lon="0.9001">
        <ele>2757.68</ele>
        <time>2011-03-11T12:57:20Z</time>
      </trkpt>
      <trkpt lat="42.61016" lon="0.9001">
        <ele>2753.83</ele>
        <time>2011-03-11T12:57:26Z</time>
      </trkpt>
      <trkpt lat="42.61016" lon="0.9001">
        <ele>2757.2</ele>
        <time>2011-03-11T12:57:27Z</time>
      </trkpt>
      <trkpt lat="42.61016" lon="0.9001">
        <ele>2761.52</ele>
        <time>2011-03-11T12:58:35Z</time>
      </trkpt>
      <trkpt lat="42.61016" lon="0.9001">
        <ele>2758.16</ele>
        <time>2011-03-11T12:58:37Z</time>
      </trkpt>
      <trkpt lat="42.61016" lon="0.9001">
        <ele>2758.16</ele>
        <time>2011-03-11T12:58:38Z</time>
      </trkpt>
      <trkpt lat="42.61016" lon="0.9001">
        <ele>2756.72</ele>
        <time>2011-03-11T12:58:41Z</time>
      </trkpt>
      <trkpt lat="42.61016" lon="0.90009">
        <ele>2758.16</ele>
        <time>2011-03-11T12:59:25Z</time>
      </trkpt>
      <trkpt lat="42.61018" lon="0.90009">
        <ele>2759.12</ele>
        <time>2011-03-11T13:01:21Z</time>
      </trkpt>
      <trkpt lat="42.61019" lon="0.9001">
        <ele>2758.64</ele>
        <time>2011-03-11T13:01:48Z</time>
      </trkpt>
      <trkpt lat="42.61018" lon="0.9001">
        <ele>2758.64</ele>
        <time>2011-03-11T13:02:02Z</time>
      </trkpt>
      <trkpt lat="42.61018" lon="0.90009">
        <ele>2759.12</ele>
        <time>2011-03-11T13:02:17Z</time>
      </trkpt>
      <trkpt lat="42.61018" lon="0.90009">
        <ele>2759.12</ele>
        <time>2011-03-11T13:02:32Z</time>
      </trkpt>
      <trkpt lat="42.61018" lon="0.9001">
        <ele>2759.6</ele>
        <time>2011-03-11T13:02:49Z</time>
      </trkpt>
      <trkpt lat="42.61018" lon="0.9001">
        <ele>2759.12</ele>
        <time>2011-03-11T13:03:08Z</time>
      </trkpt>
      <trkpt lat="42.61018" lon="0.90011">
        <ele>2758.64</ele>
        <time>2011-03-11T13:03:25Z</time>
      </trkpt>
      <trkpt lat="42.61018" lon="0.90012">
        <ele>2758.64</ele>
        <time>2011-03-11T13:03:39Z</time>
      </trkpt>
      <trkpt lat="42.61018" lon="0.9001">
        <ele>2759.12</ele>
        <time>2011-03-11T13:04:22Z</time>
      </trkpt>
      <trkpt lat="42.61018" lon="0.90011">
        <ele>2759.12</ele>
        <time>2011-03-11T13:04:27Z</time>
      </trkpt>
      <trkpt lat="42.61022" lon="0.90013">
        <ele>2758.16</ele>
        <time>2011-03-11T13:04:31Z</time>
      </trkpt>
      <trkpt lat="42.61025" lon="0.90006">
        <ele>2754.31</ele>
        <time>2011-03-11T13:04:35Z</time>
      </trkpt>
      <trkpt lat="42.61024" lon="0.90002">
        <ele>2753.83</ele>
        <time>2011-03-11T13:04:37Z</time>
      </trkpt>
      <trkpt lat="42.61023" lon="0.89999">
        <ele>2752.87</ele>
        <time>2011-03-11T13:04:40Z</time>
      </trkpt>
      <trkpt lat="42.61023" lon="0.89997">
        <ele>2750.95</ele>
        <time>2011-03-11T13:04:47Z</time>
      </trkpt>
      <trkpt lat="42.6102" lon="0.89987">
        <ele>2749.51</ele>
        <time>2011-03-11T13:04:57Z</time>
      </trkpt>
      <trkpt lat="42.61021" lon="0.89986">
        <ele>2749.03</ele>
        <time>2011-03-11T13:05:03Z</time>
      </trkpt>
      <trkpt lat="42.61025" lon="0.89983">
        <ele>2747.59</ele>
        <time>2011-03-11T13:05:05Z</time>
      </trkpt>
      <trkpt lat="42.61023" lon="0.89976">
        <ele>2744.22</ele>
        <time>2011-03-11T13:05:09Z</time>
      </trkpt>
      <trkpt lat="42.61024" lon="0.89974">
        <ele>2742.3</ele>
        <time>2011-03-11T13:05:17Z</time>
      </trkpt>
      <trkpt lat="42.61024" lon="0.89969">
        <ele>2740.86</ele>
        <time>2011-03-11T13:05:28Z</time>
      </trkpt>
      <trkpt lat="42.61019" lon="0.89955">
        <ele>2737.01</ele>
        <time>2011-03-11T13:05:37Z</time>
      </trkpt>
      <trkpt lat="42.61017" lon="0.89953">
        <ele>2737.01</ele>
        <time>2011-03-11T13:05:43Z</time>
      </trkpt>
      <trkpt lat="42.61015" lon="0.89947">
        <ele>2735.57</ele>
        <time>2011-03-11T13:05:56Z</time>
      </trkpt>
      <trkpt lat="42.61015" lon="0.89947">
        <ele>2736.05</ele>
        <time>2011-03-11T13:06:11Z</time>
      </trkpt>
      <trkpt lat="42.61022" lon="0.89939">
        <ele>2733.17</ele>
        <time>2011-03-11T13:06:15Z</time>
      </trkpt>
      <trkpt lat="42.61024" lon="0.89936">
        <ele>2729.8</ele>
        <time>2011-03-11T13:06:16Z</time>
      </trkpt>
      <trkpt lat="42.61029" lon="0.89928">
        <ele>2723.07</ele>
        <time>2011-03-11T13:06:18Z</time>
      </trkpt>
      <trkpt lat="42.61033" lon="0.8992">
        <ele>2718.75</ele>
        <time>2011-03-11T13:06:20Z</time>
      </trkpt>
      <trkpt lat="42.61036" lon="0.89911">
        <ele>2711.54</ele>
        <time>2011-03-11T13:06:22Z</time>
      </trkpt>
      <trkpt lat="42.61036" lon="0.89897">
        <ele>2706.25</ele>
        <time>2011-03-11T13:06:25Z</time>
      </trkpt>
      <trkpt lat="42.61036" lon="0.89888">
        <ele>2700.96</ele>
        <time>2011-03-11T13:06:27Z</time>
      </trkpt>
      <trkpt lat="42.61043" lon="0.8988">
        <ele>2696.64</ele>
        <time>2011-03-11T13:06:29Z</time>
      </trkpt>
      <trkpt lat="42.61046" lon="0.89878">
        <ele>2691.83</ele>
        <time>2011-03-11T13:06:30Z</time>
      </trkpt>
      <trkpt lat="42.61052" lon="0.89885">
        <ele>2688.94</ele>
        <time>2011-03-11T13:06:32Z</time>
      </trkpt>
      <trkpt lat="42.61053" lon="0.89887">
        <ele>2688.94</ele>
        <time>2011-03-11T13:06:33Z</time>
      </trkpt>
      <trkpt lat="42.61054" lon="0.89888">
        <ele>2688.46</ele>
        <time>2011-03-11T13:06:48Z</time>
      </trkpt>
      <trkpt lat="42.61057" lon="0.89868">
        <ele>2683.18</ele>
        <time>2011-03-11T13:06:53Z</time>
      </trkpt>
      <trkpt lat="42.61064" lon="0.8986">
        <ele>2679.81</ele>
        <time>2011-03-11T13:06:55Z</time>
      </trkpt>
      <trkpt lat="42.61068" lon="0.89855">
        <ele>2676.93</ele>
        <time>2011-03-11T13:06:56Z</time>
      </trkpt>
      <trkpt lat="42.61081" lon="0.89839">
        <ele>2669.24</ele>
        <time>2011-03-11T13:06:59Z</time>
      </trkpt>
      <trkpt lat="42.61096" lon="0.8983">
        <ele>2663.95</ele>
        <time>2011-03-11T13:07:02Z</time>
      </trkpt>
      <trkpt lat="42.61106" lon="0.89827">
        <ele>2659.62</ele>
        <time>2011-03-11T13:07:04Z</time>
      </trkpt>
      <trkpt lat="42.61124" lon="0.89831">
        <ele>2656.74</ele>
        <time>2011-03-11T13:07:07Z</time>
      </trkpt>
      <trkpt lat="42.61139" lon="0.89847">
        <ele>2655.3</ele>
        <time>2011-03-11T13:07:14Z</time>
      </trkpt>
      <trkpt lat="42.61144" lon="0.8986">
        <ele>2654.82</ele>
        <time>2011-03-11T13:07:23Z</time>
      </trkpt>
      <trkpt lat="42.6115" lon="0.89873">
        <ele>2653.38</ele>
        <time>2011-03-11T13:07:27Z</time>
      </trkpt>
      <trkpt lat="42.61151" lon="0.89877">
        <ele>2652.42</ele>
        <time>2011-03-11T13:07:36Z</time>
      </trkpt>
      <trkpt lat="42.61151" lon="0.89877">
        <ele>2651.93</ele>
        <time>2011-03-11T13:07:37Z</time>
      </trkpt>
      <trkpt lat="42.61169" lon="0.89866">
        <ele>2646.65</ele>
        <time>2011-03-11T13:07:42Z</time>
      </trkpt>
      <trkpt lat="42.6118" lon="0.89859">
        <ele>2641.36</ele>
        <time>2011-03-11T13:07:44Z</time>
      </trkpt>
      <trkpt lat="42.61193" lon="0.8986">
        <ele>2636.07</ele>
        <time>2011-03-11T13:07:46Z</time>
      </trkpt>
      <trkpt lat="42.61203" lon="0.89869">
        <ele>2631.27</ele>
        <time>2011-03-11T13:07:48Z</time>
      </trkpt>
      <trkpt lat="42.61213" lon="0.89874">
        <ele>2627.9</ele>
        <time>2011-03-11T13:07:50Z</time>
      </trkpt>
      <trkpt lat="42.61227" lon="0.89878">
        <ele>2623.09</ele>
        <time>2011-03-11T13:07:53Z</time>
      </trkpt>
      <trkpt lat="42.61229" lon="0.89876">
        <ele>2621.17</ele>
        <time>2011-03-11T13:07:57Z</time>
      </trkpt>
      <trkpt lat="42.61229" lon="0.89876">
        <ele>2621.17</ele>
        <time>2011-03-11T13:08:07Z</time>
      </trkpt>
      <trkpt lat="42.61244" lon="0.89892">
        <ele>2616.85</ele>
        <time>2011-03-11T13:08:12Z</time>
      </trkpt>
      <trkpt lat="42.61248" lon="0.89899">
        <ele>2615.88</ele>
        <time>2011-03-11T13:08:13Z</time>
      </trkpt>
      <trkpt lat="42.61255" lon="0.89912">
        <ele>2610.6</ele>
        <time>2011-03-11T13:08:15Z</time>
      </trkpt>
      <trkpt lat="42.61259" lon="0.89919">
        <ele>2609.16</ele>
        <time>2011-03-11T13:08:16Z</time>
      </trkpt>
      <trkpt lat="42.61269" lon="0.89939">
        <ele>2604.83</ele>
        <time>2011-03-11T13:08:19Z</time>
      </trkpt>
      <trkpt lat="42.6128" lon="0.89955">
        <ele>2600.02</ele>
        <time>2011-03-11T13:08:22Z</time>
      </trkpt>
      <trkpt lat="42.61284" lon="0.89959">
        <ele>2598.1</ele>
        <time>2011-03-11T13:08:23Z</time>
      </trkpt>
      <trkpt lat="42.61299" lon="0.89974">
        <ele>2595.22</ele>
        <time>2011-03-11T13:08:27Z</time>
      </trkpt>
      <trkpt lat="42.61301" lon="0.89977">
        <ele>2595.7</ele>
        <time>2011-03-11T13:08:36Z</time>
      </trkpt>
      <trkpt lat="42.61301" lon="0.89977">
        <ele>2595.22</ele>
        <time>2011-03-11T13:08:40Z</time>
      </trkpt>
      <trkpt lat="42.6131" lon="0.89978">
        <ele>2593.77</ele>
        <time>2011-03-11T13:08:43Z</time>
      </trkpt>
      <trkpt lat="42.61324" lon="0.8997">
        <ele>2590.41</ele>
        <time>2011-03-11T13:08:46Z</time>
      </trkpt>
      <trkpt lat="42.61329" lon="0.89966">
        <ele>2587.04</ele>
        <time>2011-03-11T13:08:47Z</time>
      </trkpt>
      <trkpt lat="42.6134" lon="0.89962">
        <ele>2581.28</ele>
        <time>2011-03-11T13:08:49Z</time>
      </trkpt>
      <trkpt lat="42.61345" lon="0.8996">
        <ele>2580.8</ele>
        <time>2011-03-11T13:08:50Z</time>
      </trkpt>
      <trkpt lat="42.61368" lon="0.89964">
        <ele>2574.07</ele>
        <time>2011-03-11T13:08:54Z</time>
      </trkpt>
      <trkpt lat="42.61389" lon="0.89994">
        <ele>2572.63</ele>
        <time>2011-03-11T13:09:04Z</time>
      </trkpt>
      <trkpt lat="42.61393" lon="0.90006">
        <ele>2571.66</ele>
        <time>2011-03-11T13:09:21Z</time>
      </trkpt>
      <trkpt lat="42.61393" lon="0.90006">
        <ele>2571.66</ele>
        <time>2011-03-11T13:09:24Z</time>
      </trkpt>
      <trkpt lat="42.61401" lon="0.90004">
        <ele>2570.22</ele>
        <time>2011-03-11T13:09:27Z</time>
      </trkpt>
      <trkpt lat="42.61409" lon="0.89998">
        <ele>2564.93</ele>
        <time>2011-03-11T13:09:29Z</time>
      </trkpt>
      <trkpt lat="42.61418" lon="0.89994">
        <ele>2559.17</ele>
        <time>2011-03-11T13:09:31Z</time>
      </trkpt>
      <trkpt lat="42.6143" lon="0.89997">
        <ele>2555.32</ele>
        <time>2011-03-11T13:09:33Z</time>
      </trkpt>
      <trkpt lat="42.61439" lon="0.90005">
        <ele>2551</ele>
        <time>2011-03-11T13:09:35Z</time>
      </trkpt>
      <trkpt lat="42.61451" lon="0.90022">
        <ele>2546.19</ele>
        <time>2011-03-11T13:09:39Z</time>
      </trkpt>
      <trkpt lat="42.61459" lon="0.90035">
        <ele>2542.34</ele>
        <time>2011-03-11T13:09:42Z</time>
      </trkpt>
      <trkpt lat="42.6147" lon="0.90052">
        <ele>2538.02</ele>
        <time>2011-03-11T13:09:46Z</time>
      </trkpt>
      <trkpt lat="42.61468" lon="0.90054">
        <ele>2535.61</ele>
        <time>2011-03-11T13:09:55Z</time>
      </trkpt>
      <trkpt lat="42.61468" lon="0.90054">
        <ele>2535.61</ele>
        <time>2011-03-11T13:10:15Z</time>
      </trkpt>
      <trkpt lat="42.61483" lon="0.90062">
        <ele>2531.77</ele>
        <time>2011-03-11T13:10:20Z</time>
      </trkpt>
      <trkpt lat="42.61492" lon="0.90071">
        <ele>2527.92</ele>
        <time>2011-03-11T13:10:22Z</time>
      </trkpt>
      <trkpt lat="42.61497" lon="0.90083">
        <ele>2523.12</ele>
        <time>2011-03-11T13:10:24Z</time>
      </trkpt>
      <trkpt lat="42.615" lon="0.90088">
        <ele>2521.68</ele>
        <time>2011-03-11T13:10:25Z</time>
      </trkpt>
      <trkpt lat="42.61514" lon="0.90103">
        <ele>2514.47</ele>
        <time>2011-03-11T13:10:28Z</time>
      </trkpt>
      <trkpt lat="42.61526" lon="0.9011">
        <ele>2508.22</ele>
        <time>2011-03-11T13:10:30Z</time>
      </trkpt>
      <trkpt lat="42.61538" lon="0.90111">
        <ele>2504.37</ele>
        <time>2011-03-11T13:10:32Z</time>
      </trkpt>
      <trkpt lat="42.61544" lon="0.90112">
        <ele>2501.01</ele>
        <time>2011-03-11T13:10:33Z</time>
      </trkpt>
      <trkpt lat="42.61549" lon="0.90111">
        <ele>2498.12</ele>
        <time>2011-03-11T13:10:34Z</time>
      </trkpt>
      <trkpt lat="42.61559" lon="0.90108">
        <ele>2494.76</ele>
        <time>2011-03-11T13:10:36Z</time>
      </trkpt>
      <trkpt lat="42.61565" lon="0.90107">
        <ele>2491.39</ele>
        <time>2011-03-11T13:10:37Z</time>
      </trkpt>
      <trkpt lat="42.61576" lon="0.90107">
        <ele>2485.63</ele>
        <time>2011-03-11T13:10:39Z</time>
      </trkpt>
      <trkpt lat="42.61577" lon="0.90118">
        <ele>2482.26</ele>
        <time>2011-03-11T13:10:41Z</time>
      </trkpt>
      <trkpt lat="42.61587" lon="0.90123">
        <ele>2478.9</ele>
        <time>2011-03-11T13:10:44Z</time>
      </trkpt>
      <trkpt lat="42.61589" lon="0.90123">
        <ele>2478.9</ele>
        <time>2011-03-11T13:10:54Z</time>
      </trkpt>
      <trkpt lat="42.61589" lon="0.90123">
        <ele>2478.42</ele>
        <time>2011-03-11T13:10:57Z</time>
      </trkpt>
      <trkpt lat="42.61587" lon="0.90138">
        <ele>2477.45</ele>
        <time>2011-03-11T13:11:00Z</time>
      </trkpt>
      <trkpt lat="42.61587" lon="0.90162">
        <ele>2475.53</ele>
        <time>2011-03-11T13:11:03Z</time>
      </trkpt>
      <trkpt lat="42.6159" lon="0.90177">
        <ele>2472.65</ele>
        <time>2011-03-11T13:11:09Z</time>
      </trkpt>
      <trkpt lat="42.6159" lon="0.90177">
        <ele>2474.09</ele>
        <time>2011-03-11T13:11:18Z</time>
      </trkpt>
      <trkpt lat="42.61596" lon="0.90207">
        <ele>2469.28</ele>
        <time>2011-03-11T13:11:25Z</time>
      </trkpt>
      <trkpt lat="42.61595" lon="0.90211">
        <ele>2467.84</ele>
        <time>2011-03-11T13:11:26Z</time>
      </trkpt>
      <trkpt lat="42.61589" lon="0.90233">
        <ele>2466.88</ele>
        <time>2011-03-11T13:11:34Z</time>
      </trkpt>
      <trkpt lat="42.6159" lon="0.90263">
        <ele>2464.96</ele>
        <time>2011-03-11T13:11:40Z</time>
      </trkpt>
      <trkpt lat="42.61597" lon="0.90287">
        <ele>2462.55</ele>
        <time>2011-03-11T13:11:45Z</time>
      </trkpt>
      <trkpt lat="42.61598" lon="0.9029">
        <ele>2462.07</ele>
        <time>2011-03-11T13:11:51Z</time>
      </trkpt>
      <trkpt lat="42.61608" lon="0.90296">
        <ele>2460.15</ele>
        <time>2011-03-11T13:11:55Z</time>
      </trkpt>
      <trkpt lat="42.61617" lon="0.903">
        <ele>2455.82</ele>
        <time>2011-03-11T13:11:57Z</time>
      </trkpt>
      <trkpt lat="42.61627" lon="0.90313">
        <ele>2449.1</ele>
        <time>2011-03-11T13:12:00Z</time>
      </trkpt>
      <trkpt lat="42.61628" lon="0.90319">
        <ele>2447.65</ele>
        <time>2011-03-11T13:12:01Z</time>
      </trkpt>
      <trkpt lat="42.61628" lon="0.90327">
        <ele>2446.21</ele>
        <time>2011-03-11T13:12:03Z</time>
      </trkpt>
      <trkpt lat="42.61628" lon="0.90329">
        <ele>2444.77</ele>
        <time>2011-03-11T13:12:19Z</time>
      </trkpt>
      <trkpt lat="42.61628" lon="0.90329">
        <ele>2445.25</ele>
        <time>2011-03-11T13:12:36Z</time>
      </trkpt>
      <trkpt lat="42.61642" lon="0.90328">
        <ele>2441.89</ele>
        <time>2011-03-11T13:12:40Z</time>
      </trkpt>
      <trkpt lat="42.61671" lon="0.90324">
        <ele>2427.95</ele>
        <time>2011-03-11T13:12:44Z</time>
      </trkpt>
      <trkpt lat="42.61678" lon="0.90324">
        <ele>2426.5</ele>
        <time>2011-03-11T13:12:45Z</time>
      </trkpt>
      <trkpt lat="42.61694" lon="0.90324">
        <ele>2424.1</ele>
        <time>2011-03-11T13:12:47Z</time>
      </trkpt>
      <trkpt lat="42.61705" lon="0.90326">
        <ele>2423.14</ele>
        <time>2011-03-11T13:12:49Z</time>
      </trkpt>
      <trkpt lat="42.61726" lon="0.90339">
        <ele>2420.26</ele>
        <time>2011-03-11T13:12:54Z</time>
      </trkpt>
      <trkpt lat="42.61753" lon="0.90366">
        <ele>2418.33</ele>
        <time>2011-03-11T13:13:04Z</time>
      </trkpt>
      <trkpt lat="42.61762" lon="0.9037">
        <ele>2416.41</ele>
        <time>2011-03-11T13:13:07Z</time>
      </trkpt>
      <trkpt lat="42.61785" lon="0.90379">
        <ele>2414.49</ele>
        <time>2011-03-11T13:13:18Z</time>
      </trkpt>
      <trkpt lat="42.61809" lon="0.90409">
        <ele>2410.64</ele>
        <time>2011-03-11T13:13:25Z</time>
      </trkpt>
      <trkpt lat="42.61811" lon="0.90414">
        <ele>2410.64</ele>
        <time>2011-03-11T13:13:26Z</time>
      </trkpt>
      <trkpt lat="42.61814" lon="0.90418">
        <ele>2410.64</ele>
        <time>2011-03-11T13:13:27Z</time>
      </trkpt>
      <trkpt lat="42.61821" lon="0.90425">
        <ele>2409.68</ele>
        <time>2011-03-11T13:13:29Z</time>
      </trkpt>
      <trkpt lat="42.61834" lon="0.90447">
        <ele>2406.8</ele>
        <time>2011-03-11T13:13:33Z</time>
      </trkpt>
      <trkpt lat="42.61842" lon="0.90455">
        <ele>2405.36</ele>
        <time>2011-03-11T13:13:35Z</time>
      </trkpt>
      <trkpt lat="42.61854" lon="0.90454">
        <ele>2402.47</ele>
        <time>2011-03-11T13:13:39Z</time>
      </trkpt>
      <trkpt lat="42.61863" lon="0.9045">
        <ele>2400.07</ele>
        <time>2011-03-11T13:13:42Z</time>
      </trkpt>
      <trkpt lat="42.61865" lon="0.90446">
        <ele>2398.63</ele>
        <time>2011-03-11T13:13:45Z</time>
      </trkpt>
      <trkpt lat="42.61865" lon="0.90446">
        <ele>2399.11</ele>
        <time>2011-03-11T13:14:14Z</time>
      </trkpt>
      <trkpt lat="42.61865" lon="0.90446">
        <ele>2399.11</ele>
        <time>2011-03-11T13:14:27Z</time>
      </trkpt>
      <trkpt lat="42.6187" lon="0.90448">
        <ele>2398.15</ele>
        <time>2011-03-11T13:14:30Z</time>
      </trkpt>
      <trkpt lat="42.61883" lon="0.90445">
        <ele>2396.22</ele>
        <time>2011-03-11T13:14:34Z</time>
      </trkpt>
      <trkpt lat="42.61886" lon="0.90446">
        <ele>2396.22</ele>
        <time>2011-03-11T13:14:35Z</time>
      </trkpt>
      <trkpt lat="42.61899" lon="0.90446">
        <ele>2393.34</ele>
        <time>2011-03-11T13:14:38Z</time>
      </trkpt>
      <trkpt lat="42.61912" lon="0.90457">
        <ele>2388.53</ele>
        <time>2011-03-11T13:14:41Z</time>
      </trkpt>
      <trkpt lat="42.61917" lon="0.90469">
        <ele>2384.69</ele>
        <time>2011-03-11T13:14:43Z</time>
      </trkpt>
      <trkpt lat="42.6192" lon="0.90482">
        <ele>2380.36</ele>
        <time>2011-03-11T13:14:45Z</time>
      </trkpt>
      <trkpt lat="42.61921" lon="0.90489">
        <ele>2377</ele>
        <time>2011-03-11T13:14:46Z</time>
      </trkpt>
      <trkpt lat="42.61918" lon="0.90496">
        <ele>2373.63</ele>
        <time>2011-03-11T13:14:47Z</time>
      </trkpt>
      <trkpt lat="42.61906" lon="0.90505">
        <ele>2370.75</ele>
        <time>2011-03-11T13:14:49Z</time>
      </trkpt>
      <trkpt lat="42.61888" lon="0.90521">
        <ele>2367.38</ele>
        <time>2011-03-11T13:14:54Z</time>
      </trkpt>
      <trkpt lat="42.61885" lon="0.90524">
        <ele>2367.38</ele>
        <time>2011-03-11T13:14:57Z</time>
      </trkpt>
      <trkpt lat="42.61894" lon="0.90536">
        <ele>2362.58</ele>
        <time>2011-03-11T13:15:01Z</time>
      </trkpt>
      <trkpt lat="42.61898" lon="0.9054">
        <ele>2358.25</ele>
        <time>2011-03-11T13:15:02Z</time>
      </trkpt>
      <trkpt lat="42.61908" lon="0.90549">
        <ele>2355.37</ele>
        <time>2011-03-11T13:15:04Z</time>
      </trkpt>
      <trkpt lat="42.61912" lon="0.90557">
        <ele>2349.6</ele>
        <time>2011-03-11T13:15:05Z</time>
      </trkpt>
      <trkpt lat="42.61912" lon="0.90566">
        <ele>2346.72</ele>
        <time>2011-03-11T13:15:06Z</time>
      </trkpt>
      <trkpt lat="42.61919" lon="0.90581">
        <ele>2341.43</ele>
        <time>2011-03-11T13:15:09Z</time>
      </trkpt>
      <trkpt lat="42.61927" lon="0.9059">
        <ele>2337.58</ele>
        <time>2011-03-11T13:15:11Z</time>
      </trkpt>
      <trkpt lat="42.61951" lon="0.90594">
        <ele>2330.85</ele>
        <time>2011-03-11T13:15:14Z</time>
      </trkpt>
      <trkpt lat="42.61962" lon="0.90588">
        <ele>2328.93</ele>
        <time>2011-03-11T13:15:16Z</time>
      </trkpt>
      <trkpt lat="42.61962" lon="0.90586">
        <ele>2327.49</ele>
        <time>2011-03-11T13:15:22Z</time>
      </trkpt>
      <trkpt lat="42.61961" lon="0.90585">
        <ele>2327.01</ele>
        <time>2011-03-11T13:15:48Z</time>
      </trkpt>
      <trkpt lat="42.61962" lon="0.90585">
        <ele>2327.49</ele>
        <time>2011-03-11T13:15:49Z</time>
      </trkpt>
      <trkpt lat="42.61989" lon="0.90601">
        <ele>2321.72</ele>
        <time>2011-03-11T13:15:56Z</time>
      </trkpt>
      <trkpt lat="42.61995" lon="0.90612">
        <ele>2318.84</ele>
        <time>2011-03-11T13:15:58Z</time>
      </trkpt>
      <trkpt lat="42.61998" lon="0.90619">
        <ele>2315.47</ele>
        <time>2011-03-11T13:15:59Z</time>
      </trkpt>
      <trkpt lat="42.62004" lon="0.9063">
        <ele>2311.63</ele>
        <time>2011-03-11T13:16:01Z</time>
      </trkpt>
      <trkpt lat="42.62013" lon="0.90626">
        <ele>2307.3</ele>
        <time>2011-03-11T13:16:03Z</time>
      </trkpt>
      <trkpt lat="42.62015" lon="0.90623">
        <ele>2307.3</ele>
        <time>2011-03-11T13:16:12Z</time>
      </trkpt>
      <trkpt lat="42.62015" lon="0.90623">
        <ele>2306.34</ele>
        <time>2011-03-11T13:16:16Z</time>
      </trkpt>
      <trkpt lat="42.62028" lon="0.90646">
        <ele>2302.49</ele>
        <time>2011-03-11T13:16:21Z</time>
      </trkpt>
      <trkpt lat="42.62034" lon="0.90652">
        <ele>2300.09</ele>
        <time>2011-03-11T13:16:22Z</time>
      </trkpt>
      <trkpt lat="42.62051" lon="0.90677">
        <ele>2293.36</ele>
        <time>2011-03-11T13:16:27Z</time>
      </trkpt>
      <trkpt lat="42.62065" lon="0.90698">
        <ele>2288.08</ele>
        <time>2011-03-11T13:16:30Z</time>
      </trkpt>
      <trkpt lat="42.62073" lon="0.90712">
        <ele>2285.19</ele>
        <time>2011-03-11T13:16:33Z</time>
      </trkpt>
      <trkpt lat="42.6208" lon="0.90727">
        <ele>2282.31</ele>
        <time>2011-03-11T13:16:35Z</time>
      </trkpt>
      <trkpt lat="42.62091" lon="0.90744">
        <ele>2280.38</ele>
        <time>2011-03-11T13:16:38Z</time>
      </trkpt>
      <trkpt lat="42.62104" lon="0.90766">
        <ele>2277.98</ele>
        <time>2011-03-11T13:16:47Z</time>
      </trkpt>
      <trkpt lat="42.62111" lon="0.9078">
        <ele>2277.02</ele>
        <time>2011-03-11T13:16:49Z</time>
      </trkpt>
      <trkpt lat="42.62115" lon="0.90787">
        <ele>2275.58</ele>
        <time>2011-03-11T13:16:50Z</time>
      </trkpt>
      <trkpt lat="42.62122" lon="0.90805">
        <ele>2271.73</ele>
        <time>2011-03-11T13:16:53Z</time>
      </trkpt>
      <trkpt lat="42.62125" lon="0.90814">
        <ele>2269.81</ele>
        <time>2011-03-11T13:16:55Z</time>
      </trkpt>
      <trkpt lat="42.62134" lon="0.9084">
        <ele>2268.37</ele>
        <time>2011-03-11T13:17:00Z</time>
      </trkpt>
      <trkpt lat="42.62136" lon="0.90847">
        <ele>2266.93</ele>
        <time>2011-03-11T13:17:01Z</time>
      </trkpt>
      <trkpt lat="42.62139" lon="0.90862">
        <ele>2265.96</ele>
        <time>2011-03-11T13:17:03Z</time>
      </trkpt>
      <trkpt lat="42.62141" lon="0.90875">
        <ele>2264.52</ele>
        <time>2011-03-11T13:17:05Z</time>
      </trkpt>
      <trkpt lat="42.62144" lon="0.90907">
        <ele>2260.68</ele>
        <time>2011-03-11T13:17:11Z</time>
      </trkpt>
      <trkpt lat="42.62144" lon="0.9092">
        <ele>2258.75</ele>
        <time>2011-03-11T13:17:13Z</time>
      </trkpt>
      <trkpt lat="42.62155" lon="0.90956">
        <ele>2252.51</ele>
        <time>2011-03-11T13:17:19Z</time>
      </trkpt>
      <trkpt lat="42.62157" lon="0.90959">
        <ele>2252.51</ele>
        <time>2011-03-11T13:17:20Z</time>
      </trkpt>
      <trkpt lat="42.62156" lon="0.90963">
        <ele>2252.03</ele>
        <time>2011-03-11T13:17:22Z</time>
      </trkpt>
      <trkpt lat="42.62155" lon="0.90986">
        <ele>2250.1</ele>
        <time>2011-03-11T13:17:27Z</time>
      </trkpt>
      <trkpt lat="42.62156" lon="0.91006">
        <ele>2247.7</ele>
        <time>2011-03-11T13:17:30Z</time>
      </trkpt>
      <trkpt lat="42.62154" lon="0.91027">
        <ele>2245.3</ele>
        <time>2011-03-11T13:17:33Z</time>
      </trkpt>
      <trkpt lat="42.62154" lon="0.91057">
        <ele>2243.37</ele>
        <time>2011-03-11T13:17:37Z</time>
      </trkpt>
      <trkpt lat="42.62154" lon="0.91073">
        <ele>2241.93</ele>
        <time>2011-03-11T13:17:39Z</time>
      </trkpt>
      <trkpt lat="42.62153" lon="0.91092">
        <ele>2240.01</ele>
        <time>2011-03-11T13:17:42Z</time>
      </trkpt>
      <trkpt lat="42.62151" lon="0.91102">
        <ele>2238.09</ele>
        <time>2011-03-11T13:17:44Z</time>
      </trkpt>
      <trkpt lat="42.62142" lon="0.91145">
        <ele>2234.72</ele>
        <time>2011-03-11T13:17:53Z</time>
      </trkpt>
      <trkpt lat="42.62138" lon="0.91162">
        <ele>2232.8</ele>
        <time>2011-03-11T13:17:56Z</time>
      </trkpt>
      <trkpt lat="42.62134" lon="0.9122">
        <ele>2228.95</ele>
        <time>2011-03-11T13:18:05Z</time>
      </trkpt>
      <trkpt lat="42.62134" lon="0.91227">
        <ele>2228.95</ele>
        <time>2011-03-11T13:18:06Z</time>
      </trkpt>
      <trkpt lat="42.62136" lon="0.91247">
        <ele>2227.03</ele>
        <time>2011-03-11T13:18:10Z</time>
      </trkpt>
      <trkpt lat="42.62147" lon="0.91301">
        <ele>2225.59</ele>
        <time>2011-03-11T13:18:24Z</time>
      </trkpt>
      <trkpt lat="42.62154" lon="0.9133">
        <ele>2224.15</ele>
        <time>2011-03-11T13:18:34Z</time>
      </trkpt>
      <trkpt lat="42.62162" lon="0.91368">
        <ele>2223.67</ele>
        <time>2011-03-11T13:18:48Z</time>
      </trkpt>
      <trkpt lat="42.62161" lon="0.91377">
        <ele>2223.67</ele>
        <time>2011-03-11T13:18:59Z</time>
      </trkpt>
      <trkpt lat="42.62161" lon="0.91377">
        <ele>2224.63</ele>
        <time>2011-03-11T13:19:06Z</time>
      </trkpt>
      <trkpt lat="42.62161" lon="0.91377">
        <ele>2222.22</ele>
        <time>2011-03-11T13:19:09Z</time>
      </trkpt>
      <trkpt lat="42.62161" lon="0.91377">
        <ele>2218.38</ele>
        <time>2011-03-11T13:20:33Z</time>
      </trkpt>
      <trkpt lat="42.62161" lon="0.91377">
        <ele>2221.74</ele>
        <time>2011-03-11T13:20:39Z</time>
      </trkpt>
      <trkpt lat="42.62161" lon="0.91376">
        <ele>2222.71</ele>
        <time>2011-03-11T13:21:21Z</time>
      </trkpt>
      <trkpt lat="42.62161" lon="0.91376">
        <ele>2222.71</ele>
        <time>2011-03-11T13:21:34Z</time>
      </trkpt>
      <trkpt lat="42.62161" lon="0.91376">
        <ele>2222.22</ele>
        <time>2011-03-11T13:21:40Z</time>
      </trkpt>
      <trkpt lat="42.62161" lon="0.91376">
        <ele>2221.26</ele>
        <time>2011-03-11T13:21:58Z</time>
      </trkpt>
      <trkpt lat="42.62161" lon="0.91375">
        <ele>2221.74</ele>
        <time>2011-03-11T13:22:23Z</time>
      </trkpt>
      <trkpt lat="42.62161" lon="0.91376">
        <ele>2221.74</ele>
        <time>2011-03-11T13:22:36Z</time>
      </trkpt>
      <trkpt lat="42.62163" lon="0.9142">
        <ele>2218.38</ele>
        <time>2011-03-11T13:22:50Z</time>
      </trkpt>
      <trkpt lat="42.62163" lon="0.91424">
        <ele>2218.86</ele>
        <time>2011-03-11T13:22:51Z</time>
      </trkpt>
      <trkpt lat="42.62164" lon="0.91438">
        <ele>2217.42</ele>
        <time>2011-03-11T13:22:55Z</time>
      </trkpt>
      <trkpt lat="42.6217" lon="0.91463">
        <ele>2214.05</ele>
        <time>2011-03-11T13:22:59Z</time>
      </trkpt>
      <trkpt lat="42.62172" lon="0.91471">
        <ele>2213.57</ele>
        <time>2011-03-11T13:23:00Z</time>
      </trkpt>
      <trkpt lat="42.6219" lon="0.9152">
        <ele>2209.73</ele>
        <time>2011-03-11T13:23:06Z</time>
      </trkpt>
      <trkpt lat="42.6221" lon="0.91574">
        <ele>2205.88</ele>
        <time>2011-03-11T13:23:14Z</time>
      </trkpt>
      <trkpt lat="42.62224" lon="0.91612">
        <ele>2205.88</ele>
        <time>2011-03-11T13:23:24Z</time>
      </trkpt>
      <trkpt lat="42.62225" lon="0.91622">
        <ele>2206.36</ele>
        <time>2011-03-11T13:23:39Z</time>
      </trkpt>
      <trkpt lat="42.62228" lon="0.91646">
        <ele>2204.92</ele>
        <time>2011-03-11T13:23:48Z</time>
      </trkpt>
      <trkpt lat="42.62231" lon="0.91662">
        <ele>2203</ele>
        <time>2011-03-11T13:23:51Z</time>
      </trkpt>
      <trkpt lat="42.62241" lon="0.91695">
        <ele>2200.59</ele>
        <time>2011-03-11T13:23:56Z</time>
      </trkpt>
      <trkpt lat="42.62252" lon="0.91722">
        <ele>2202.52</ele>
        <time>2011-03-11T13:24:06Z</time>
      </trkpt>
      <trkpt lat="42.62254" lon="0.91738">
        <ele>2203</ele>
        <time>2011-03-11T13:24:13Z</time>
      </trkpt>
      <trkpt lat="42.62257" lon="0.91766">
        <ele>2202.52</ele>
        <time>2011-03-11T13:24:24Z</time>
      </trkpt>
      <trkpt lat="42.62262" lon="0.91797">
        <ele>2201.08</ele>
        <time>2011-03-11T13:24:36Z</time>
      </trkpt>
      <trkpt lat="42.62266" lon="0.91812">
        <ele>2200.11</ele>
        <time>2011-03-11T13:24:46Z</time>
      </trkpt>
      <trkpt lat="42.62278" lon="0.91831">
        <ele>2197.23</ele>
        <time>2011-03-11T13:24:54Z</time>
      </trkpt>
      <trkpt lat="42.62285" lon="0.91845">
        <ele>2195.31</ele>
        <time>2011-03-11T13:24:59Z</time>
      </trkpt>
      <trkpt lat="42.62288" lon="0.91846">
        <ele>2194.83</ele>
        <time>2011-03-11T13:25:14Z</time>
      </trkpt>
      <trkpt lat="42.62287" lon="0.91846">
        <ele>2195.31</ele>
        <time>2011-03-11T13:25:36Z</time>
      </trkpt>
      <trkpt lat="42.62287" lon="0.91846">
        <ele>2194.83</ele>
        <time>2011-03-11T13:25:52Z</time>
      </trkpt>
      <trkpt lat="42.62284" lon="0.91843">
        <ele>2196.27</ele>
        <time>2011-03-11T13:26:04Z</time>
      </trkpt>
      <trkpt lat="42.62278" lon="0.91834">
        <ele>2197.23</ele>
        <time>2011-03-11T13:26:18Z</time>
      </trkpt>
      <trkpt lat="42.6227" lon="0.91822">
        <ele>2198.67</ele>
        <time>2011-03-11T13:26:31Z</time>
      </trkpt>
      <trkpt lat="42.62266" lon="0.91812">
        <ele>2199.15</ele>
        <time>2011-03-11T13:26:42Z</time>
      </trkpt>
      <trkpt lat="42.62265" lon="0.91809">
        <ele>2199.63</ele>
        <time>2011-03-11T13:26:52Z</time>
      </trkpt>
      <trkpt lat="42.62264" lon="0.91803">
        <ele>2200.59</ele>
        <time>2011-03-11T13:27:01Z</time>
      </trkpt>
      <trkpt lat="42.6226" lon="0.91793">
        <ele>2202.04</ele>
        <time>2011-03-11T13:27:12Z</time>
      </trkpt>
      <trkpt lat="42.62259" lon="0.91783">
        <ele>2202.04</ele>
        <time>2011-03-11T13:27:21Z</time>
      </trkpt>
      <trkpt lat="42.62257" lon="0.91772">
        <ele>2202.52</ele>
        <time>2011-03-11T13:27:33Z</time>
      </trkpt>
      <trkpt lat="42.62256" lon="0.91766">
        <ele>2201.56</ele>
        <time>2011-03-11T13:27:37Z</time>
      </trkpt>
      <trkpt lat="42.62255" lon="0.91762">
        <ele>2202.04</ele>
        <time>2011-03-11T13:27:41Z</time>
      </trkpt>
      <trkpt lat="42.62255" lon="0.91748">
        <ele>2202.52</ele>
        <time>2011-03-11T13:27:49Z</time>
      </trkpt>
      <trkpt lat="42.62255" lon="0.91743">
        <ele>2202.52</ele>
        <time>2011-03-11T13:27:54Z</time>
      </trkpt>
      <trkpt lat="42.62256" lon="0.91732">
        <ele>2203</ele>
        <time>2011-03-11T13:28:01Z</time>
      </trkpt>
      <trkpt lat="42.6226" lon="0.91724">
        <ele>2203.48</ele>
        <time>2011-03-11T13:28:11Z</time>
      </trkpt>
      <trkpt lat="42.6226" lon="0.91722">
        <ele>2203</ele>
        <time>2011-03-11T13:28:13Z</time>
      </trkpt>
      <trkpt lat="42.62262" lon="0.91711">
        <ele>2202.52</ele>
        <time>2011-03-11T13:28:20Z</time>
      </trkpt>
      <trkpt lat="42.62279" lon="0.91707">
        <ele>2200.59</ele>
        <time>2011-03-11T13:28:27Z</time>
      </trkpt>
      <trkpt lat="42.62306" lon="0.91717">
        <ele>2197.71</ele>
        <time>2011-03-11T13:28:32Z</time>
      </trkpt>
      <trkpt lat="42.62311" lon="0.91718">
        <ele>2197.71</ele>
        <time>2011-03-11T13:28:33Z</time>
      </trkpt>
      <trkpt lat="42.62335" lon="0.91724">
        <ele>2194.83</ele>
        <time>2011-03-11T13:28:38Z</time>
      </trkpt>
      <trkpt lat="42.62339" lon="0.91728">
        <ele>2193.87</ele>
        <time>2011-03-11T13:28:39Z</time>
      </trkpt>
      <trkpt lat="42.62345" lon="0.91735">
        <ele>2193.87</ele>
        <time>2011-03-11T13:28:41Z</time>
      </trkpt>
      <trkpt lat="42.62353" lon="0.91748">
        <ele>2192.42</ele>
        <time>2011-03-11T13:28:44Z</time>
      </trkpt>
      <trkpt lat="42.62376" lon="0.91773">
        <ele>2188.58</ele>
        <time>2011-03-11T13:28:50Z</time>
      </trkpt>
      <trkpt lat="42.62381" lon="0.91777">
        <ele>2186.66</ele>
        <time>2011-03-11T13:28:51Z</time>
      </trkpt>
      <trkpt lat="42.62407" lon="0.91793">
        <ele>2183.29</ele>
        <time>2011-03-11T13:28:55Z</time>
      </trkpt>
      <trkpt lat="42.62432" lon="0.91806">
        <ele>2178.48</ele>
        <time>2011-03-11T13:28:59Z</time>
      </trkpt>
      <trkpt lat="42.62446" lon="0.91812">
        <ele>2174.64</ele>
        <time>2011-03-11T13:29:02Z</time>
      </trkpt>
      <trkpt lat="42.6245" lon="0.91816">
        <ele>2174.64</ele>
        <time>2011-03-11T13:29:03Z</time>
      </trkpt>
      <trkpt lat="42.62462" lon="0.91831">
        <ele>2172.72</ele>
        <time>2011-03-11T13:29:07Z</time>
      </trkpt>
      <trkpt lat="42.62473" lon="0.91854">
        <ele>2170.31</ele>
        <time>2011-03-11T13:29:16Z</time>
      </trkpt>
      <trkpt lat="42.62473" lon="0.91854">
        <ele>2170.31</ele>
        <time>2011-03-11T13:29:42Z</time>
      </trkpt>
      <trkpt lat="42.62494" lon="0.9185">
        <ele>2165.99</ele>
        <time>2011-03-11T13:29:48Z</time>
      </trkpt>
      <trkpt lat="42.62494" lon="0.91853">
        <ele>2164.55</ele>
        <time>2011-03-11T13:29:51Z</time>
      </trkpt>
      <trkpt lat="42.62494" lon="0.91856">
        <ele>2164.06</ele>
        <time>2011-03-11T13:30:16Z</time>
      </trkpt>
      <trkpt lat="42.62511" lon="0.91867">
        <ele>2161.66</ele>
        <time>2011-03-11T13:30:23Z</time>
      </trkpt>
      <trkpt lat="42.62512" lon="0.9187">
        <ele>2160.7</ele>
        <time>2011-03-11T13:30:24Z</time>
      </trkpt>
      <trkpt lat="42.62512" lon="0.91892">
        <ele>2157.34</ele>
        <time>2011-03-11T13:30:29Z</time>
      </trkpt>
      <trkpt lat="42.62504" lon="0.91894">
        <ele>2155.41</ele>
        <time>2011-03-11T13:30:31Z</time>
      </trkpt>
      <trkpt lat="42.62488" lon="0.91908">
        <ele>2153.01</ele>
        <time>2011-03-11T13:30:35Z</time>
      </trkpt>
      <trkpt lat="42.62485" lon="0.91915">
        <ele>2152.05</ele>
        <time>2011-03-11T13:30:36Z</time>
      </trkpt>
      <trkpt lat="42.62465" lon="0.91959">
        <ele>2147.24</ele>
        <time>2011-03-11T13:30:41Z</time>
      </trkpt>
      <trkpt lat="42.62462" lon="0.91968">
        <ele>2147.24</ele>
        <time>2011-03-11T13:30:42Z</time>
      </trkpt>
      <trkpt lat="42.62457" lon="0.91986">
        <ele>2145.8</ele>
        <time>2011-03-11T13:30:44Z</time>
      </trkpt>
      <trkpt lat="42.62452" lon="0.92011">
        <ele>2143.88</ele>
        <time>2011-03-11T13:30:51Z</time>
      </trkpt>
      <trkpt lat="42.62436" lon="0.92031">
        <ele>2141.95</ele>
        <time>2011-03-11T13:30:59Z</time>
      </trkpt>
      <trkpt lat="42.62422" lon="0.92045">
        <ele>2140.03</ele>
        <time>2011-03-11T13:31:08Z</time>
      </trkpt>
      <trkpt lat="42.6242" lon="0.92052">
        <ele>2138.11</ele>
        <time>2011-03-11T13:31:11Z</time>
      </trkpt>
      <trkpt lat="42.6242" lon="0.92052">
        <ele>2138.11</ele>
        <time>2011-03-11T13:31:38Z</time>
      </trkpt>
      <trkpt lat="42.6242" lon="0.92052">
        <ele>2137.63</ele>
        <time>2011-03-11T13:32:05Z</time>
      </trkpt>
      <trkpt lat="42.6242" lon="0.92051">
        <ele>2137.63</ele>
        <time>2011-03-11T13:32:48Z</time>
      </trkpt>
      <trkpt lat="42.62419" lon="0.92052">
        <ele>2137.63</ele>
        <time>2011-03-11T13:33:28Z</time>
      </trkpt>
      <trkpt lat="42.62419" lon="0.92051">
        <ele>2137.63</ele>
        <time>2011-03-11T13:34:04Z</time>
      </trkpt>
      <trkpt lat="42.62419" lon="0.9205">
        <ele>2137.63</ele>
        <time>2011-03-11T13:34:38Z</time>
      </trkpt>
      <trkpt lat="42.62419" lon="0.9205">
        <ele>2137.63</ele>
        <time>2011-03-11T13:35:09Z</time>
      </trkpt>
      <trkpt lat="42.62418" lon="0.9205">
        <ele>2138.11</ele>
        <time>2011-03-11T13:35:44Z</time>
      </trkpt>
      <trkpt lat="42.62418" lon="0.92049">
        <ele>2136.67</ele>
        <time>2011-03-11T13:36:00Z</time>
      </trkpt>
      <trkpt lat="42.62418" lon="0.9205">
        <ele>2137.63</ele>
        <time>2011-03-11T13:36:04Z</time>
      </trkpt>
      <trkpt lat="42.62419" lon="0.92051">
        <ele>2137.15</ele>
        <time>2011-03-11T13:36:14Z</time>
      </trkpt>
      <trkpt lat="42.62419" lon="0.92051">
        <ele>2137.15</ele>
        <time>2011-03-11T13:36:26Z</time>
      </trkpt>
      <trkpt lat="42.6242" lon="0.92051">
        <ele>2137.15</ele>
        <time>2011-03-11T13:36:49Z</time>
      </trkpt>
      <trkpt lat="42.6242" lon="0.92051">
        <ele>2135.71</ele>
        <time>2011-03-11T13:36:58Z</time>
      </trkpt>
      <trkpt lat="42.62419" lon="0.9205">
        <ele>2136.67</ele>
        <time>2011-03-11T13:37:08Z</time>
      </trkpt>
      <trkpt lat="42.62419" lon="0.92051">
        <ele>2137.15</ele>
        <time>2011-03-11T13:37:23Z</time>
      </trkpt>
      <trkpt lat="42.62419" lon="0.92051">
        <ele>2137.15</ele>
        <time>2011-03-11T13:37:47Z</time>
      </trkpt>
      <trkpt lat="42.6242" lon="0.92051">
        <ele>2137.15</ele>
        <time>2011-03-11T13:38:09Z</time>
      </trkpt>
      <trkpt lat="42.62418" lon="0.92053">
        <ele>2135.23</ele>
        <time>2011-03-11T13:38:28Z</time>
      </trkpt>
      <trkpt lat="42.62419" lon="0.92053">
        <ele>2140.03</ele>
        <time>2011-03-11T13:39:42Z</time>
      </trkpt>
      <trkpt lat="42.62419" lon="0.92053">
        <ele>2135.23</ele>
        <time>2011-03-11T13:39:43Z</time>
      </trkpt>
      <trkpt lat="42.62419" lon="0.92053">
        <ele>2136.67</ele>
        <time>2011-03-11T13:39:48Z</time>
      </trkpt>
      <trkpt lat="42.62419" lon="0.92053">
        <ele>2141.47</ele>
        <time>2011-03-11T13:39:51Z</time>
      </trkpt>
      <trkpt lat="42.62419" lon="0.92053">
        <ele>2137.15</ele>
        <time>2011-03-11T13:39:52Z</time>
      </trkpt>
      <trkpt lat="42.62419" lon="0.92053">
        <ele>2136.19</ele>
        <time>2011-03-11T13:39:54Z</time>
      </trkpt>
      <trkpt lat="42.62423" lon="0.92055">
        <ele>2136.67</ele>
        <time>2011-03-11T13:40:24Z</time>
      </trkpt>
      <trkpt lat="42.62409" lon="0.92078">
        <ele>2136.67</ele>
        <time>2011-03-11T13:40:57Z</time>
      </trkpt>
      <trkpt lat="42.62434" lon="0.92067">
        <ele>2137.63</ele>
        <time>2011-03-11T13:41:11Z</time>
      </trkpt>
      <trkpt lat="42.62437" lon="0.92062">
        <ele>2136.67</ele>
        <time>2011-03-11T13:41:54Z</time>
      </trkpt>
      <trkpt lat="42.62426" lon="0.92036">
        <ele>2136.67</ele>
        <time>2011-03-11T13:42:15Z</time>
      </trkpt>
      <trkpt lat="42.62425" lon="0.91992">
        <ele>2137.15</ele>
        <time>2011-03-11T13:42:46Z</time>
      </trkpt>
      <trkpt lat="42.62427" lon="0.91991">
        <ele>2137.15</ele>
        <time>2011-03-11T13:42:52Z</time>
      </trkpt>
      <trkpt lat="42.62444" lon="0.92014">
        <ele>2137.15</ele>
        <time>2011-03-11T13:43:18Z</time>
      </trkpt>
      <trkpt lat="42.62446" lon="0.92004">
        <ele>2137.63</ele>
        <time>2011-03-11T13:43:37Z</time>
      </trkpt>
      <trkpt lat="42.62441" lon="0.9197">
        <ele>2137.63</ele>
        <time>2011-03-11T13:45:05Z</time>
      </trkpt>
      <trkpt lat="42.62441" lon="0.9197">
        <ele>2138.59</ele>
        <time>2011-03-11T13:46:19Z</time>
      </trkpt>
      <trkpt lat="42.62441" lon="0.9197">
        <ele>2139.07</ele>
        <time>2011-03-11T13:46:31Z</time>
      </trkpt>
      <trkpt lat="42.62441" lon="0.9197">
        <ele>2139.07</ele>
        <time>2011-03-11T13:47:05Z</time>
      </trkpt>
      <trkpt lat="42.62441" lon="0.9197">
        <ele>2136.19</ele>
        <time>2011-03-11T13:48:19Z</time>
      </trkpt>
      <trkpt lat="42.62441" lon="0.9197">
        <ele>2135.71</ele>
        <time>2011-03-11T13:48:32Z</time>
      </trkpt>
      <trkpt lat="42.62441" lon="0.9197">
        <ele>2137.15</ele>
        <time>2011-03-11T13:48:34Z</time>
      </trkpt>
      <trkpt lat="42.62441" lon="0.9197">
        <ele>2135.23</ele>
        <time>2011-03-11T13:48:46Z</time>
      </trkpt>
      <trkpt lat="42.62441" lon="0.9197">
        <ele>2138.59</ele>
        <time>2011-03-11T13:49:40Z</time>
      </trkpt>
      <trkpt lat="42.62441" lon="0.9197">
        <ele>2141.47</ele>
        <time>2011-03-11T13:50:29Z</time>
      </trkpt>
      <trkpt lat="42.62441" lon="0.9197">
        <ele>2138.59</ele>
        <time>2011-03-11T13:50:30Z</time>
      </trkpt>
      <trkpt lat="42.62441" lon="0.9197">
        <ele>2138.11</ele>
        <time>2011-03-11T13:50:31Z</time>
      </trkpt>
      <trkpt lat="42.62441" lon="0.9197">
        <ele>2141.47</ele>
        <time>2011-03-11T13:50:32Z</time>
      </trkpt>
      <trkpt lat="42.62441" lon="0.9197">
        <ele>2133.78</ele>
        <time>2011-03-11T13:50:33Z</time>
      </trkpt>
      <trkpt lat="42.62441" lon="0.9197">
        <ele>2140.51</ele>
        <time>2011-03-11T13:50:34Z</time>
      </trkpt>
      <trkpt lat="42.62441" lon="0.9197">
        <ele>2140.99</ele>
        <time>2011-03-11T13:50:36Z</time>
      </trkpt>
      <trkpt lat="42.62441" lon="0.9197">
        <ele>2133.78</ele>
        <time>2011-03-11T13:50:37Z</time>
      </trkpt>
      <trkpt lat="42.62441" lon="0.9197">
        <ele>2142.92</ele>
        <time>2011-03-11T13:50:38Z</time>
      </trkpt>
      <trkpt lat="42.62441" lon="0.9197">
        <ele>2140.99</ele>
        <time>2011-03-11T13:50:39Z</time>
      </trkpt>
      <trkpt lat="42.62441" lon="0.9197">
        <ele>2139.07</ele>
        <time>2011-03-11T13:50:40Z</time>
      </trkpt>
      <trkpt lat="42.62441" lon="0.9197">
        <ele>2138.11</ele>
        <time>2011-03-11T13:50:43Z</time>
      </trkpt>
      <trkpt lat="42.62441" lon="0.9197">
        <ele>2130.9</ele>
        <time>2011-03-11T13:50:44Z</time>
      </trkpt>
      <trkpt lat="42.62441" lon="0.9197">
        <ele>2138.59</ele>
        <time>2011-03-11T13:50:45Z</time>
      </trkpt>
      <trkpt lat="42.62441" lon="0.9197">
        <ele>2133.3</ele>
        <time>2011-03-11T13:50:46Z</time>
      </trkpt>
      <trkpt lat="42.62441" lon="0.9197">
        <ele>2131.38</ele>
        <time>2011-03-11T13:50:47Z</time>
      </trkpt>
      <trkpt lat="42.62441" lon="0.9197">
        <ele>2138.59</ele>
        <time>2011-03-11T13:50:48Z</time>
      </trkpt>
      <trkpt lat="42.62441" lon="0.9197">
        <ele>2136.67</ele>
        <time>2011-03-11T13:50:49Z</time>
      </trkpt>
      <trkpt lat="42.62441" lon="0.9197">
        <ele>2139.55</ele>
        <time>2011-03-11T13:50:50Z</time>
      </trkpt>
      <trkpt lat="42.62441" lon="0.9197">
        <ele>2141.47</ele>
        <time>2011-03-11T13:50:52Z</time>
      </trkpt>
      <trkpt lat="42.62441" lon="0.9197">
        <ele>2136.19</ele>
        <time>2011-03-11T13:50:53Z</time>
      </trkpt>
      <trkpt lat="42.62441" lon="0.9197">
        <ele>2140.99</ele>
        <time>2011-03-11T13:50:54Z</time>
      </trkpt>
      <trkpt lat="42.62441" lon="0.9197">
        <ele>2139.55</ele>
        <time>2011-03-11T13:50:55Z</time>
      </trkpt>
    </trkseg>
  </trk>
</gpx>